[[{"header":{"parameterUnit":"m.s-1","parameterCategory":1,"la1":30.6,"la2":28.766,"lo1":-90.7593,"lo2":-88.6598,"dy":0.0162,"dx":0.0183,"nx":116,"ny":114,"refTime":"2023-08-05T12:00:00:Z","depth":0,"parameterNumber":2,"parameterNumberName":"U-component_of_WINDS"},"data":[0.0,0.0,0.0,0.0,0.0,0.0,0.0,0.0,0.0,0.0,0.0,0.0,0.0,0.0,0.0,0.0,0.0,0.0,0.0,0.0,0.0,0.0,0.0,0.0,0.0,0.0,0.0,0.0,0.0,0.0,0.0,0.0,0.0,0.0,0.0,0.0,0.0,0.0,0.0,0.0,0.0,0.0,0.0,0.0,0.0,0.0,0.0,0.0,0.0,0.0,0.0,0.0,0.0,0.0,0.0,0.0,0.0,0.0,0.0,0.0,0.0,0.0,0.0,0.0,0.0,0.0,0.0,0.0,0.0,0.0,0.0,0.0,0.0,0.0,0.0,0.0,0.0,0.0,0.0,0.0,0.0,0.0,0.0,0.0,0.0,0.0,0.0,0.0,0.0,0.0,0.0,0.0,0.0,0.0,0.0,0.0,0.0,0.0,0.0,0.0,0.0,0.0,0.0,0.0,0.0,0.0,0.0,0.0,0.0,0.0,0.0,0.0,0.0,0.0,0.0,0.0,0.0,0.0,0.0,0.0,0.0,0.0,0.0,0.0,0.0,0.0,0.0,0.0,0.0,0.0,0.0,0.0,0.0,0.0,0.0,0.0,0.0,0.0,0.0,0.0,0.0,0.0,0.0,0.0,0.0,0.0,0.0,0.0,0.0,0.0,0.0,0.0,0.0,0.0,0.0,0.0,0.0,0.0,0.0,0.0,0.0,0.0,0.0,0.0,0.0,0.0,0.0,0.0,0.0,0.0,0.0,0.0,0.0,0.0,0.0,0.0,0.0,0.0,0.0,0.0,0.0,0.0,0.0,0.0,0.0,0.0,0.0,0.0,0.0,0.0,0.0,0.0,0.0,0.0,0.0,0.0,0.0,0.0,0.0,0.0,0.0,0.0,0.0,0.0,0.0,0.0,0.0,0.0,0.0,0.0,0.0,0.0,0.0,0.0,0.0,0.0,0.0,0.0,0.0,0.0,0.0,0.0,0.0,0.0,0.0,0.0,0.0,0.0,0.0,0.0,0.0,0.0,0.0,0.0,0.0,0.0,0.0,0.0,0.0,0.0,0.0,0.0,0.0,0.0,0.0,0.0,0.0,0.0,0.0,0.0,0.0,0.0,0.0,0.0,0.0,0.0,0.0,0.0,0.0,0.0,0.0,0.0,0.0,0.0,0.0,0.0,0.0,0.0,0.0,0.0,0.0,0.0,0.0,0.0,0.0,0.0,0.0,0.0,0.0,0.0,0.0,0.0,0.0,0.0,0.0,0.0,0.0,0.0,0.0,0.0,0.0,0.0,0.0,0.0,0.0,0.0,0.0,0.0,0.0,0.0,0.0,0.0,0.0,0.0,0.0,0.0,0.0,0.0,0.0,0.0,0.0,0.0,0.0,0.0,0.0,0.0,0.0,0.0,0.0,0.0,0.0,0.0,0.0,0.0,0.0,0.0,0.0,0.0,0.0,0.0,0.0,0.0,0.0,0.0,0.0,0.0,0.0,0.0,0.0,0.0,0.0,0.0,0.0,0.0,0.0,0.0,0.0,0.0,0.0,0.0,0.0,0.0,0.0,0.0,0.0,0.0,0.0,0.0,0.0,0.0,0.0,0.0,0.0,0.0,0.0,0.0,0.0,0.0,0.0,0.0,0.0,0.0,0.0,0.0,0.0,0.0,0.0,0.0,0.0,0.0,0.0,0.0,0.0,0.0,0.0,0.0,0.0,0.0,0.0,0.0,0.0,0.0,0.0,0.0,0.0,0.0,0.0,0.0,0.0,0.0,0.0,0.0,0.0,0.0,0.0,0.0,0.0,0.0,0.0,0.0,0.0,0.0,0.0,0.0,0.0,0.0,0.0,0.0,0.0,0.0,0.0,0.0,0.0,0.0,0.0,0.0,0.0,0.0,0.0,0.0,0.0,0.0,0.0,0.0,0.0,0.0,0.0,0.0,0.0,0.0,0.0,0.0,0.0,0.0,0.0,0.0,0.0,0.0,0.0,0.0,0.0,0.0,0.0,0.0,0.0,0.0,0.0,0.0,0.0,0.0,0.0,0.0,0.0,0.0,0.0,0.0,0.0,0.0,0.0,0.0,0.0,0.0,0.0,0.0,0.0,0.0,0.0,0.0,0.0,0.0,0.0,0.0,0.0,0.0,0.0,0.0,0.0,0.0,0.0,0.0,0.0,0.0,0.0,0.0,0.0,0.0,0.0,0.0,0.0,0.0,0.0,0.0,0.0,0.0,0.0,0.0,0.0,0.0,0.0,0.0,0.0,0.0,0.0,0.0,0.0,0.0,0.0,0.0,0.0,0.0,0.0,0.0,0.0,0.0,0.0,0.0,0.0,0.0,0.0,0.0,0.0,0.0,0.0,0.0,0.0,0.0,0.0,0.0,0.0,0.0,0.0,0.0,0.0,0.0,0.0,0.0,0.0,0.0,0.0,0.0,0.0,0.0,0.0,0.0,0.0,0.0,0.0,0.0,0.0,0.0,0.0,0.0,0.0,0.0,0.0,0.0,0.0,0.0,0.0,0.0,0.0,0.0,0.0,0.0,0.0,0.0,0.0,0.0,0.0,0.0,0.0,0.0,0.0,0.0,0.0,0.0,0.0,0.0,0.0,0.0,0.0,0.0,0.0,0.0,0.0,0.0,0.0,0.0,0.0,0.0,0.0,0.0,0.0,0.0,0.0,0.0,0.0,0.0,0.0,0.0,0.0,0.0,0.0,0.0,0.0,0.0,0.0,0.0,0.0,0.0,0.0,0.0,0.0,0.0,0.0,0.0,0.0,0.0,0.0,0.0,0.0,0.0,0.0,0.0,0.0,0.0,0.0,0.0,0.0,0.0,0.0,0.0,0.0,0.0,0.0,0.0,0.0,0.0,0.0,0.0,0.0,0.0,0.0,0.0,0.0,0.0,0.0,0.0,0.0,0.0,0.0,0.0,0.0,0.0,0.0,0.0,0.0,0.0,0.0,0.0,0.0,0.0,0.0,0.0,0.0,0.0,0.0,0.0,0.0,0.0,0.0,0.0,0.0,0.0,0.0,0.0,0.0,0.0,0.0,0.0,0.0,0.0,0.0,0.0,0.0,0.0,0.0,0.0,0.0,0.0,0.0,0.0,0.0,0.0,0.0,0.0,0.0,0.0,0.0,0.0,0.0,0.0,0.0,0.0,0.0,0.0,0.0,0.0,0.0,0.0,0.0,0.0,0.0,0.0,0.0,0.0,0.0,0.0,0.0,0.0,0.0,0.0,0.0,0.0,0.0,0.0,0.0,0.0,0.0,0.0,0.0,0.0,0.0,0.0,0.0,0.0,0.0,0.0,0.0,0.0,0.0,0.0,0.0,0.0,0.0,0.0,0.0,0.0,0.0,0.0,0.0,0.0,0.0,0.0,0.0,0.0,0.0,0.0,0.0,0.0,0.0,0.0,0.0,0.0,0.0,0.0,0.0,0.0,0.0,0.0,0.0,0.0,0.0,0.0,0.0,0.0,0.0,0.0,0.0,0.0,0.0,0.0,0.0,0.0,0.0,0.0,0.0,0.0,0.0,0.0,0.0,0.0,0.0,0.0,0.0,0.0,0.0,0.0,0.0,0.0,0.0,0.0,0.0,0.0,0.0,0.0,0.0,0.0,0.0,0.0,0.0,0.0,0.0,0.0,0.0,0.0,0.0,0.0,0.0,0.0,0.0,0.0,0.0,0.0,0.0,0.0,0.0,0.0,0.0,0.0,0.0,0.0,0.0,0.0,0.0,0.0,0.0,0.0,0.0,0.0,0.0,0.0,0.0,0.0,0.0,0.0,0.0,0.0,0.0,0.0,0.0,0.0,0.0,0.0,0.0,0.0,0.0,0.0,0.0,0.0,0.0,0.0,0.0,0.0,0.0,0.0,0.0,0.0,0.0,0.0,0.0,0.0,0.0,0.0,0.0,0.0,0.0,0.0,0.0,0.0,0.0,0.0,0.0,0.0,0.0,0.0,0.0,0.0,0.0,0.0,0.0,0.0,0.0,0.0,0.0,0.0,0.0,0.0,0.0,0.0,0.0,0.0,0.0,0.0,0.0,0.0,0.0,0.0,0.0,0.0,0.0,0.0,0.0,0.0,0.0,0.0,0.0,0.0,0.0,0.0,0.0,0.0,0.0,0.0,0.0,0.0,0.0,0.0,0.0,0.0,0.0,0.0,0.0,0.0,0.0,0.0,0.0,0.0,0.0,0.0,0.0,0.0,0.0,0.0,0.0,0.0,0.0,0.0,0.0,0.0,0.0,0.0,0.0,0.0,0.0,0.0,0.0,0.0,0.0,0.0,0.0,0.0,0.0,0.0,0.0,0.0,0.0,0.0,0.0,0.0,0.0,0.0,0.0,0.0,0.0,0.0,0.0,0.0,0.0,0.0,0.0,0.0,0.0,0.0,0.0,0.0,0.0,0.0,0.0,0.0,0.0,0.0,0.0,0.0,0.0,0.0,0.0,0.0,0.0,0.0,0.0,0.0,0.0,0.0,0.0,0.0,0.0,0.0,0.0,0.0,0.0,0.0,0.0,0.0,0.0,0.0,0.0,0.0,0.0,0.0,0.0,0.0,0.0,0.0,0.0,0.0,0.0,0.0,0.0,0.0,0.0,0.0,0.0,0.0,0.0,0.0,0.0,0.0,0.0,0.0,0.0,0.0,0.0,0.0,0.0,0.0,0.0,0.0,0.0,0.0,0.0,0.0,0.0,0.0,0.0,0.0,0.0,0.0,0.0,0.0,0.0,0.0,0.0,0.0,0.0,0.0,0.0,0.0,0.0,0.0,0.0,0.0,0.0,0.0,0.0,0.0,0.0,0.0,0.0,0.0,0.0,0.0,0.0,0.0,0.0,0.0,0.0,0.0,0.0,0.0,0.0,0.0,0.0,0.0,0.0,0.0,0.0,0.0,0.0,0.0,0.0,0.0,0.0,0.0,0.0,0.0,0.0,0.0,0.0,0.0,0.0,0.0,0.0,0.0,0.0,0.0,0.0,0.0,0.0,0.0,0.0,0.0,0.0,0.0,0.0,0.0,0.0,0.0,0.0,0.0,0.0,0.0,0.0,0.0,0.0,0.0,0.0,0.0,0.0,0.0,0.0,0.0,0.0,0.0,0.0,0.0,0.0,0.0,0.0,0.0,0.0,0.0,0.0,0.0,0.0,0.0,0.0,0.0,0.0,0.0,0.0,0.0,0.0,0.0,0.0,0.0,0.0,0.0,0.0,0.0,0.0,0.0,0.0,0.0,0.0,0.0,0.0,0.0,0.0,0.0,0.0,0.0,0.0,0.0,0.0,0.0,0.0,0.0,0.0,0.0,0.0,0.0,0.0,0.0,0.0,0.0,0.0,0.0,0.0,0.0,0.0,0.0,0.0,0.0,0.0,0.0,0.0,0.0,0.0,0.0,0.0,0.0,0.0,0.0,0.0,0.0,0.0,0.0,0.0,0.0,0.0,0.0,0.0,0.0,0.0,0.0,0.0,0.0,0.0,0.0,0.0,0.0,0.0,0.0,0.0,0.0,0.0,0.0,0.0,0.0,0.0,0.0,0.0,0.0,0.0,0.0,0.0,0.0,0.0,0.0,0.0,0.0,0.0,0.0,0.0,0.0,0.0,0.0,0.0,0.0,0.0,0.0,0.0,0.0,0.0,0.0,0.0,0.0,0.0,0.0,0.0,0.0,0.0,0.0,0.0,0.0,0.0,0.0,0.0,0.0,0.0,0.0,0.0,0.0,0.0,0.0,0.0,0.0,0.0,0.0,0.0,0.0,0.0,0.0,0.0,0.0,0.0,0.0,0.0,0.0,0.0,0.0,0.0,0.0,0.0,0.0,0.0,0.0,0.0,0.0,0.0,0.0,0.0,0.0,0.0,0.0,0.0,0.0,0.0,0.0,0.0,0.0,0.0,0.0,0.0,0.0,0.0,0.0,0.0,0.0,0.0,0.0,0.0,0.0,0.0,0.0,0.0,0.0,0.0,0.0,0.0,0.0,0.0,0.0,0.0,0.0,0.0,0.0,0.0,0.0,0.0,0.0,0.0,0.0,0.0,0.0,0.0,0.0,0.0,0.0,0.0,0.0,0.0,0.0,0.0,0.0,0.0,0.0,0.0,0.0,-1.8565,0.0,0.0,0.0,0.0,0.0,0.0,0.0,0.0,0.0,0.0,0.0,0.0,0.0,0.0,0.0,0.0,0.0,0.0,0.0,0.0,0.0,0.0,0.0,0.0,0.0,0.0,0.0,0.0,0.0,0.0,0.0,0.0,0.0,0.0,0.0,0.0,0.0,0.0,0.0,0.0,0.0,0.0,0.0,0.0,0.0,0.0,0.0,0.0,0.0,0.0,0.0,0.0,0.0,0.0,0.0,0.0,0.0,0.0,0.0,0.0,0.0,0.0,0.0,0.0,0.0,0.0,0.0,0.0,0.0,0.0,0.0,0.0,0.0,0.0,0.0,0.0,0.0,0.0,0.0,0.0,0.0,0.0,0.0,0.0,0.0,0.0,0.0,0.0,0.0,0.0,0.0,0.0,0.0,0.0,0.0,0.0,0.0,0.0,0.0,0.0,0.0,0.0,0.0,0.0,0.0,0.0,0.0,0.0,0.0,0.0,0.0,0.0,0.0,0.0,0.0,0.0,-1.9107,0.0,0.0,0.0,0.0,0.0,0.0,0.0,0.0,0.0,0.0,0.0,0.0,0.0,0.0,0.0,0.0,0.0,0.0,0.0,0.0,0.0,0.0,0.0,0.0,0.0,0.0,0.0,0.0,0.0,0.0,0.0,0.0,0.0,0.0,0.0,0.0,0.0,0.0,0.0,0.0,0.0,0.0,0.0,0.0,0.0,0.0,0.0,0.0,0.0,0.0,0.0,0.0,0.0,0.0,0.0,0.0,0.0,0.0,0.0,0.0,0.0,0.0,0.0,0.0,0.0,0.0,0.0,0.0,0.0,0.0,0.0,0.0,0.0,0.0,0.0,0.0,0.0,0.0,0.0,0.0,0.0,0.0,0.0,0.0,0.0,0.0,0.0,0.0,0.0,0.0,0.0,0.0,0.0,0.0,0.0,0.0,0.0,0.0,0.0,0.0,0.0,0.0,0.0,0.0,0.0,0.0,0.0,0.0,-1.9996,-2.0515,-2.0969,-2.0864,-2.1279,-2.2131,-2.1062,-2.0307,-2.0009,0.0,0.0,0.0,0.0,0.0,0.0,0.0,0.0,0.0,0.0,0.0,0.0,0.0,0.0,0.0,0.0,0.0,0.0,0.0,0.0,0.0,0.0,0.0,0.0,0.0,0.0,0.0,0.0,0.0,0.0,0.0,0.0,0.0,0.0,0.0,0.0,0.0,0.0,0.0,0.0,0.0,0.0,0.0,0.0,0.0,0.0,0.0,0.0,0.0,0.0,0.0,0.0,0.0,0.0,0.0,0.0,0.0,0.0,0.0,0.0,0.0,0.0,0.0,0.0,0.0,0.0,0.0,0.0,0.0,0.0,0.0,0.0,0.0,0.0,0.0,0.0,0.0,0.0,0.0,0.0,0.0,0.0,0.0,0.0,0.0,0.0,0.0,-1.6682,-1.6726,0.0,0.0,0.0,0.0,0.0,0.0,0.0,0.0,0.0,0.0,0.0,0.0,0.0,0.0,-1.9662,-2.0917,-2.1425,-2.1187,-2.1261,-2.1294,-2.1376,-2.0472,-2.0491,-2.1229,-2.1209,0.0,-2.0883,-2.0825,0.0,0.0,0.0,0.0,0.0,0.0,0.0,0.0,0.0,0.0,0.0,0.0,0.0,0.0,0.0,0.0,0.0,0.0,0.0,0.0,0.0,0.0,0.0,0.0,0.0,0.0,0.0,0.0,0.0,0.0,0.0,0.0,0.0,0.0,0.0,0.0,0.0,0.0,0.0,0.0,0.0,0.0,0.0,0.0,0.0,0.0,0.0,0.0,0.0,0.0,0.0,0.0,0.0,0.0,0.0,0.0,0.0,0.0,0.0,0.0,0.0,0.0,0.0,0.0,0.0,0.0,0.0,0.0,0.0,0.0,0.0,0.0,0.0,0.0,0.0,0.0,0.0,0.0,0.0,0.0,0.0,0.0,0.0,0.0,0.0,-1.6799,-1.7055,-1.6872,-1.6887,-1.6934,0.0,0.0,0.0,0.0,0.0,0.0,0.0,0.0,0.0,-2.0504,-2.0155,-2.0185,-2.0765,-2.0803,-2.0884,-2.092,-2.0888,-2.1167,-2.151,-2.0851,-2.0832,-2.1277,-2.078,-2.0361,-1.9909,-2.0211,-1.9215,-1.7475,0.0,0.0,0.0,0.0,-1.4742,-1.3687,0.0,0.0,0.0,0.0,0.0,0.0,0.0,0.0,0.0,0.0,0.0,0.0,0.0,0.0,0.0,0.0,0.0,0.0,0.0,0.0,0.0,0.0,0.0,0.0,0.0,0.0,0.0,0.0,0.0,0.0,0.0,0.0,0.0,0.0,0.0,0.0,0.0,0.0,0.0,0.0,0.0,0.0,0.0,0.0,0.0,0.0,0.0,0.0,0.0,0.0,0.0,0.0,0.0,0.0,0.0,0.0,0.0,0.0,0.0,0.0,0.0,0.0,0.0,0.0,0.0,0.0,0.0,0.0,0.0,0.0,0.0,0.0,0.0,0.0,0.0,0.0,0.0,-1.7311,-1.7647,-1.7157,-1.7604,-1.7824,0.0,0.0,0.0,0.0,0.0,0.0,-1.9995,-1.9831,-2.0218,-2.1503,-2.0535,-2.0485,-2.1415,-2.0695,-2.0489,-2.0823,-2.066,-2.0693,-2.0997,-2.0521,-2.027,-2.0316,-1.9644,-1.8963,-1.8487,-1.9205,-1.8426,-1.6695,-1.6464,-1.5771,-1.4972,-1.5049,-1.4488,-1.3675,0.0,0.0,0.0,0.0,0.0,0.0,0.0,0.0,0.0,0.0,0.0,0.0,0.0,0.0,0.0,0.0,0.0,0.0,0.0,0.0,0.0,0.0,0.0,0.0,0.0,0.0,0.0,0.0,0.0,0.0,0.0,0.0,0.0,0.0,0.0,0.0,0.0,0.0,0.0,0.0,0.0,0.0,0.0,0.0,0.0,0.0,0.0,0.0,0.0,0.0,0.0,0.0,0.0,0.0,0.0,0.0,0.0,0.0,0.0,0.0,0.0,0.0,0.0,0.0,0.0,0.0,0.0,0.0,0.0,0.0,0.0,0.0,0.0,0.0,0.0,0.0,0.0,0.0,0.0,-1.7882,-1.8877,0.0,0.0,0.0,0.0,-1.9408,-2.0,-2.0742,-2.1767,-2.0956,-2.087,-2.1974,-2.0957,-2.0656,-2.0997,-2.1296,-2.1579,-2.16,-2.0889,-2.0264,-1.9515,-1.8628,-1.7753,-1.7287,-1.7478,-1.732,-1.7221,-1.8173,-1.7611,-1.6188,-1.5937,-1.5397,-1.4584,-1.3994,-1.3894,-1.392,0.0,0.0,0.0,0.0,0.0,0.0,0.0,0.0,0.0,0.0,0.0,0.0,0.0,0.0,0.0,0.0,0.0,0.0,0.0,0.0,0.0,0.0,0.0,0.0,0.0,0.0,0.0,0.0,0.0,0.0,0.0,0.0,0.0,0.0,0.0,0.0,0.0,0.0,0.0,0.0,0.0,0.0,0.0,0.0,0.0,0.0,0.0,0.0,0.0,0.0,0.0,0.0,0.0,0.0,0.0,0.0,0.0,0.0,0.0,0.0,0.0,0.0,0.0,0.0,0.0,0.0,0.0,0.0,0.0,0.0,0.0,0.0,0.0,0.0,0.0,0.0,0.0,0.0,0.0,-1.9133,-2.0033,0.0,-1.9777,-1.9897,-2.037,-2.1106,-2.1345,-2.1884,-2.2934,-2.2154,-2.1906,-2.2277,-2.0588,-1.9744,-1.9636,-1.8933,-1.8649,-1.8649,-1.8367,-1.815,-1.7888,-1.7518,-1.7001,-1.6364,-1.6447,-1.617,-1.5689,-1.6074,-1.6071,-1.5766,-1.5222,-1.4824,-1.4336,-1.4213,-1.4137,-1.4194,0.0,0.0,0.0,0.0,0.0,0.0,0.0,0.0,0.0,0.0,0.0,0.0,0.0,0.0,0.0,0.0,0.0,0.0,0.0,0.0,0.0,0.0,0.0,0.0,0.0,0.0,0.0,0.0,0.0,0.0,0.0,0.0,0.0,0.0,0.0,0.0,0.0,0.0,0.0,0.0,0.0,0.0,-1.5658,0.0,0.0,0.0,0.0,0.0,0.0,0.0,0.0,0.0,0.0,0.0,0.0,0.0,0.0,0.0,0.0,0.0,0.0,0.0,0.0,0.0,0.0,0.0,0.0,0.0,0.0,0.0,0.0,0.0,0.0,0.0,0.0,0.0,0.0,0.0,-2.0523,-1.9989,-2.1064,-2.1467,-2.0707,-2.1026,-2.1534,-2.2199,-2.2436,-2.2867,-2.3685,-2.2465,-2.1786,-2.1797,-1.9668,-1.8489,-1.8262,-1.7336,-1.7001,-1.7001,-1.7001,-1.6877,-1.6618,-1.6618,-1.6229,-1.5583,-1.5583,-1.5323,-1.4931,-1.4931,-1.5115,-1.5376,-1.4862,-1.4648,-1.452,-1.452,-1.452,-1.4501,0.0,0.0,0.0,0.0,0.0,0.0,0.0,0.0,0.0,0.0,0.0,0.0,0.0,0.0,0.0,0.0,0.0,0.0,0.0,0.0,0.0,0.0,0.0,0.0,0.0,0.0,0.0,0.0,0.0,0.0,0.0,0.0,0.0,0.0,0.0,0.0,0.0,0.0,0.0,0.0,0.0,0.0,-1.6253,0.0,0.0,0.0,0.0,0.0,0.0,0.0,0.0,0.0,0.0,0.0,0.0,0.0,0.0,0.0,0.0,0.0,0.0,0.0,0.0,0.0,0.0,0.0,0.0,0.0,0.0,0.0,0.0,0.0,0.0,0.0,0.0,0.0,-1.7448,-1.9939,-2.1364,-2.0435,-2.1972,-2.2384,-2.0849,-2.1898,-2.2572,-2.2692,-2.3218,-2.378,-2.3984,-2.1853,-2.0589,-2.0462,-1.8162,-1.7012,-1.6888,-1.6877,-1.6872,-1.6872,-1.6872,-1.6618,-1.5974,-1.5974,-1.5583,-1.4931,-1.4931,-1.4931,-1.4931,-1.4931,-1.4931,-1.4931,-1.4931,-1.4931,-1.4931,-1.4931,-1.4926,-1.4865,0.0,0.0,0.0,0.0,0.0,0.0,0.0,0.0,0.0,0.0,0.0,0.0,0.0,0.0,0.0,0.0,0.0,0.0,0.0,0.0,0.0,0.0,0.0,0.0,0.0,0.0,0.0,0.0,0.0,0.0,0.0,0.0,0.0,0.0,0.0,0.0,0.0,0.0,0.0,0.0,0.0,0.0,-1.5982,0.0,0.0,0.0,0.0,0.0,0.0,0.0,0.0,0.0,0.0,0.0,0.0,0.0,0.0,0.0,0.0,0.0,0.0,0.0,0.0,0.0,0.0,0.0,0.0,0.0,0.0,0.0,0.0,0.0,0.0,0.0,0.0,-1.8122,-1.9906,-2.1292,-2.2118,-2.2293,-2.1906,-2.1512,-2.1203,-2.1651,-2.2012,-2.2475,-2.3391,-2.374,-2.3055,-2.1653,-2.0232,-1.867,-1.7249,-1.6338,-1.5673,-1.5526,-1.5453,-1.5453,-1.5453,-1.5318,-1.5192,-1.5192,-1.5062,-1.4931,-1.4931,-1.4931,-1.4931,-1.4931,-1.4931,-1.4931,-1.4931,-1.4931,-1.4931,-1.4931,-1.4841,-1.4657,0.0,0.0,0.0,0.0,0.0,0.0,0.0,0.0,0.0,0.0,0.0,0.0,0.0,0.0,0.0,0.0,0.0,0.0,0.0,0.0,0.0,0.0,0.0,0.0,0.0,0.0,0.0,0.0,0.0,0.0,0.0,0.0,0.0,0.0,0.0,0.0,0.0,0.0,0.0,0.0,0.0,0.0,-1.624,-1.603,-1.5979,-1.6043,-1.5557,-1.5663,-1.5758,-1.493,0.0,0.0,0.0,0.0,0.0,0.0,0.0,0.0,0.0,0.0,0.0,0.0,0.0,0.0,0.0,0.0,0.0,0.0,0.0,0.0,0.0,0.0,0.0,0.0,-1.6297,-1.8172,-2.0073,-2.0787,-2.1389,-2.2251,-2.1263,-2.0477,-2.0634,-2.0573,-2.0722,-2.1253,-2.1686,-2.176,-2.1232,-1.9961,-1.8741,-1.7446,-1.6506,-1.5589,-1.5106,-1.5073,-1.5016,-1.4931,-1.4931,-1.4931,-1.4931,-1.4931,-1.4889,0.0,-1.4893,-1.4832,-1.4681,-1.477,-1.4752,0.0,0.0,0.0,0.0,0.0,-1.4676,-1.4454,0.0,0.0,0.0,0.0,0.0,0.0,0.0,0.0,0.0,0.0,0.0,0.0,0.0,0.0,0.0,0.0,0.0,0.0,0.0,0.0,0.0,0.0,0.0,0.0,0.0,0.0,0.0,0.0,0.0,0.0,0.0,0.0,0.0,0.0,0.0,0.0,0.0,0.0,0.0,0.0,0.0,0.0,-1.6599,-1.6051,-1.6062,-1.6226,-1.5673,-1.5688,-1.5694,-1.4453,0.0,0.0,0.0,0.0,0.0,0.0,0.0,0.0,0.0,0.0,0.0,0.0,0.0,0.0,0.0,0.0,0.0,0.0,0.0,0.0,0.0,0.0,0.0,0.0,-1.6907,-1.7783,-1.89,-1.8923,-1.947,-2.1052,-2.0135,-1.9322,-1.9456,-1.9185,-1.9119,-1.9486,-1.9328,-1.9142,-1.9101,0.0,0.0,0.0,0.0,-1.5148,-1.4969,-1.512,-1.5111,-1.4931,-1.4931,-1.4931,-1.4931,-1.4912,-1.4804,-1.4643,-1.4794,-1.4652,-1.4326,-1.4515,-1.4482,-1.435,-1.4718,-1.4865,-1.4837,-1.4638,-1.4444,-1.4251,0.0,0.0,0.0,0.0,0.0,0.0,0.0,0.0,0.0,0.0,0.0,0.0,0.0,0.0,0.0,0.0,0.0,0.0,0.0,0.0,0.0,0.0,0.0,0.0,0.0,0.0,0.0,0.0,0.0,0.0,0.0,0.0,0.0,0.0,0.0,0.0,0.0,0.0,0.0,0.0,0.0,0.0,-1.5992,-1.5943,-1.5919,-1.5913,-1.5858,-1.584,-1.5734,-1.4445,-1.4019,-1.38,-1.2514,0.0,0.0,0.0,0.0,0.0,0.0,0.0,0.0,0.0,0.0,0.0,0.0,0.0,0.0,0.0,0.0,0.0,0.0,0.0,0.0,-1.3443,-1.481,-1.6101,-1.7087,-1.6707,-1.7228,-1.9748,-1.8812,-1.7981,-1.8233,-1.8297,-1.8363,-1.8661,-1.9368,-1.9475,-1.8439,-1.7809,0.0,-1.5837,-1.5433,-1.5215,-1.5177,-1.5054,-1.4969,-1.4931,0.0,0.0,-1.4926,-1.4766,-1.4671,-1.4624,-1.4492,-1.4383,-1.4312,-1.4355,-1.435,-1.4317,-1.4402,-1.443,-1.4407,-1.4203,-1.4104,-1.4038,0.0,0.0,0.0,0.0,0.0,0.0,0.0,0.0,0.0,0.0,0.0,0.0,0.0,0.0,0.0,0.0,0.0,0.0,0.0,0.0,0.0,0.0,0.0,0.0,0.0,0.0,0.0,0.0,0.0,0.0,0.0,0.0,0.0,0.0,0.0,0.0,0.0,0.0,0.0,0.0,0.0,0.0,-1.5207,-1.5081,-1.503,-1.503,-1.5351,-1.5464,-1.5267,-1.3749,-1.3342,-1.3032,-1.1251,-1.0659,-1.0626,0.0,0.0,0.0,0.0,0.0,0.0,0.0,0.0,0.0,0.0,0.0,0.0,0.0,0.0,-1.1532,0.0,0.0,-1.293,-1.343,-1.4747,-1.5616,-1.5538,-1.6011,-1.685,-1.8322,-1.7145,-1.6464,-1.6914,-1.6747,-1.6803,-1.7263,-1.767,-1.7654,-1.7082,-1.6631,-1.6052,-1.5394,-1.529,-1.5186,-1.5082,-1.5082,-1.503,-1.4931,-1.4931,-1.4931,-1.4931,-1.4827,-1.4666,-1.4473,-1.4473,-1.4293,-1.4,-1.4,-1.4,-1.4,-1.4,-1.4066,-1.4147,-1.4048,-1.3944,-1.3835,0.0,0.0,0.0,0.0,0.0,0.0,0.0,0.0,0.0,0.0,0.0,0.0,0.0,0.0,0.0,0.0,0.0,0.0,0.0,0.0,0.0,0.0,0.0,0.0,0.0,0.0,0.0,0.0,0.0,0.0,0.0,0.0,0.0,0.0,0.0,0.0,0.0,0.0,0.0,0.0,0.0,0.0,-1.4177,-1.3935,-1.3954,-1.4277,-1.4713,-1.4713,-1.431,-1.2885,-1.2199,-1.1811,-0.9946,-0.9305,-0.9452,-0.99,-0.9599,0.0,0.0,0.0,0.0,0.0,0.0,0.0,0.0,0.0,-1.0803,-1.1354,-1.174,-1.2016,-1.2349,-1.2637,-1.3124,-1.3913,-1.4849,-1.531,-1.4508,-1.5696,-1.655,-1.6773,-1.581,-1.5252,-1.5753,-1.5531,-1.5569,-1.6079,-1.581,-1.5692,-1.5852,-1.5503,-1.5295,-1.5295,-1.5257,-1.5153,-1.4993,-1.5111,-1.5092,-1.4931,-1.4931,-1.4912,-1.4874,-1.4832,-1.4605,-1.426,-1.4392,-1.4161,-1.3688,-1.3688,-1.3688,-1.3688,-1.3688,-1.3797,-1.3948,-1.3826,-1.3714,-1.3569,0.0,0.0,0.0,0.0,0.0,0.0,0.0,0.0,0.0,0.0,0.0,0.0,0.0,0.0,0.0,0.0,0.0,0.0,0.0,0.0,0.0,0.0,0.0,0.0,0.0,0.0,0.0,0.0,0.0,0.0,0.0,0.0,0.0,0.0,0.0,0.0,0.0,0.0,0.0,0.0,0.0,0.0,-1.2966,-1.274,-1.3305,-1.4169,-1.4277,-1.3835,-1.2999,-1.1886,-1.1041,-1.0282,-0.952,-0.9216,-0.9157,-0.9308,0.0,-0.8889,-0.8652,-0.8697,-0.8968,-0.9841,-0.9881,-1.0244,0.0,0.0,-1.19,-1.2483,-1.3055,-1.3279,-1.2852,-1.3311,-1.3677,-1.3579,-1.4064,-1.4292,-1.4297,-1.456,-1.4855,-1.5245,-1.5362,-1.5517,-1.5588,-1.5711,-1.5819,-1.589,-1.5852,-1.5838,-1.5862,-1.5645,-1.5522,-1.5522,-1.5333,-1.5224,-1.52,-1.5044,-1.4955,-1.4931,-1.4931,-1.4841,-1.4662,-1.4468,-1.426,-1.4038,-1.3868,-1.3755,-1.3688,-1.3688,-1.3688,-1.3688,-1.3688,-1.3703,-1.3726,-1.3361,-1.3222,-1.3204,0.0,0.0,0.0,0.0,0.0,0.0,0.0,0.0,0.0,0.0,0.0,0.0,0.0,0.0,0.0,0.0,0.0,0.0,0.0,0.0,0.0,0.0,0.0,0.0,0.0,0.0,0.0,0.0,0.0,0.0,0.0,0.0,0.0,0.0,0.0,0.0,0.0,0.0,0.0,0.0,0.0,0.0,-1.2729,-1.2394,-1.2257,-1.2354,-1.2675,-1.2573,0.0,0.0,-1.0166,-0.9836,-0.914,-0.895,-0.8945,-0.8768,-0.899,0.0,-0.9042,-0.9052,0.0,0.0,-0.981,-1.0134,-1.1254,-1.1641,-1.1992,-1.2527,-1.3199,-1.3575,-1.3348,-1.3632,-1.3819,0.0,-1.3817,-1.3995,-1.3787,-1.4056,-1.4362,-1.4303,-1.4768,-1.5204,-1.5711,-1.581,-1.5914,-1.6037,-1.5933,-1.5862,-1.5862,-1.555,-1.5371,-1.5371,-1.5167,-1.5059,-1.5059,-1.4974,-1.4931,-1.4931,-1.4818,-1.4714,-1.4624,-1.4411,-1.4199,-1.4,-1.3783,-1.3688,-1.3688,-1.3688,-1.3688,-1.3688,-1.3444,-1.3449,-1.3449,-1.3449,-1.3329,-1.3204,0.0,0.0,0.0,0.0,0.0,0.0,0.0,0.0,0.0,0.0,0.0,0.0,0.0,0.0,0.0,0.0,0.0,0.0,0.0,0.0,0.0,0.0,0.0,0.0,0.0,0.0,0.0,0.0,0.0,0.0,0.0,0.0,0.0,0.0,0.0,0.0,0.0,0.0,0.0,0.0,0.0,0.0,-1.2635,-1.2276,-1.1709,-1.1269,-1.1424,-1.119,0.0,0.0,-0.9149,-0.8916,-0.8561,-0.8502,-0.8638,-0.839,-0.8772,-0.915,-0.9235,0.0,0.0,-0.9663,-0.9954,-1.0349,-1.0805,-1.1395,-1.187,-1.2647,-1.3257,-1.3621,-1.366,-1.3827,-1.3888,-1.3612,-1.3717,-1.3721,-1.3413,-1.3709,-1.3904,-1.3957,-1.4392,-1.485,-1.5744,-1.572,-1.5753,-1.5909,-1.5777,-1.5687,-1.5687,-1.5295,-1.5068,-1.5068,-1.4926,-1.4822,-1.4761,-1.4822,-1.4822,-1.4756,-1.4615,-1.4515,-1.4454,-1.4237,-1.4062,-1.3915,-1.3755,-1.3688,-1.3688,-1.3688,-1.3688,-1.3688,-1.3444,-1.3324,-1.3204,-1.3449,-1.3324,-1.2964,0.0,0.0,0.0,0.0,0.0,0.0,0.0,0.0,0.0,0.0,0.0,0.0,0.0,0.0,0.0,0.0,0.0,0.0,0.0,0.0,0.0,0.0,0.0,0.0,0.0,0.0,0.0,0.0,0.0,0.0,0.0,0.0,0.0,0.0,0.0,0.0,0.0,0.0,0.0,0.0,0.0,0.0,-1.2427,-1.2219,-1.2032,-1.1898,-1.0967,0.0,0.0,0.0,-0.763,-0.71,-0.7437,-0.7737,0.0,-0.8224,-0.8408,0.0,0.0,0.0,-0.93,-0.989,-1.0259,-1.0689,-1.1263,-1.1706,-1.2211,-1.2924,-1.3337,-1.3617,-1.3568,-1.3932,-1.3997,-1.3465,-1.3535,-1.3587,-1.3396,-1.3222,-1.3439,-1.4415,-1.4283,-1.4526,0.0,-1.5375,-1.5252,-1.5262,-1.5252,-1.5252,-1.5252,-1.487,-1.4652,-1.4652,-1.4648,-1.4544,-1.4331,-1.4539,-1.4539,-1.4331,-1.4322,-1.4218,-1.4024,-1.3807,-1.3703,-1.3698,-1.3693,-1.3688,-1.3688,-1.3688,-1.3688,-1.3688,-1.3688,-1.3444,-1.3204,-1.3204,-1.284,-1.2238,0.0,0.0,0.0,0.0,0.0,0.0,0.0,0.0,0.0,0.0,0.0,0.0,0.0,0.0,0.0,0.0,0.0,0.0,0.0,0.0,0.0,0.0,0.0,0.0,0.0,0.0,0.0,0.0,0.0,0.0,0.0,0.0,0.0,0.0,0.0,0.0,0.0,0.0,0.0,0.0,0.0,0.0,-1.2786,-1.2162,-1.1691,-1.1199,0.0,0.0,0.0,0.0,0.0,0.0,-0.6893,0.0,0.0,-0.7878,-0.817,-0.8428,0.0,0.0,-0.9296,-0.99,-1.0202,-1.0429,-1.086,-1.1358,-1.1787,-1.192,-1.2467,-1.2706,-1.2724,-1.2974,-1.3047,-1.2865,-1.3084,-1.3218,-1.3043,-1.3063,-1.3249,-1.3596,-1.3862,0.0,0.0,0.0,0.0,-1.5233,-1.4983,-1.4837,-1.4837,-1.4572,-1.4421,-1.4421,-1.4421,-1.4383,-1.4312,-1.4383,-1.4383,-1.4307,-1.4175,-1.4,-1.3797,-1.3721,-1.3688,-1.3688,-1.3688,-1.3688,-1.3688,-1.3688,-1.3569,-1.3324,-1.3084,-1.284,-1.2479,-1.2367,-1.213,-1.1889,0.0,0.0,0.0,0.0,0.0,0.0,0.0,0.0,0.0,0.0,0.0,0.0,0.0,0.0,0.0,0.0,0.0,0.0,0.0,0.0,0.0,0.0,0.0,0.0,0.0,0.0,0.0,0.0,0.0,0.0,0.0,0.0,0.0,0.0,0.0,0.0,0.0,0.0,0.0,0.0,0.0,0.0,-1.2554,-1.2144,-1.1784,0.0,0.0,0.0,0.0,0.0,0.0,0.0,0.0,-0.694,-0.7169,-0.7814,-0.82,-0.8442,-0.8893,-0.9123,-0.9381,-0.9981,-1.0209,-1.0371,-1.0721,-1.1011,-1.1354,-1.1489,-1.1762,-1.2157,-1.2227,-1.2334,-1.245,-1.2385,-1.2564,-1.2674,-1.2564,-1.2592,-1.2822,-1.33,-1.3506,0.0,0.0,0.0,0.0,-1.5011,-1.4709,-1.452,-1.452,-1.4317,-1.4203,-1.4203,-1.4203,-1.4166,-1.409,-1.4166,-1.4166,-1.4085,-1.3958,-1.3825,-1.3688,-1.3688,-1.3688,-1.3688,-1.3688,-1.3688,-1.3688,-1.3688,-1.3449,-1.3204,-1.2964,-1.2599,-1.2238,-1.2005,-1.1893,-1.1776,0.0,0.0,0.0,0.0,0.0,0.0,0.0,0.0,0.0,0.0,0.0,0.0,0.0,0.0,0.0,0.0,0.0,0.0,0.0,0.0,0.0,0.0,0.0,0.0,0.0,-1.5006,-1.4496,0.0,0.0,0.0,0.0,0.0,0.0,0.0,0.0,0.0,0.0,0.0,0.0,0.0,0.0,0.0,-1.1925,-1.2193,0.0,0.0,0.0,0.0,0.0,0.0,0.0,0.0,0.0,0.0,-0.7685,-0.8136,-0.8387,-0.8601,-0.9045,-0.9269,-0.9523,-1.012,-1.0263,-1.0371,-1.0812,-1.0914,-1.0911,-1.1312,-1.1567,-1.165,0.0,0.0,-1.2182,-1.2016,-1.2012,-1.2028,-1.2028,-1.189,-1.2217,0.0,0.0,0.0,0.0,0.0,0.0,-1.4586,0.0,-1.4288,-1.4279,-1.4099,-1.3996,-1.3996,-1.3996,-1.3896,-1.3693,-1.3892,-1.3892,-1.3688,-1.3688,-1.3688,-1.3688,-1.3688,-1.3688,-1.3688,-1.3688,-1.3688,-1.3688,-1.3688,-1.3444,-1.3204,-1.3204,-1.2719,-1.2238,-1.2238,-1.2005,-1.1776,0.0,0.0,0.0,0.0,0.0,0.0,0.0,0.0,0.0,0.0,0.0,0.0,0.0,0.0,0.0,0.0,0.0,0.0,0.0,0.0,0.0,0.0,0.0,0.0,0.0,0.0,0.0,0.0,0.0,0.0,0.0,0.0,0.0,0.0,0.0,0.0,0.0,0.0,0.0,0.0,0.0,0.0,-1.3402,0.0,0.0,0.0,0.0,0.0,0.0,0.0,0.0,0.0,0.0,-0.7397,-0.7827,-0.8076,-0.8511,-0.8896,-0.9232,-0.9351,-0.95,-0.9985,-1.0022,-1.0029,-1.0371,-1.0449,-1.0419,-1.0431,-1.0471,-1.0625,0.0,0.0,0.0,-1.1415,-1.1764,0.0,-1.2028,-1.1991,0.0,-1.2821,0.0,-1.3309,-1.4037,-1.4123,0.0,0.0,-1.4118,-1.4014,-1.3854,-1.3797,-1.3769,-1.3769,-1.3769,-1.3745,-1.3688,-1.3745,-1.3745,-1.3688,-1.3688,-1.3688,-1.3688,-1.3688,-1.3688,-1.3688,-1.3688,-1.3688,-1.3688,-1.3688,-1.3324,-1.284,-1.284,-1.2487,-1.1893,-1.1893,-1.1893,-1.1776,0.0,0.0,0.0,0.0,0.0,0.0,0.0,0.0,0.0,0.0,0.0,0.0,0.0,0.0,0.0,0.0,0.0,0.0,0.0,0.0,0.0,0.0,0.0,0.0,0.0,0.0,0.0,0.0,0.0,0.0,0.0,0.0,0.0,0.0,0.0,0.0,0.0,0.0,0.0,0.0,0.0,0.0,0.0,0.0,0.0,0.0,0.0,0.0,0.0,0.0,0.0,-0.7517,-0.7517,-0.7815,-0.8193,-0.8408,0.0,-0.9086,-0.9317,-0.9476,-0.9635,-0.9886,-0.9934,-0.9951,-1.0053,-1.0131,-1.008,-0.9854,-0.9923,0.0,0.0,0.0,0.0,0.0,0.0,0.0,-1.2,-1.2014,-1.2209,0.0,-1.3116,0.0,-1.4,-1.401,-1.3972,0.0,-1.3868,-1.3816,-1.3698,-1.3688,-1.3688,-1.3688,-1.3688,-1.3688,-1.3688,-1.3688,-1.3688,-1.3688,-1.3688,-1.3688,-1.3688,-1.3688,-1.3688,-1.3688,0.0,-1.3688,-1.3688,-1.3688,-1.3444,-1.2951,-1.2631,-1.2294,-1.1997,-1.1683,-1.1707,-1.1776,0.0,0.0,0.0,0.0,0.0,0.0,0.0,0.0,0.0,0.0,0.0,0.0,0.0,0.0,0.0,0.0,0.0,0.0,0.0,0.0,0.0,0.0,0.0,0.0,0.0,0.0,0.0,0.0,0.0,0.0,0.0,0.0,0.0,0.0,0.0,0.0,0.0,0.0,0.0,0.0,0.0,0.0,0.0,0.0,0.0,0.0,0.0,0.0,0.0,0.0,-0.9164,-0.8099,-0.8099,-0.8303,-0.8598,-0.8882,-0.9086,-0.9245,-0.9398,-0.9612,-0.9798,-0.9815,-0.989,-0.9927,-0.9791,-0.9849,-0.9895,-0.9674,0.0,-0.9987,-0.9888,0.0,-1.0692,-1.0899,0.0,-1.1409,-1.2042,-1.1959,-1.229,-1.3288,-1.3314,-1.3398,-1.3948,-1.3967,-1.3892,-1.3703,-1.3688,-1.3688,-1.3688,-1.3688,-1.3688,-1.3688,-1.3688,-1.3688,-1.3688,-1.3688,-1.3688,-1.3688,-1.366,-1.3665,-1.3688,-1.366,-1.3651,-1.3651,0.0,0.0,-1.3608,-1.3608,-1.3384,-1.315,-1.2627,-1.2319,-1.2097,-1.1708,-1.1638,-1.1776,0.0,0.0,0.0,0.0,0.0,0.0,0.0,0.0,0.0,0.0,-1.9509,0.0,0.0,0.0,0.0,0.0,0.0,0.0,0.0,0.0,0.0,0.0,0.0,0.0,0.0,0.0,0.0,0.0,0.0,0.0,0.0,0.0,0.0,0.0,0.0,0.0,0.0,0.0,0.0,0.0,0.0,0.0,0.0,0.0,0.0,0.0,0.0,0.0,0.0,0.0,-1.0327,-0.8404,-0.8404,-0.8615,-0.8893,-0.9066,-0.9313,-0.9561,-0.9703,-0.9696,-0.9676,-0.9791,-0.9656,-0.9607,-0.981,-0.9733,0.0,0.0,0.0,-0.9707,-0.961,-0.9924,0.0,-1.0688,0.0,0.0,0.0,0.0,-1.2658,0.0,0.0,0.0,0.0,0.0,0.0,0.0,0.0,-1.3688,-1.3688,-1.3688,-1.3688,-1.3688,-1.3688,-1.3688,-1.3688,-1.3688,-1.3688,-1.3688,-1.3523,-1.3528,-1.3684,-1.3518,-1.3443,-1.3443,-1.3443,0.0,-1.3173,-1.3173,-1.3045,-1.2963,-1.2573,-1.2315,-1.2113,-1.1856,-1.1748,-1.1776,0.0,0.0,0.0,0.0,0.0,0.0,0.0,0.0,0.0,0.0,-1.9695,-2.0033,0.0,0.0,0.0,0.0,0.0,0.0,0.0,0.0,0.0,0.0,0.0,0.0,0.0,0.0,0.0,0.0,0.0,0.0,0.0,0.0,0.0,0.0,0.0,0.0,0.0,0.0,0.0,0.0,0.0,0.0,0.0,0.0,0.0,0.0,0.0,0.0,0.0,0.0,-1.1914,-1.0564,-1.0758,-1.0984,-1.1164,-1.0771,-1.0743,-1.0798,-1.0383,-1.0194,-1.0197,-1.019,-1.0076,-0.9902,-0.9884,0.0,0.0,0.0,0.0,-0.9556,-0.9585,0.0,0.0,0.0,0.0,0.0,0.0,0.0,0.0,0.0,0.0,0.0,0.0,0.0,0.0,0.0,0.0,0.0,-1.3688,-1.3688,-1.3688,-1.3688,-1.3688,-1.3688,-1.3688,-1.3584,-1.3532,-1.3532,-1.332,-1.3329,-1.3528,-1.3433,-1.3447,-1.3537,-1.3433,0.0,-1.3225,-1.3112,-1.3077,-1.3128,-1.2454,-1.2203,-1.2324,-1.1757,-1.1549,-1.1646,0.0,0.0,0.0,0.0,0.0,0.0,0.0,-1.9081,-1.9591,-1.9363,-2.0034,-2.0534,-2.07,-2.0863,-2.11,0.0,0.0,0.0,0.0,0.0,0.0,0.0,0.0,0.0,0.0,0.0,0.0,0.0,0.0,0.0,0.0,0.0,0.0,0.0,0.0,0.0,0.0,0.0,0.0,0.0,0.0,0.0,0.0,0.0,0.0,0.0,0.0,0.0,0.0,0.0,-1.399,-1.3485,-1.3822,-1.3678,-1.3118,-1.2459,-1.2192,-1.1859,-1.1051,-1.0852,-1.0699,-1.0543,-1.0476,-1.0327,-0.9868,-0.9847,0.0,0.0,-0.9438,-0.9589,-0.9652,0.0,0.0,0.0,0.0,0.0,0.0,0.0,0.0,0.0,0.0,0.0,0.0,0.0,0.0,0.0,0.0,0.0,-1.3688,-1.3688,-1.3688,-1.3688,-1.3646,-1.3622,-1.3622,-1.3471,-1.3367,-1.3315,-1.315,-1.3183,-1.3386,-1.3343,-1.3405,-1.3547,-1.3391,0.0,0.0,-1.3003,-1.306,-1.3105,-1.2212,-1.2078,-1.2242,-1.1508,-1.1313,-1.1459,0.0,0.0,0.0,0.0,0.0,0.0,0.0,-1.9292,-1.9701,-1.9321,-2.0333,-2.1111,-2.115,-2.1192,-2.1494,0.0,0.0,0.0,0.0,0.0,0.0,0.0,0.0,0.0,0.0,0.0,0.0,0.0,0.0,0.0,0.0,0.0,0.0,0.0,0.0,0.0,0.0,0.0,0.0,0.0,0.0,0.0,0.0,0.0,0.0,0.0,0.0,0.0,0.0,0.0,0.0,-1.6633,-1.6939,-1.5225,-1.3063,-1.2886,0.0,0.0,-1.1957,-1.1253,-1.0535,-1.0368,-1.0219,-1.0021,-0.9892,0.0,0.0,-0.961,-0.9739,-0.9941,-0.9924,-1.0246,0.0,0.0,0.0,0.0,0.0,0.0,0.0,0.0,0.0,0.0,0.0,0.0,0.0,0.0,0.0,0.0,-1.3688,-1.3688,-1.3688,-1.3688,-1.3514,-1.3419,-1.3419,-1.34,-1.3291,-1.3098,-1.3079,-1.3183,-1.3381,-1.3188,-1.3107,-1.3121,-1.3102,0.0,0.0,-1.2502,-1.2404,-1.2365,-1.1988,-1.1763,-1.171,-1.1343,-1.1232,-1.1248,0.0,0.0,0.0,0.0,0.0,0.0,0.0,-1.876,-1.918,-1.9277,-1.9961,-2.0644,-2.1172,-2.1448,-2.1858,0.0,0.0,0.0,0.0,0.0,0.0,0.0,0.0,0.0,0.0,0.0,0.0,0.0,0.0,0.0,0.0,0.0,0.0,0.0,0.0,0.0,0.0,0.0,0.0,0.0,0.0,0.0,0.0,0.0,0.0,0.0,0.0,0.0,0.0,0.0,0.0,0.0,-1.691,-1.6236,0.0,0.0,-1.4761,-1.4256,-1.2984,-1.2294,-1.1765,-1.1009,-1.067,-1.0406,-1.0274,0.0,0.0,-0.9875,-0.992,-1.0019,-1.0216,-1.0413,-1.0659,0.0,0.0,0.0,0.0,0.0,0.0,0.0,0.0,0.0,0.0,0.0,0.0,0.0,0.0,0.0,-1.3325,-1.3551,-1.3632,-1.3514,-1.3433,-1.3329,-1.3197,-1.3074,-1.3032,-1.3065,-1.2947,-1.3065,-1.3386,-1.3301,-1.3258,-1.3254,-1.3121,0.0,0.0,-1.2493,-1.2459,-1.253,-1.1957,-1.1694,-1.175,-1.1297,-1.107,-1.1086,0.0,0.0,0.0,0.0,0.0,0.0,-1.8047,-1.8369,-1.8789,-1.9228,-1.9648,-2.0205,-2.0957,-2.1426,-2.1816,-2.2109,0.0,0.0,0.0,0.0,0.0,0.0,0.0,0.0,0.0,0.0,0.0,0.0,0.0,0.0,0.0,0.0,0.0,0.0,0.0,0.0,0.0,0.0,0.0,0.0,0.0,0.0,0.0,0.0,0.0,0.0,0.0,0.0,0.0,0.0,0.0,0.0,0.0,0.0,0.0,0.0,-1.6298,-1.5916,-1.4345,-1.3516,-1.2932,-1.2086,-1.1389,-1.0787,0.0,0.0,0.0,-1.0156,-1.0216,-1.0314,-1.0511,-1.0708,-1.09,0.0,0.0,0.0,0.0,0.0,0.0,0.0,0.0,0.0,0.0,0.0,0.0,0.0,0.0,0.0,0.0,-1.3639,-1.374,-1.3301,-1.3296,-1.3192,-1.298,-1.2838,-1.2838,-1.2975,-1.2833,-1.2951,-1.3296,-1.3296,-1.3263,-1.3202,0.0,0.0,0.0,-1.2502,-1.2421,-1.2548,-1.1845,-1.1656,-1.1556,-1.111,-1.0887,-1.0903,0.0,0.0,0.0,0.0,0.0,0.0,0.0,-1.8369,-1.8789,-1.9228,-1.9648,-2.0078,-2.0518,-2.0977,-2.124,-2.125,0.0,0.0,0.0,0.0,0.0,0.0,0.0,0.0,0.0,0.0,0.0,-1.5569,-1.5562,0.0,0.0,0.0,0.0,0.0,0.0,0.0,0.0,0.0,0.0,0.0,0.0,0.0,0.0,0.0,0.0,0.0,0.0,0.0,0.0,0.0,0.0,0.0,0.0,0.0,0.0,0.0,-1.6779,-1.6436,-1.6264,-1.4877,-1.3447,-1.335,-1.2285,-1.1239,0.0,0.0,0.0,-1.0452,-1.0609,-1.0801,-1.0801,-1.1002,-1.1194,-1.1194,0.0,0.0,0.0,0.0,0.0,0.0,0.0,0.0,0.0,0.0,0.0,0.0,0.0,0.0,0.0,-1.419,-1.3978,-1.3074,-1.3069,-1.2975,-1.2772,-1.2767,-1.2767,-1.2772,-1.2767,-1.2876,-1.3069,-1.3069,-1.2961,0.0,0.0,0.0,0.0,-1.2441,-1.2223,-1.2005,-1.1678,-1.135,-1.1131,-1.0806,-1.0692,-1.0692,0.0,0.0,0.0,0.0,0.0,0.0,0.0,-1.8555,-1.8896,-1.9619,-2.0088,-2.0644,-2.1387,-2.1855,-2.2109,-2.2109,0.0,0.0,0.0,0.0,0.0,0.0,0.0,0.0,0.0,0.0,0.0,-1.7416,-1.6954,-1.6372,0.0,0.0,0.0,0.0,0.0,0.0,0.0,0.0,0.0,0.0,0.0,0.0,0.0,0.0,0.0,0.0,0.0,0.0,0.0,0.0,0.0,0.0,0.0,0.0,0.0,0.0,0.0,0.0,-1.6068,-1.5397,-1.4677,-1.3153,-1.2358,-1.168,-1.1017,0.0,0.0,-1.0623,-1.0703,-1.0904,-1.0998,-1.1096,-1.1339,-1.1979,-1.2203,0.0,0.0,0.0,0.0,0.0,0.0,0.0,0.0,0.0,0.0,0.0,0.0,0.0,0.0,-1.4184,-1.3709,-1.3069,-1.2937,-1.2833,-1.2767,-1.2621,-1.2687,-1.297,-1.2833,-1.3022,-1.3485,-1.3348,0.0,0.0,0.0,0.0,0.0,-1.2441,-1.2223,-1.2005,-1.1678,-1.135,-1.1017,-1.0802,-1.0692,-1.0692,0.0,0.0,0.0,0.0,0.0,0.0,0.0,-1.8496,-1.876,-1.9785,-2.0146,-2.0654,-2.1543,-2.2021,-2.2207,-2.2041,0.0,0.0,0.0,0.0,0.0,0.0,0.0,0.0,0.0,0.0,-1.8965,-1.8153,-1.7628,-1.6978,-1.6009,-1.5647,-1.5641,0.0,0.0,0.0,0.0,0.0,0.0,0.0,0.0,0.0,-1.7333,0.0,0.0,0.0,0.0,0.0,0.0,0.0,0.0,0.0,0.0,0.0,0.0,0.0,0.0,0.0,0.0,-1.6388,-1.5764,-1.4343,-1.326,0.0,0.0,0.0,0.0,0.0,-1.1096,-1.1292,-1.1487,-1.1683,-1.1928,-1.2459,-1.2752,0.0,0.0,0.0,0.0,0.0,0.0,0.0,0.0,0.0,0.0,0.0,0.0,0.0,0.0,-1.4441,-1.3886,-1.3398,-1.2984,-1.2729,-1.2644,-1.2592,-1.2691,-1.2951,-1.2828,-1.297,-1.3339,-1.3291,0.0,0.0,0.0,0.0,0.0,-1.2332,-1.2114,-1.2005,-1.1568,-1.1236,-1.1017,-1.0802,-1.0692,-1.0692,0.0,0.0,0.0,0.0,0.0,0.0,0.0,0.0,0.0,0.0,-1.9941,-2.0303,-2.1182,-2.167,-2.1768,0.0,0.0,0.0,0.0,0.0,0.0,0.0,0.0,0.0,0.0,-2.1167,-2.036,-1.7945,-1.7897,-1.7056,-1.5496,-1.5474,-1.5735,-1.5979,-1.5979,0.0,0.0,0.0,0.0,0.0,0.0,0.0,0.0,0.0,0.0,0.0,0.0,0.0,0.0,0.0,0.0,0.0,0.0,0.0,0.0,0.0,0.0,0.0,0.0,0.0,0.0,0.0,0.0,0.0,0.0,0.0,0.0,0.0,0.0,0.0,-1.2191,-1.2478,-1.2775,-1.2905,-1.3489,0.0,0.0,0.0,0.0,0.0,0.0,0.0,0.0,0.0,0.0,0.0,0.0,0.0,0.0,-1.4944,-1.4378,-1.4045,-1.3179,-1.2654,-1.2465,-1.2649,-1.2753,-1.2767,-1.2753,-1.2762,-1.2795,-1.2965,0.0,0.0,0.0,0.0,0.0,-1.211,-1.2005,-1.1896,-1.1345,-1.1126,-1.1017,-1.0802,-1.0692,-1.0692,0.0,0.0,0.0,0.0,0.0,0.0,0.0,0.0,0.0,0.0,-2.0205,-2.0752,-2.1631,-2.2109,-2.2324,0.0,0.0,0.0,0.0,0.0,0.0,0.0,0.0,0.0,0.0,-2.1114,-2.0223,-1.9372,-1.8633,-1.7576,-1.614,-1.656,-1.6766,-1.663,-1.663,0.0,0.0,0.0,0.0,0.0,0.0,0.0,0.0,0.0,0.0,0.0,-1.8087,-1.8087,0.0,0.0,0.0,0.0,0.0,0.0,0.0,0.0,-1.828,-1.8109,-1.8388,0.0,-1.718,-1.6204,-1.5767,0.0,0.0,0.0,0.0,0.0,0.0,0.0,0.0,0.0,-1.3079,-1.3841,-1.4055,0.0,0.0,0.0,0.0,0.0,0.0,0.0,0.0,0.0,0.0,0.0,0.0,0.0,0.0,-1.5001,-1.4358,-1.4484,-1.3172,-1.2573,-1.2687,-1.2578,-1.2602,-1.2767,-1.2597,-1.2687,-1.2994,-1.2885,0.0,0.0,0.0,0.0,-1.2114,-1.2005,-1.1782,-1.135,-1.1126,-1.1017,-1.0802,-1.0692,-1.0692,-1.0692,0.0,0.0,0.0,0.0,0.0,0.0,0.0,0.0,0.0,0.0,0.0,0.0,0.0,0.0,0.0,0.0,0.0,0.0,0.0,0.0,0.0,0.0,0.0,0.0,0.0,-2.2217,-2.1493,-2.0725,-1.9697,-1.8498,-1.7157,-1.683,-1.6783,-1.7004,-1.7303,0.0,0.0,0.0,0.0,0.0,-1.8087,0.0,0.0,0.0,0.0,0.0,-1.8365,-1.8356,0.0,-1.8185,-1.8193,-1.8216,0.0,0.0,0.0,0.0,-1.8558,-1.8458,-1.8481,-1.8195,-1.7714,-1.7037,-1.6655,-1.6278,0.0,0.0,0.0,0.0,0.0,0.0,0.0,0.0,0.0,0.0,0.0,0.0,0.0,0.0,0.0,0.0,0.0,0.0,0.0,0.0,0.0,0.0,0.0,0.0,0.0,-1.495,-1.4277,-1.4619,-1.3197,-1.2498,-1.2616,-1.2597,-1.2597,-1.2616,-1.2597,-1.2654,-1.2776,-1.2772,-1.271,0.0,0.0,0.0,-1.2005,-1.1896,-1.1568,-1.1126,-1.0907,-1.0802,-1.0692,-1.0692,-1.0692,-1.0692,0.0,0.0,0.0,0.0,0.0,0.0,0.0,0.0,0.0,0.0,0.0,0.0,0.0,0.0,0.0,0.0,0.0,0.0,0.0,0.0,0.0,0.0,0.0,0.0,0.0,-2.3406,-2.2862,-2.195,-2.0798,-1.9547,-1.8205,-1.7292,-1.7038,-1.7505,-1.7972,0.0,0.0,0.0,0.0,0.0,-1.8195,0.0,0.0,0.0,0.0,0.0,0.0,0.0,0.0,-1.8502,-1.843,-1.8263,-1.8518,0.0,0.0,0.0,0.0,0.0,-1.8488,-1.8334,-1.8179,-1.8087,-1.7512,-1.6936,0.0,0.0,0.0,0.0,0.0,0.0,0.0,0.0,0.0,0.0,0.0,0.0,0.0,0.0,0.0,0.0,0.0,0.0,0.0,0.0,0.0,0.0,0.0,0.0,0.0,-1.4933,-1.4256,-1.457,-1.3183,-1.2441,-1.2441,-1.2625,-1.2625,-1.2441,-1.263,-1.2621,-1.2446,-1.263,-1.2616,0.0,0.0,0.0,-1.1896,-1.1678,-1.1345,-1.1017,-1.0802,-1.0692,-1.0692,-1.0692,-1.0692,-1.0692,0.0,0.0,0.0,0.0,0.0,0.0,0.0,0.0,0.0,0.0,0.0,0.0,0.0,0.0,0.0,0.0,0.0,0.0,0.0,0.0,0.0,0.0,0.0,0.0,0.0,0.0,0.0,-2.2299,-2.1363,-2.0438,-1.9507,-1.9798,-1.9627,-1.9191,-1.898,-1.905,-1.9307,-1.9217,-1.9194,-1.917,-1.8862,0.0,0.0,0.0,0.0,0.0,0.0,0.0,0.0,-1.7596,-1.7668,-1.7811,-1.7588,0.0,0.0,0.0,0.0,0.0,-1.8383,-1.8514,-1.8643,-1.8179,-1.8187,-1.8195,0.0,0.0,0.0,0.0,0.0,0.0,0.0,0.0,0.0,0.0,0.0,0.0,0.0,0.0,0.0,0.0,0.0,0.0,0.0,0.0,0.0,0.0,0.0,0.0,0.0,0.0,-1.4186,-1.4218,-1.2994,-1.2441,-1.2441,-1.2474,-1.2474,-1.2441,-1.2474,-1.2474,-1.2441,-1.2474,-1.2474,0.0,0.0,-1.1928,-1.1678,-1.135,-1.1017,-1.0802,-1.0692,-1.0692,-1.0692,-1.0692,-1.0692,-1.0692,0.0,0.0,0.0,0.0,0.0,0.0,0.0,0.0,0.0,0.0,0.0,0.0,0.0,0.0,0.0,0.0,0.0,0.0,0.0,0.0,0.0,0.0,0.0,0.0,0.0,0.0,0.0,0.0,-2.1821,-2.0976,-2.0557,-2.0234,-1.9618,-1.8912,-1.9296,-1.9524,-1.9665,-1.9701,-1.9638,-1.9606,0.0,0.0,0.0,0.0,0.0,0.0,0.0,0.0,0.0,0.0,-1.7525,-1.7509,-1.754,0.0,0.0,0.0,0.0,0.0,-1.8247,-1.8414,-1.8498,-1.8503,-1.855,-1.8651,0.0,0.0,0.0,0.0,0.0,0.0,0.0,0.0,0.0,0.0,0.0,0.0,0.0,0.0,0.0,0.0,0.0,0.0,0.0,0.0,0.0,0.0,0.0,0.0,0.0,0.0,-1.4062,-1.3743,-1.2871,-1.2441,-1.2441,-1.2441,-1.2441,-1.2441,-1.2441,-1.2441,-1.2441,-1.2441,-1.2441,-1.2436,0.0,-1.2001,-1.1568,-1.1459,-1.1131,-1.0692,-1.0692,-1.0692,-1.0692,-1.0692,-1.0692,-1.0692,0.0,0.0,0.0,0.0,0.0,0.0,0.0,0.0,0.0,0.0,0.0,0.0,0.0,0.0,0.0,0.0,0.0,0.0,0.0,0.0,0.0,0.0,0.0,0.0,0.0,0.0,-2.37,-2.3877,-2.2281,-2.1431,-2.1211,-2.0269,-1.9521,-1.8937,-1.9646,-2.0035,-2.0106,-2.0019,-1.9987,-1.9955,0.0,0.0,0.0,0.0,0.0,0.0,0.0,0.0,0.0,0.0,0.0,0.0,0.0,0.0,0.0,-1.7525,-1.7588,-1.7731,-1.8081,-1.824,-1.8383,-1.874,0.0,0.0,0.0,0.0,0.0,0.0,0.0,0.0,0.0,0.0,0.0,0.0,0.0,0.0,0.0,0.0,0.0,0.0,0.0,0.0,0.0,0.0,0.0,0.0,0.0,0.0,0.0,0.0,-1.3954,-1.3315,-1.2659,-1.2441,-1.2441,-1.2441,-1.2441,-1.2441,-1.2441,-1.2441,-1.2441,-1.2441,-1.2441,-1.2436,-1.2219,-1.2005,-1.1568,-1.1459,-1.1131,-1.0692,-1.0692,-1.0692,-1.0692,-1.0692,-1.0692,-1.0692,0.0,0.0,0.0,0.0,0.0,0.0,0.0,0.0,0.0,0.0,0.0,0.0,0.0,0.0,0.0,0.0,0.0,0.0,0.0,0.0,0.0,0.0,0.0,0.0,0.0,-2.4011,-2.3877,-2.3877,-2.2866,-2.2007,-2.1211,-2.0874,-2.0686,-2.0594,-2.0411,-2.0535,-2.0821,-2.0496,-2.0353,-2.0297,-1.9638,0.0,0.0,0.0,0.0,0.0,0.0,0.0,0.0,0.0,0.0,0.0,0.0,0.0,-1.681,-1.681,-1.7048,-1.739,-1.7715,-1.8049,-1.8383,-1.874,0.0,0.0,0.0,0.0,0.0,0.0,0.0,0.0,0.0,0.0,0.0,0.0,0.0,0.0,0.0,0.0,0.0,0.0,0.0,0.0,0.0,0.0,0.0,0.0,0.0,0.0,0.0,0.0,0.0,-1.3315,-1.2659,-1.2441,-1.2441,-1.2441,-1.2441,-1.2441,-1.2441,-1.2441,-1.2441,-1.2441,-1.2441,-1.2332,-1.1896,-1.1678,-1.1568,-1.1021,-1.0692,-1.0692,-1.0692,-1.0692,-1.0692,-1.0692,-1.0692,-1.0692,0.0,0.0,0.0,0.0,0.0,0.0,0.0,0.0,0.0,0.0,0.0,0.0,0.0,0.0,0.0,0.0,0.0,0.0,0.0,0.0,0.0,0.0,0.0,-2.4841,-2.4378,-2.3742,-2.3453,-2.3453,-2.2522,-2.155,-2.0688,-2.0985,-2.0802,-2.0262,-2.06,-2.0551,-2.0281,-2.0591,-2.0464,-2.0043,-1.9781,-1.9677,0.0,0.0,0.0,0.0,0.0,0.0,0.0,0.0,-1.673,0.0,0.0,0.0,-1.673,-1.673,-1.6833,-1.7016,-1.7366,-1.7707,-1.8057,-1.8406,0.0,0.0,0.0,0.0,0.0,0.0,0.0,0.0,0.0,0.0,0.0,0.0,0.0,0.0,0.0,0.0,0.0,0.0,0.0,0.0,0.0,0.0,0.0,0.0,0.0,0.0,0.0,0.0,0.0,-1.2767,-1.2426,-1.2313,-1.2441,-1.2313,-1.2313,-1.2441,-1.2441,-1.2441,-1.2441,-1.2441,-1.2327,-1.2114,-1.1896,-1.1678,-1.124,-1.1021,-1.0802,-1.0692,-1.0692,-1.0692,-1.0692,-1.0692,-1.0692,-1.0692,0.0,0.0,0.0,0.0,0.0,0.0,0.0,0.0,0.0,0.0,0.0,0.0,0.0,0.0,0.0,0.0,0.0,0.0,0.0,0.0,0.0,0.0,0.0,-2.4954,-2.4343,-2.3722,-2.3329,-2.3184,-2.2263,-2.139,-2.0633,-2.1367,-2.1087,-2.0069,-2.0915,-2.0948,-2.0409,-2.1031,-2.081,-2.0079,-2.0175,-1.9982,0.0,0.0,0.0,0.0,0.0,0.0,0.0,0.0,0.0,0.0,0.0,0.0,0.0,0.0,-1.673,-1.6818,-1.7183,-1.7517,-1.7858,0.0,0.0,0.0,0.0,0.0,0.0,0.0,0.0,0.0,0.0,0.0,0.0,0.0,0.0,0.0,0.0,0.0,0.0,0.0,0.0,0.0,0.0,0.0,0.0,0.0,0.0,0.0,0.0,0.0,0.0,0.0,-1.2271,-1.2271,-1.2342,-1.2271,-1.2304,-1.2441,-1.2441,-1.2441,-1.2441,-1.2327,-1.2223,-1.2005,-1.1782,-1.1459,-1.1126,-1.1017,-1.0911,-1.0692,-1.0692,-1.0692,-1.0692,-1.0692,-1.0692,-1.0692,0.0,0.0,0.0,0.0,0.0,0.0,0.0,0.0,0.0,0.0,0.0,0.0,0.0,0.0,0.0,0.0,0.0,0.0,0.0,0.0,0.0,0.0,0.0,-2.4809,-2.3898,-2.3877,-2.365,-2.3184,-2.2273,-2.1582,-2.123,-2.1987,-2.1561,-2.038,-2.1463,-2.1762,-2.1418,-2.1817,-2.1446,-2.0628,-2.0729,-2.0185,-1.9296,0.0,0.0,0.0,0.0,0.0,0.0,0.0,-1.6746,0.0,0.0,0.0,0.0,0.0,-1.6738,-1.6818,-1.7175,-1.7517,0.0,0.0,0.0,0.0,0.0,0.0,0.0,0.0,0.0,0.0,0.0,0.0,0.0,0.0,0.0,0.0,0.0,0.0,0.0,0.0,0.0,0.0,0.0,0.0,0.0,0.0,0.0,0.0,0.0,0.0,0.0,0.0,-1.2332,-1.2342,-1.2143,-1.2337,-1.2436,-1.2441,-1.2441,-1.2441,-1.2436,-1.2114,-1.2005,-1.2005,-1.1345,-1.1126,-1.1131,-1.0802,-1.0692,-1.0692,-1.0692,-1.0692,-1.0692,-1.0692,-1.0692,-1.0692,0.0,0.0,0.0,0.0,0.0,0.0,0.0,0.0,0.0,0.0,0.0,0.0,0.0,0.0,0.0,0.0,0.0,0.0,0.0,0.0,0.0,0.0,0.0,0.0,0.0,0.0,-2.365,-2.3184,-2.2915,-2.2666,0.0,0.0,0.0,-2.1472,-2.1826,-2.1195,-1.9878,-2.0702,-2.0239,-1.9009,-1.9621,-1.9644,-1.932,0.0,0.0,0.0,0.0,0.0,0.0,0.0,0.0,0.0,0.0,0.0,0.0,-1.681,-1.6913,-1.7088,-1.6937,0.0,0.0,0.0,0.0,0.0,0.0,0.0,0.0,0.0,0.0,0.0,0.0,0.0,0.0,0.0,0.0,0.0,0.0,0.0,0.0,0.0,0.0,0.0,0.0,0.0,0.0,0.0,0.0,0.0,0.0,0.0,0.0,0.0,-1.2195,-1.2266,-1.2351,-1.2271,-1.2299,-1.2441,-1.2223,-1.2114,-1.2114,-1.2005,-1.1782,-1.1345,-1.1126,-1.1021,-1.0802,-1.0692,-1.0692,-1.0692,-1.0692,-1.0692,-1.0692,-1.0692,-1.0692,-1.0692,0.0,0.0,0.0,0.0,0.0,0.0,0.0,0.0,0.0,0.0,0.0,0.0,0.0,0.0,0.0,0.0,0.0,0.0,0.0,0.0,0.0,0.0,0.0,0.0,0.0,-2.4105,-2.3826,0.0,0.0,0.0,0.0,0.0,-2.3083,-2.2621,-2.2794,-2.2007,-2.0652,-2.1696,-2.1235,-1.987,-2.0835,-2.0876,-2.0407,0.0,0.0,0.0,0.0,0.0,0.0,0.0,0.0,0.0,0.0,0.0,0.0,-1.6841,-1.6992,-1.7231,-1.7008,0.0,0.0,0.0,0.0,0.0,0.0,0.0,0.0,0.0,0.0,0.0,0.0,0.0,0.0,0.0,0.0,0.0,0.0,0.0,0.0,0.0,0.0,0.0,0.0,0.0,0.0,0.0,0.0,0.0,0.0,0.0,0.0,0.0,-1.2172,-1.2238,-1.2191,-1.2157,-1.2051,-1.1977,-1.1875,-1.1657,-1.1451,-1.1607,-1.1455,-1.1126,-1.1021,-1.0802,-1.0688,-1.0619,-1.059,-1.059,-1.059,-1.059,-1.0599,-1.0668,-1.0692,-1.0692,0.0,0.0,0.0,0.0,0.0,0.0,0.0,0.0,0.0,0.0,0.0,0.0,0.0,0.0,0.0,0.0,0.0,0.0,0.0,0.0,0.0,0.0,0.0,0.0,0.0,0.0,0.0,0.0,0.0,0.0,0.0,0.0,-2.3804,-2.3465,0.0,-2.3562,-2.2778,-2.3889,-2.3443,-2.2182,-2.3278,-2.2911,-2.1765,-2.0953,0.0,0.0,0.0,0.0,0.0,0.0,0.0,0.0,0.0,0.0,0.0,-1.6849,-1.7016,-1.7318,0.0,0.0,0.0,0.0,0.0,0.0,0.0,0.0,0.0,0.0,0.0,0.0,0.0,0.0,0.0,0.0,0.0,0.0,0.0,0.0,0.0,0.0,0.0,0.0,0.0,0.0,0.0,0.0,0.0,0.0,0.0,0.0,0.0,0.0,-1.2176,-1.22,-1.1817,-1.2011,-1.1801,0.0,-1.13,-1.1092,-1.0585,-1.0923,-1.108,-1.0967,-1.0752,-1.0643,-1.0631,-1.0473,-1.0408,-1.0408,-1.0408,-1.042,-1.0452,-1.0611,-1.068,-1.0692,0.0,0.0,0.0,0.0,0.0,0.0,0.0,0.0,0.0,0.0,0.0,0.0,0.0,0.0,0.0,0.0,0.0,0.0,0.0,0.0,0.0,0.0,0.0,0.0,0.0,0.0,0.0,0.0,0.0,0.0,0.0,0.0,0.0,-2.2972,0.0,-2.2998,-2.1918,-2.2534,-2.2486,-2.1911,-2.2505,-2.2013,-2.0863,-2.0683,-1.9926,0.0,0.0,0.0,0.0,0.0,0.0,0.0,-1.7771,-1.766,-1.754,-1.6921,-1.7175,0.0,0.0,0.0,0.0,0.0,0.0,0.0,0.0,0.0,0.0,0.0,0.0,0.0,0.0,0.0,0.0,0.0,0.0,0.0,0.0,0.0,0.0,0.0,0.0,0.0,0.0,0.0,0.0,0.0,0.0,0.0,0.0,0.0,0.0,-1.1595,-1.1822,-1.1907,-1.1817,-1.1657,-1.1553,0.0,-1.0993,-1.0681,-1.0577,-1.0657,-1.059,-1.0383,-1.0379,-1.0278,-1.0274,-1.0237,-1.0221,-1.0221,-1.0221,-1.031,-1.044,-1.0477,-1.0574,-1.0692,0.0,0.0,0.0,0.0,0.0,0.0,0.0,0.0,0.0,0.0,0.0,0.0,0.0,0.0,0.0,0.0,0.0,0.0,0.0,0.0,0.0,0.0,0.0,0.0,0.0,0.0,0.0,0.0,0.0,0.0,0.0,0.0,0.0,-2.3486,0.0,-2.3664,-2.3041,-2.3752,-2.3784,-2.3324,-2.3856,-2.3337,-2.2101,-2.1658,-2.0683,-1.9455,-1.9004,0.0,0.0,0.0,0.0,0.0,0.0,0.0,-1.7668,-1.7143,-1.7247,-1.7533,0.0,0.0,0.0,0.0,0.0,0.0,0.0,0.0,0.0,0.0,0.0,0.0,0.0,0.0,0.0,0.0,0.0,0.0,0.0,0.0,0.0,0.0,0.0,0.0,0.0,0.0,0.0,0.0,0.0,0.0,0.0,-1.1784,-1.1652,-1.1236,-1.1515,-1.148,-1.1179,-1.1272,-1.1019,-1.0538,-1.0327,-1.0209,-1.0116,-1.029,-1.0369,-1.016,-1.016,-1.016,-1.0156,-1.0067,-1.003,-1.003,-1.003,-1.0144,-1.0314,-1.0404,-1.0546,-1.0692,0.0,0.0,0.0,0.0,0.0,0.0,0.0,0.0,0.0,0.0,0.0,0.0,0.0,0.0,0.0,0.0,0.0,0.0,0.0,0.0,0.0,0.0,0.0,0.0,0.0,0.0,0.0,0.0,0.0,0.0,0.0,0.0,0.0,-2.4166,0.0,-2.4652,-2.4509,-2.5341,-2.5413,-2.4999,-2.5565,-2.502,-2.3617,-2.2717,-2.148,-2.0167,-1.9188,-1.8827,-1.8827,-1.8827,0.0,0.0,0.0,0.0,-1.7795,-1.7461,-1.7366,-1.7421,0.0,0.0,0.0,0.0,0.0,0.0,0.0,0.0,0.0,0.0,0.0,0.0,0.0,0.0,0.0,0.0,0.0,0.0,0.0,0.0,0.0,0.0,0.0,0.0,0.0,0.0,0.0,0.0,0.0,0.0,-1.1539,-1.1449,-1.1236,-1.0853,-1.1175,-1.1012,-1.0519,-1.0744,-1.048,-0.9566,-0.9778,-0.9826,-0.9636,-0.9937,-1.0071,-1.0071,-1.0071,-1.0071,-1.0059,-0.9904,-0.9839,-0.9839,-0.9839,-0.9953,-1.0136,-1.0318,-1.0497,-1.0651,0.0,0.0,0.0,0.0,0.0,0.0,0.0,0.0,0.0,0.0,0.0,0.0,0.0,0.0,0.0,0.0,0.0,0.0,-2.2646,0.0,0.0,-2.454,-2.454,-2.4364,0.0,0.0,0.0,0.0,0.0,0.0,0.0,0.0,0.0,-2.3854,0.0,-2.4354,-2.4498,-2.4798,-2.5035,-2.5199,-2.5527,-2.4765,-2.3347,-2.2385,-2.132,-2.0167,-1.9188,-1.8827,-1.8827,-1.8827,-1.8827,0.0,0.0,0.0,-1.816,-1.7811,-1.7699,0.0,0.0,0.0,0.0,0.0,0.0,0.0,0.0,0.0,0.0,0.0,0.0,0.0,0.0,0.0,0.0,0.0,0.0,0.0,0.0,0.0,0.0,0.0,0.0,0.0,0.0,0.0,0.0,0.0,0.0,0.0,-1.1529,-1.1175,-1.0868,-1.0622,-1.0482,-1.0386,-1.0514,-1.0175,-0.9955,-0.9947,-0.9702,-0.9628,-0.9628,-0.9677,-0.9697,-0.9697,-0.9697,-0.9697,-0.9697,-0.9673,-0.9661,-0.9661,-0.9661,-0.977,-0.9945,-1.0132,-1.0314,-1.0489,0.0,0.0,0.0,0.0,0.0,0.0,0.0,0.0,0.0,0.0,0.0,0.0,0.0,0.0,0.0,-2.0213,-2.0917,-2.1838,-2.2822,-2.3691,-2.4366,-2.469,-2.47,-2.4492,-2.4054,0.0,0.0,0.0,0.0,0.0,0.0,-2.4106,-2.4357,0.0,0.0,0.0,0.0,0.0,-2.5355,-2.538,-2.538,-2.4248,-2.2486,-2.2114,-2.0829,-1.9175,-1.8932,-1.8827,-1.8827,-1.8827,-1.8827,-1.8804,-1.8645,0.0,0.0,0.0,-1.7795,0.0,0.0,0.0,0.0,0.0,0.0,0.0,0.0,0.0,0.0,0.0,0.0,0.0,0.0,0.0,0.0,0.0,0.0,0.0,0.0,0.0,0.0,0.0,0.0,0.0,0.0,0.0,0.0,0.0,0.0,-1.1557,-1.135,-1.1057,-1.0702,-1.0394,-1.0412,-1.0175,-0.987,-0.9887,-0.9786,-0.9664,-0.9473,-0.9332,-0.9332,-0.9332,-0.9437,-0.9628,-0.9628,-0.9628,-0.9628,-0.9628,-0.9628,-0.9628,-0.9628,-0.9734,-1.0006,-1.0806,-1.0796,-1.0564,0.0,0.0,0.0,0.0,0.0,0.0,0.0,0.0,0.0,0.0,0.0,0.0,0.0,0.0,0.0,0.0,-2.0741,-2.1476,-2.2829,-2.3544,-2.4096,-2.4588,-2.4714,-2.4514,-2.3945,0.0,0.0,0.0,0.0,0.0,-2.3528,-2.4273,-2.4523,0.0,-2.4596,-2.487,0.0,0.0,0.0,-2.5295,-2.5083,0.0,-2.231,-2.1936,-2.0642,-1.8953,-1.8883,-1.8827,-1.8827,-1.8827,-1.8827,-1.8827,-1.8827,-1.8645,0.0,0.0,0.0,0.0,0.0,0.0,0.0,0.0,0.0,0.0,0.0,0.0,0.0,0.0,0.0,0.0,0.0,0.0,0.0,0.0,0.0,0.0,0.0,0.0,0.0,0.0,0.0,0.0,0.0,0.0,0.0,0.0,0.0,-1.1368,-1.1203,-1.0953,-1.0646,-1.0209,-1.026,-1.0009,-0.9439,-0.9711,-0.966,-0.9287,-0.9161,-0.9096,-0.9096,-0.9096,-0.9242,-0.949,-0.949,-0.949,-0.949,-0.949,-0.9518,-0.9559,-0.9559,-0.9665,-0.9944,-1.1401,-1.1281,-1.0502,0.0,0.0,0.0,0.0,0.0,0.0,0.0,0.0,0.0,0.0,0.0,0.0,-2.3111,-2.2346,-2.1435,-2.0503,-2.0452,-2.0938,-2.2111,-2.3192,-2.379,-2.3892,-2.4246,0.0,-2.3211,0.0,0.0,0.0,0.0,0.0,-2.3528,-2.4441,-2.485,-2.4829,-2.4584,-2.468,-2.4946,0.0,0.0,0.0,0.0,0.0,0.0,0.0,0.0,0.0,-1.9323,-1.8827,-1.8827,-1.8827,-1.8827,-1.8827,-1.8827,-1.8812,-1.8804,0.0,0.0,0.0,0.0,0.0,0.0,0.0,0.0,0.0,0.0,0.0,0.0,0.0,0.0,0.0,0.0,0.0,0.0,0.0,0.0,0.0,0.0,0.0,0.0,0.0,0.0,0.0,0.0,0.0,0.0,0.0,0.0,-1.1208,-1.1194,-1.0811,-1.0491,-1.0204,-0.9935,-0.9742,-0.9714,-0.9548,-0.9283,-0.9112,-0.91,-0.9096,-0.9096,-0.9096,-0.9108,-0.9125,-0.9125,-0.9125,-0.9125,-0.9125,-0.9222,-0.9368,-0.9368,-0.9482,-0.978,-1.1346,-1.1191,-1.0431,0.0,0.0,0.0,0.0,0.0,0.0,0.0,0.0,0.0,0.0,0.0,0.0,0.0,-2.2449,-2.1756,-2.0534,-2.07,-2.1259,-2.2268,-2.271,-2.3192,-2.3566,-2.4182,-2.4073,-2.3136,0.0,0.0,0.0,0.0,-2.345,-2.3507,-2.3679,-2.4221,-2.4861,-2.4786,-2.4786,-2.4861,-2.4861,0.0,0.0,0.0,0.0,0.0,0.0,0.0,0.0,0.0,0.0,0.0,-1.8827,-1.8827,-1.8827,-1.8827,-1.8827,-1.874,-1.8279,-1.7969,0.0,0.0,0.0,0.0,0.0,0.0,0.0,0.0,0.0,0.0,0.0,0.0,0.0,0.0,0.0,0.0,0.0,0.0,0.0,0.0,0.0,0.0,0.0,0.0,0.0,0.0,0.0,0.0,0.0,0.0,0.0,-1.1194,-1.0858,-1.0587,-1.0303,-1.011,-0.979,-0.9544,-0.9452,-0.921,-0.8922,-0.8922,-0.8865,-0.8755,-0.9374,-0.9285,-0.8849,-0.9374,-0.9423,-0.9096,-0.9096,-0.9133,-0.9202,-0.9311,-0.9778,-1.0651,-1.2144,-1.2501,-1.2462,0.0,0.0,0.0,0.0,0.0,0.0,0.0,0.0,0.0,0.0,0.0,0.0,0.0,0.0,-2.2004,-2.0762,-2.1011,-2.1447,-2.207,-2.2324,-2.2631,-2.3103,-2.3854,-2.3902,-2.3136,0.0,0.0,0.0,0.0,0.0,0.0,-2.3265,-2.367,-2.4556,-2.4556,-2.4639,0.0,0.0,0.0,-2.4775,0.0,0.0,-2.1788,0.0,0.0,0.0,0.0,0.0,0.0,0.0,0.0,-1.8827,-1.8827,-1.874,-1.8518,-1.7811,-1.7604,0.0,0.0,0.0,0.0,0.0,0.0,0.0,0.0,0.0,0.0,0.0,0.0,0.0,0.0,0.0,0.0,0.0,0.0,0.0,0.0,0.0,0.0,0.0,0.0,0.0,0.0,0.0,0.0,0.0,0.0,0.0,-1.1096,-1.0904,-1.0609,-1.0314,-0.9955,-0.9643,-0.9271,-0.9206,-0.9027,-0.8735,-0.8999,-0.9114,-0.9087,-0.9946,-1.0033,-0.9519,-0.9772,-0.9487,-0.8917,-0.8917,-0.8991,-0.9108,-0.9222,-0.9814,-1.0734,-1.2548,-1.2984,-1.296,0.0,0.0,0.0,0.0,0.0,0.0,0.0,0.0,0.0,-2.2631,0.0,0.0,0.0,0.0,0.0,-2.1217,-2.1282,-2.1429,-2.1429,-2.1998,-2.2402,-2.2402,-2.3296,-2.3583,-2.3126,0.0,0.0,0.0,0.0,0.0,0.0,0.0,-2.3412,-2.3877,-2.3867,-2.4115,-2.454,0.0,-2.454,-2.4509,0.0,-2.3355,-2.2291,0.0,0.0,0.0,-1.8967,-1.8827,0.0,-1.8827,0.0,0.0,0.0,-1.8589,-1.8168,-1.7493,-1.7286,0.0,0.0,0.0,0.0,0.0,0.0,0.0,0.0,0.0,0.0,0.0,0.0,0.0,0.0,0.0,0.0,0.0,0.0,0.0,0.0,0.0,0.0,0.0,0.0,0.0,0.0,0.0,0.0,0.0,0.0,-1.1194,-1.09,-1.09,-1.0605,-1.001,-0.9639,-0.9362,-0.9092,-0.8909,-0.8735,-0.8568,-0.9428,-0.9859,-0.9946,-1.0895,-1.1327,-1.1235,-1.0376,-0.9515,-0.8656,-0.8656,-0.8771,-0.9084,-0.9088,-0.9303,-0.9924,-1.2287,-1.2473,-1.1846,0.0,0.0,0.0,0.0,0.0,0.0,0.0,0.0,0.0,0.0,0.0,0.0,-2.3025,-2.2145,-2.1528,-2.1611,-2.1686,-2.1686,-2.1686,-2.1886,-2.1959,-2.1959,-2.2678,-2.3019,-2.2882,0.0,0.0,0.0,0.0,0.0,0.0,0.0,0.0,0.0,-2.3525,-2.3815,-2.454,-2.454,0.0,0.0,-2.4405,-2.3725,0.0,0.0,0.0,0.0,0.0,-1.8827,-1.8827,0.0,-1.8827,-1.8827,0.0,0.0,-1.8208,0.0,0.0,0.0,-1.6833,0.0,0.0,0.0,0.0,0.0,0.0,0.0,0.0,0.0,0.0,0.0,0.0,0.0,0.0,0.0,0.0,0.0,0.0,0.0,0.0,0.0,0.0,0.0,0.0,0.0,0.0,0.0,-1.398,-1.3312,-1.3033,-1.264,-1.1889,-1.0679,-1.0523,-0.9951,-0.8901,-0.8844,-0.8735,-0.8568,-0.8823,-0.9257,-0.9946,-1.0895,-1.1327,-1.1322,-1.1752,-1.1408,-1.0463,-0.9174,-0.8625,-0.8727,-0.8848,-0.949,-1.0377,-1.125,-1.2499,-1.3905,0.0,0.0,0.0,0.0,0.0,0.0,0.0,0.0,0.0,0.0,0.0,0.0,-2.2499,-2.2038,-2.1725,-2.1797,-2.1807,-2.1807,-2.1807,-2.1807,-2.1807,-2.1807,-2.232,-2.2647,-2.2647,0.0,0.0,0.0,0.0,0.0,0.0,0.0,0.0,0.0,0.0,0.0,0.0,0.0,0.0,0.0,-2.454,0.0,0.0,-2.2482,-2.1418,0.0,0.0,0.0,-1.8827,-1.8827,-1.8827,0.0,0.0,0.0,0.0,0.0,0.0,0.0,-1.6794,-1.673,0.0,0.0,0.0,0.0,-1.6815,-1.6691,0.0,0.0,0.0,0.0,0.0,0.0,0.0,0.0,0.0,0.0,0.0,0.0,0.0,0.0,0.0,0.0,0.0,0.0,0.0,-1.5798,-1.4841,-1.4178,-1.3709,-1.3221,-1.2378,-1.1096,-1.083,-1.0161,-0.8938,-0.8787,-0.8839,-0.917,-0.9515,-1.0207,-1.1068,-1.2015,-1.2448,-1.2443,-1.2619,-1.2357,-1.1757,-1.0294,-0.9735,-0.9823,-0.949,-0.988,-1.0693,-1.0825,-1.1849,-1.3346,0.0,0.0,0.0,0.0,0.0,0.0,0.0,0.0,0.0,0.0,0.0,-2.2434,-2.2004,-2.2283,-2.2356,-2.1994,-2.1859,-2.1828,-2.188,-2.1838,-2.1807,-2.1807,-2.2201,-2.2449,0.0,0.0,0.0,0.0,0.0,0.0,0.0,0.0,0.0,0.0,0.0,0.0,0.0,0.0,0.0,-2.454,-2.454,-2.3907,0.0,0.0,-2.1854,-2.0257,-2.0167,-1.9546,-1.8827,-1.8827,-1.8827,0.0,0.0,0.0,0.0,0.0,-1.708,0.0,-1.6746,-1.6656,-1.6727,0.0,0.0,0.0,-1.6335,-1.6292,-1.625,0.0,0.0,0.0,0.0,0.0,0.0,0.0,0.0,0.0,0.0,0.0,0.0,0.0,0.0,0.0,0.0,-1.6466,-1.5988,-1.5988,-1.5127,-1.437,-1.3896,-1.3312,-1.2522,-1.1429,-1.0942,-1.0269,-0.925,-0.891,-0.917,-1.0028,-1.089,-1.1757,-1.2705,-1.3568,-1.4004,-1.4082,-1.3222,-1.2875,-1.2784,-1.2009,-1.1614,-1.1451,-1.0652,-1.0447,-1.0698,-1.0801,-1.0943,-1.1458,-2.5369,0.0,0.0,0.0,0.0,0.0,0.0,0.0,0.0,0.0,0.0,-2.3356,-2.2964,-2.2666,-2.2615,-2.2894,-2.2242,-2.1963,-2.2335,-2.2014,-2.1807,-2.1807,-2.189,-2.2118,-2.249,0.0,0.0,0.0,0.0,0.0,0.0,0.0,0.0,0.0,0.0,0.0,0.0,0.0,0.0,-2.454,-2.454,0.0,-2.3008,-2.2217,-2.1239,-2.0167,-1.9363,-1.9004,-1.8827,-1.8827,-1.8827,-1.8812,0.0,0.0,0.0,-1.7779,0.0,0.0,0.0,0.0,0.0,0.0,0.0,0.0,-1.5992,-1.5957,-1.606,0.0,0.0,0.0,0.0,0.0,0.0,0.0,0.0,0.0,0.0,0.0,0.0,0.0,0.0,0.0,0.0,-1.7138,-1.7044,-1.7044,-1.648,-1.6103,-1.6008,-1.5534,-1.4272,-1.2352,-1.1987,-1.1298,-1.0044,-0.9716,-1.0115,-1.1068,-1.1241,-1.1757,-1.2705,-1.2875,-1.3392,-1.4088,-1.3913,-1.3906,-1.4055,-1.388,-1.2802,-1.1305,-1.1131,-1.077,-1.0276,-1.0367,-1.0608,-1.1029,-2.469,0.0,0.0,0.0,0.0,0.0,0.0,0.0,0.0,0.0,0.0,-2.3551,-2.2943,-2.3049,-2.3184,-2.3184,-2.276,-2.2501,-2.2501,-2.2273,-2.2045,-2.1818,-2.1807,-2.1911,-2.2149,-2.2149,0.0,0.0,0.0,0.0,0.0,0.0,0.0,0.0,0.0,0.0,0.0,0.0,-2.454,-2.454,-2.454,0.0,-2.3734,-2.329,-2.2227,-2.0889,-2.0439,-1.9629,-1.8827,-1.8827,-1.8827,0.0,0.0,-1.8589,-1.8263,0.0,-1.7581,-1.7054,0.0,0.0,0.0,-1.5989,0.0,0.0,0.0,-1.5672,-1.576,0.0,0.0,0.0,0.0,0.0,0.0,0.0,0.0,0.0,0.0,0.0,0.0,0.0,0.0,0.0,0.0,-1.7326,-1.7239,-1.7153,-1.6777,-1.6494,-1.6407,-1.6021,-1.5018,-1.3222,-1.298,-1.227,-1.087,-1.0742,-1.1068,-1.2015,-1.2015,-1.2534,-1.3398,-1.3398,-1.373,-1.4243,-1.4243,-1.4321,-1.4566,-1.4566,-1.3971,-1.2942,-1.2345,-1.2059,-1.1838,-1.1222,-1.1329,-1.1706,-2.3927,0.0,0.0,0.0,0.0,0.0,0.0,0.0,0.0,0.0,0.0,0.0,-2.2967,-2.3484,-2.3764,-2.3474,-2.3205,-2.2977,-2.277,-2.2594,-2.2325,-2.1952,-2.1932,-2.1901,-2.1807,-2.1807,0.0,0.0,0.0,0.0,0.0,0.0,0.0,0.0,0.0,0.0,0.0,0.0,0.0,-2.454,0.0,-2.4358,-2.4272,-2.4272,-2.3202,-2.1695,-2.1516,-2.0439,-1.9096,-1.8827,-1.8827,-1.8827,-1.8827,-1.8637,0.0,0.0,0.0,0.0,0.0,0.0,0.0,0.0,0.0,-1.5656,0.0,0.0,0.0,0.0,0.0,0.0,0.0,0.0,0.0,0.0,0.0,0.0,0.0,0.0,0.0,0.0,0.0,0.0,0.0,-1.7326,-1.7246,-1.6979,-1.6727,-1.6411,-1.6135,-1.5846,-1.513,-1.3803,-1.3598,-1.3003,-1.1844,-1.1701,-1.2015,-1.296,-1.296,-1.3398,-1.4088,-1.4166,-1.4243,-1.4398,-1.4482,-1.4566,-1.4741,-1.4741,-1.4824,-1.4734,-1.3704,-1.3414,-1.3449,-1.2616,-1.2389,-1.256,-2.4196,-2.411,0.0,0.0,0.0,0.0,0.0,0.0,0.0,0.0,0.0,0.0,0.0,0.0,0.0,-2.4364,0.0,0.0,-2.367,0.0,-2.247,-2.2418,-2.2418,-2.2232,-2.1818,-2.1807,-2.1807,0.0,0.0,0.0,0.0,0.0,0.0,0.0,-2.3215,0.0,0.0,0.0,-2.4178,0.0,-2.454,-2.4003,0.0,-2.328,-2.257,-2.1606,-2.0791,-2.0339,-1.9985,0.0,-1.8827,-1.8827,0.0,-1.8627,-1.8448,-1.8045,0.0,0.0,0.0,0.0,0.0,0.0,-1.6019,0.0,0.0,0.0,0.0,-1.5533,0.0,0.0,0.0,0.0,0.0,0.0,0.0,0.0,0.0,0.0,0.0,0.0,0.0,0.0,0.0,0.0,-1.7246,-1.6979,-1.6522,-1.6091,-1.5828,-1.5636,-1.4838,-1.3532,-1.3507,-1.3363,-1.2821,-1.2659,-1.3045,-1.3913,-1.3913,-1.4004,-1.4088,-1.4237,-1.4398,-1.4398,-1.4566,-1.4824,-1.5082,-1.5082,-1.5173,-1.5257,-1.4741,-1.4068,-1.3442,-1.351,-1.3171,-1.2694,-2.4196,-2.4206,0.0,0.0,0.0,0.0,0.0,0.0,0.0,0.0,0.0,0.0,0.0,0.0,0.0,0.0,0.0,-2.4022,0.0,0.0,-2.3184,-2.2915,0.0,-2.2677,-2.2211,-2.2211,-2.2076,0.0,-2.1807,0.0,0.0,0.0,0.0,0.0,-2.2666,0.0,-2.3764,0.0,0.0,0.0,0.0,0.0,0.0,-2.3816,-2.3367,-2.2394,-2.1418,-2.0791,-2.0249,0.0,-1.9271,0.0,0.0,0.0,0.0,0.0,0.0,0.0,0.0,0.0,0.0,0.0,0.0,0.0,-1.5738,0.0,-1.5694,0.0,0.0,0.0,0.0,0.0,0.0,0.0,0.0,0.0,0.0,0.0,0.0,0.0,0.0,0.0,0.0,0.0,0.0,0.0,0.0,-1.5867,-1.5345,-1.5241,-1.4823,-1.4071,-1.4071,-1.3937,-1.3655,-1.354,-1.3737,-1.4088,-1.4088,-1.4166,-1.4237,-1.4398,-1.4566,-1.4824,-1.4915,-1.5082,-1.5257,-1.5257,-1.5347,-1.5347,-1.5166,-1.4908,-1.458,-1.4535,-1.4616,-1.4545,-2.4368,-2.4206,0.0,0.0,0.0,0.0,0.0,0.0,0.0,0.0,0.0,0.0,-2.5057,-2.5378,0.0,0.0,-2.5233,-2.4954,0.0,0.0,-2.367,0.0,0.0,0.0,0.0,-2.2625,-2.2459,0.0,0.0,0.0,0.0,0.0,0.0,0.0,0.0,-2.2822,-2.3401,0.0,0.0,-2.3919,-2.4364,-2.4353,-2.4095,-2.4416,-2.409,-2.3367,-2.2394,-2.1686,-2.1051,-2.0701,-2.0076,0.0,-1.9288,0.0,0.0,0.0,0.0,0.0,-1.7354,0.0,0.0,0.0,0.0,0.0,0.0,0.0,0.0,0.0,0.0,0.0,0.0,0.0,0.0,0.0,0.0,0.0,0.0,0.0,0.0,0.0,0.0,0.0,0.0,0.0,0.0,-1.6246,-1.5951,-1.559,-1.4856,-1.4843,-1.471,-1.4409,-1.4482,-1.4382,-1.4088,-1.4166,-1.4166,-1.4159,-1.425,-1.4328,-1.4482,-1.4566,-1.4741,-1.509,-1.5173,-1.5257,-1.5431,-1.5431,-1.5431,-1.5438,-1.5526,-1.5562,-1.5485,-1.5481,-1.577,-1.612,-2.4786,-2.4368,0.0,0.0,0.0,0.0,0.0,0.0,0.0,0.0,0.0,0.0,0.0,0.0,0.0,0.0,0.0,-2.5223,-2.5192,0.0,-2.367,0.0,0.0,-2.3432,0.0,0.0,0.0,0.0,0.0,0.0,0.0,0.0,0.0,0.0,0.0,-2.3008,-2.3857,-2.3867,-2.3877,-2.3919,-2.4364,-2.4444,-2.4519,0.0,-2.4454,-2.4358,-2.3367,0.0,0.0,-2.1686,-2.1248,0.0,0.0,0.0,0.0,0.0,0.0,0.0,0.0,0.0,0.0,-1.644,0.0,0.0,0.0,0.0,-1.5526,0.0,0.0,0.0,0.0,0.0,-1.5533,-1.5862,0.0,0.0,0.0,0.0,0.0,0.0,0.0,0.0,0.0,0.0,0.0,-1.6148,-1.5659,-1.5096,-1.4549,-1.4536,-1.4402,-1.4108,-1.4369,-1.4382,-1.4088,-1.4321,-1.4398,-1.4398,-1.4566,-1.465,-1.4734,-1.4999,-1.509,-1.509,-1.5347,-1.5431,-1.5431,-1.5431,-1.5431,-1.546,-1.5782,-1.5899,-1.5935,-1.6228,-1.655,-1.6843,-2.4368,-2.4368,0.0,0.0,0.0,0.0,0.0,-2.4995,0.0,0.0,0.0,0.0,0.0,-2.7376,-2.7231,0.0,0.0,-2.6196,-2.5285,-2.5213,0.0,0.0,0.0,-2.4643,0.0,0.0,0.0,0.0,0.0,0.0,0.0,0.0,0.0,0.0,0.0,-2.2152,0.0,0.0,0.0,0.0,0.0,-2.3941,-2.4292,0.0,0.0,-2.4454,-2.4013,-2.3474,0.0,-2.2217,-2.1606,-2.1078,-2.0808,-2.0543,-2.0067,-1.9346,-1.8799,0.0,0.0,0.0,-1.7091,-1.6769,0.0,0.0,0.0,0.0,0.0,0.0,0.0,0.0,0.0,0.0,-1.5533,-1.5862,-1.5913,0.0,0.0,0.0,0.0,0.0,0.0,0.0,0.0,0.0,0.0,-1.5847,-1.5348,-1.487,0.0,-1.4314,-1.4188,-1.4088,-1.4182,-1.4188,-1.4088,-1.4321,-1.4398,-1.4398,-1.4566,-1.4824,-1.4999,-1.509,-1.5173,-1.5257,-1.5347,-1.5431,-1.5431,-1.5431,-1.5431,-1.546,-1.5789,-1.6038,-1.6228,-1.633,-1.6572,-1.6857,-2.411,0.0,0.0,0.0,0.0,0.0,0.0,0.0,0.0,0.0,-2.7034,0.0,-2.8048,0.0,-2.8162,0.0,-2.7489,-2.7055,-2.602,-2.5906,0.0,-2.4581,-2.5254,0.0,0.0,0.0,0.0,0.0,0.0,-2.3103,0.0,0.0,0.0,0.0,0.0,0.0,-2.2291,0.0,-2.2764,0.0,0.0,-2.3543,0.0,0.0,-2.4282,-2.4368,0.0,-2.3667,-2.3115,-2.2853,-2.2413,-2.1802,-2.1526,-2.1344,-2.0959,-1.9881,-1.9256,-1.8807,-1.7827,-1.7442,0.0,-1.6938,-1.6696,0.0,-1.6396,0.0,0.0,0.0,0.0,0.0,0.0,0.0,0.0,-1.6023,-1.5987,-1.5877,0.0,-1.584,0.0,0.0,0.0,0.0,0.0,0.0,-1.623,-1.5715,-1.5234,-1.4774,0.0,0.0,-1.4213,-1.4242,-1.422,-1.4298,-1.4406,-1.4544,-1.4713,-1.4817,-1.4881,-1.4999,-1.5173,-1.5173,-1.5257,-1.5431,-1.5431,-1.5431,-1.5431,-1.5431,-1.5431,-1.5474,-1.5906,-1.6199,-1.6382,-1.6499,-1.6748,-1.7026,-2.3917,0.0,0.0,0.0,-2.4846,0.0,0.0,0.0,-2.6568,0.0,-2.7417,-2.7821,-2.7438,-2.8556,-2.898,-2.8069,-2.7997,-2.7779,-2.7293,-2.6455,0.0,0.0,-2.4949,-2.4861,-2.3929,0.0,0.0,0.0,0.0,0.0,0.0,0.0,0.0,0.0,-2.1859,0.0,-2.2493,-2.2986,-2.3207,-2.3227,-2.3227,-2.3468,-2.3754,-2.3754,-2.3937,-2.412,-2.3841,-2.3754,-2.3754,-2.358,-2.3503,-2.3416,-2.3144,-2.3135,-2.2872,-2.1872,-2.0962,-1.996,-1.8972,-1.8064,-1.726,-1.6952,0.0,0.0,0.0,0.0,-1.6455,0.0,0.0,0.0,0.0,0.0,0.0,-1.6345,-1.614,-1.5826,0.0,0.0,0.0,0.0,0.0,0.0,0.0,-1.6188,-1.6027,-1.5612,-1.5137,0.0,0.0,0.0,-1.4484,-1.4509,-1.4491,-1.4555,-1.4936,-1.5071,-1.524,-1.554,-1.5493,-1.5431,-1.5431,-1.5431,-1.5431,-1.5431,-1.5431,-1.5431,-1.5431,-1.5431,-1.5438,-1.5511,-1.6126,-1.6389,-1.6455,-1.6762,-1.7069,-1.7326,-2.358,-2.3937,-2.4444,0.0,-2.4825,-2.5057,0.0,0.0,0.0,0.0,-2.8286,-2.8659,-2.9228,-2.9611,-2.958,-2.9001,-2.8949,0.0,0.0,0.0,0.0,-2.4866,-2.5521,-2.5268,-2.3882,-2.4398,-2.4409,-2.3851,0.0,0.0,-2.2594,0.0,0.0,0.0,0.0,0.0,-2.1391,-2.231,-2.2867,-2.3152,-2.3152,-2.3308,0.0,0.0,-2.3406,-2.3677,-2.359,-2.359,-2.3503,-2.3319,-2.3232,-2.3232,-2.3135,-2.3135,-2.2775,-2.1051,-2.0421,-1.9869,-1.8149,-1.7512,-1.7311,-1.7223,-1.7026,-1.6835,0.0,0.0,0.0,0.0,0.0,0.0,0.0,0.0,0.0,0.0,-1.6462,-1.614,0.0,0.0,0.0,-1.5884,0.0,0.0,0.0,-1.5525,-1.5283,-1.5303,-1.4863,0.0,0.0,0.0,0.0,-1.5037,-1.5033,-1.5033,-1.5109,-1.5071,-1.5125,-1.5211,-1.5384,-1.5431,-1.5431,-1.5431,-1.5431,-1.5431,-1.5431,-1.5431,-1.5431,-1.5431,-1.557,-1.5833,-1.6221,-1.666,-1.7091,-1.7179,-1.726,-1.7326,-2.3565,0.0,0.0,-2.5195,0.0,0.0,-2.6635,0.0,0.0,-2.8243,-2.8328,0.0,-2.9147,-2.9444,-2.9462,-2.9207,-2.9003,0.0,-2.7908,0.0,0.0,-2.5331,-2.5371,-2.4976,-2.3861,-2.4102,0.0,-2.3841,0.0,0.0,-2.2639,0.0,0.0,0.0,0.0,-2.1253,0.0,-2.2051,-2.2754,-2.3135,-2.3135,0.0,0.0,-2.3144,-2.3232,-2.3319,-2.3319,-2.3319,-2.3319,-2.3135,-2.3135,-2.3135,-2.3135,-2.3135,-2.2687,-2.0773,-2.0232,-1.9778,-1.7878,-1.7326,-1.7326,-1.7326,-1.7194,-1.7062,-1.7062,-1.6916,-1.6784,0.0,0.0,0.0,0.0,0.0,0.0,0.0,0.0,0.0,0.0,0.0,0.0,0.0,-1.5483,0.0,0.0,0.0,-1.506,-1.5184,0.0,0.0,0.0,0.0,0.0,-1.5413,-1.5493,-1.5651,-1.5786,-1.5734,-1.5662,-1.5662,-1.5616,-1.557,-1.5431,-1.5431,-1.5431,-1.5431,-1.5431,-1.5431,-1.5431,-1.5431,-1.5621,-1.5965,-1.6404,-1.6887,-1.7326,-1.7326,-1.7326,-1.7333,-2.3857,0.0,0.0,0.0,0.0,0.0,0.0,-2.6991,0.0,-2.8208,0.0,-2.8177,-2.832,-2.8783,-2.9112,-2.9051,0.0,-2.8438,-2.8317,-2.7231,-2.6355,-2.5759,-2.4846,-2.4206,-2.3844,-2.3647,-2.3617,0.0,0.0,0.0,0.0,0.0,0.0,0.0,0.0,0.0,0.0,-2.2109,-2.2676,0.0,-2.3115,-2.3135,-2.3135,-2.3135,-2.3135,-2.3135,-2.3135,-2.3135,-2.3135,-2.3135,-2.3135,-2.3135,-2.3135,-2.3135,-2.2775,-2.0962,-2.0322,-1.9778,-1.7963,-1.7419,-1.7326,-1.7326,-1.7326,-1.7326,-1.7326,-1.7326,-1.7326,-1.7326,-1.7106,-1.7004,0.0,0.0,0.0,0.0,0.0,0.0,0.0,0.0,0.0,0.0,0.0,0.0,0.0,0.0,0.0,0.0,0.0,0.0,0.0,0.0,0.0,-1.5842,-1.5931,0.0,-1.6591,0.0,-1.6367,-1.6367,-1.606,-1.5767,-1.5489,-1.5452,-1.5431,-1.5431,-1.5431,-1.5452,-1.5496,-1.5496,-1.5709,-1.6096,-1.6689,-1.7084,-1.7326,-1.7326,-1.7232,-1.7239,0.0,0.0,0.0,0.0,0.0,-2.7153,-2.7937,-2.8406,-2.8729,-2.888,-2.9232,-2.9313,-2.8941,-2.9041,-2.8991,-2.8629,-2.8528,0.0,0.0,0.0,0.0,-2.559,-2.4291,-2.3635,-2.3771,-2.2349,-2.2168,0.0,0.0,0.0,0.0,0.0,0.0,0.0,0.0,0.0,-2.1777,-2.1934,0.0,-2.2656,-2.2998,-2.3135,-2.3135,-2.3135,-2.3135,-2.3135,-2.3135,-2.3135,-2.3135,-2.3135,-2.3135,-2.3135,-2.3135,-2.3135,-2.2872,-2.1784,-2.0872,-1.996,-1.888,-1.7971,-1.7326,-1.7326,-1.7326,-1.7326,-1.7326,-1.7326,-1.7326,-1.7326,-1.7282,-1.726,-1.7318,0.0,0.0,0.0,0.0,0.0,0.0,0.0,0.0,0.0,0.0,-1.5095,0.0,0.0,0.0,0.0,0.0,0.0,0.0,0.0,0.0,0.0,-1.6279,0.0,0.0,0.0,-1.6367,-1.6367,-1.606,-1.5884,-1.5826,-1.5555,-1.5431,-1.5431,-1.5431,-1.5584,-1.5833,-1.5833,-1.617,-1.6726,-1.7099,-1.7282,-1.7326,-1.7326,-1.7153,-1.7073,0.0,0.0,0.0,0.0,0.0,0.0,0.0,-2.9065,0.0,-2.8903,-2.8804,-2.8645,-2.8301,-2.8356,-2.8301,-2.8093,-2.7865,-2.7558,-2.7141,-2.6685,-2.6043,-2.5297,-2.3672,-2.2768,-2.2725,-2.1383,-2.1262,-2.2413,0.0,0.0,0.0,0.0,0.0,0.0,0.0,-2.1377,0.0,0.0,0.0,-2.2852,-2.3057,-2.3135,-2.3135,-2.3135,-2.3135,-2.3135,-2.3135,-2.3135,-2.3135,-2.3135,-2.3135,-2.3135,-2.3135,-2.3135,-2.296,-2.1971,-2.0962,-1.996,-1.9063,-1.8056,-1.7326,-1.7326,-1.7326,-1.7326,-1.7326,-1.7326,-1.7326,-1.7326,-1.7326,-1.7239,-1.7153,-1.6965,0.0,0.0,0.0,0.0,0.0,0.0,0.0,0.0,0.0,0.0,0.0,0.0,0.0,0.0,0.0,0.0,0.0,0.0,0.0,0.0,0.0,0.0,0.0,0.0,0.0,-1.6616,-1.6301,-1.6148,-1.6133,-1.565,-1.5606,-1.5906,-1.5752,-1.5767,-1.5928,-1.6082,-1.6426,-1.6887,-1.7208,-1.7326,-1.7326,-1.7326,-1.7153,-1.6979,0.0,-2.6045,0.0,0.0,-2.7695,0.0,-2.8428,-2.9355,-2.978,-2.878,-2.8241,-2.7839,-2.7535,-2.7574,-2.7588,-2.7412,-2.708,-2.6846,-2.6748,-2.5906,-2.5228,-2.4784,-2.2888,-2.176,-2.1823,-2.0775,-2.0762,0.0,0.0,0.0,0.0,0.0,0.0,0.0,0.0,0.0,0.0,0.0,-2.2402,-2.3018,-2.3105,-2.3135,-2.3135,-2.3135,-2.3135,-2.3135,-2.3135,-2.3135,-2.3135,-2.3135,-2.3135,-2.3135,-2.3135,-2.3135,-2.296,-2.2236,-2.1141,-2.0051,-1.933,-1.8241,-1.7326,-1.7326,-1.7326,-1.7326,-1.7326,-1.7326,-1.7333,-1.7239,-1.7239,-1.7052,-1.6972,-1.669,0.0,0.0,0.0,0.0,0.0,0.0,0.0,0.0,0.0,0.0,-1.4462,0.0,0.0,0.0,0.0,0.0,0.0,0.0,0.0,0.0,0.0,-1.7011,-1.7326,0.0,-1.7201,0.0,-1.663,-1.6477,-1.6455,-1.5884,-1.5899,-1.636,-1.6118,-1.6052,-1.614,-1.6448,-1.6726,-1.6982,-1.723,-1.7326,-1.7326,-1.7239,-1.7059,-1.6878,0.0,0.0,0.0,0.0,0.0,0.0,0.0,-2.9297,-2.9443,-2.8926,-2.8828,-2.8496,-2.78,-2.7646,-2.7353,-2.6572,-2.6465,-2.6279,-2.5879,-2.4852,-2.411,-2.379,-2.1428,-2.0752,-2.2236,-2.0553,-2.0551,0.0,0.0,-2.1641,0.0,0.0,0.0,0.0,0.0,0.0,0.0,-2.2139,-2.25,-2.2607,-2.2988,-2.3135,-2.3135,-2.3135,-2.3135,-2.3135,-2.3135,-2.3135,-2.3135,-2.3135,-2.3135,-2.3135,-2.3135,-2.3135,-2.3047,-2.296,-2.1686,-2.0141,-2.0051,-1.8688,-1.7326,-1.7326,-1.7326,-1.7326,-1.7326,-1.7326,-1.7239,-1.7073,-1.6871,-1.6683,-1.6683,-1.6407,-1.6135,0.0,0.0,0.0,0.0,0.0,0.0,-1.5113,0.0,0.0,0.0,-1.4537,0.0,0.0,0.0,0.0,0.0,0.0,0.0,-1.636,0.0,-1.7011,-1.7326,-1.7326,-1.7311,-1.7282,-1.696,-1.6813,-1.6799,-1.644,-1.6309,-1.6367,-1.6338,-1.6491,-1.6791,-1.7106,-1.7252,-1.7289,-1.7318,-1.7326,-1.7232,-1.7066,-1.6878,-1.6588,0.0,0.0,0.0,0.0,0.0,0.0,0.0,-2.8906,-2.8935,-2.8252,-2.8603,-2.8603,-2.7754,-2.7432,-2.6934,-2.6074,-2.5245,-2.4513,-2.4098,-2.3075,-2.2407,-2.2026,-2.0434,-1.9817,-2.0196,-1.9771,-2.006,0.0,0.0,0.0,0.0,0.0,0.0,0.0,0.0,-2.1924,-2.2021,-2.2363,-2.2656,-2.29,-2.3076,-2.3135,-2.3135,-2.3135,-2.3135,-2.3135,-2.3135,-2.3135,-2.3135,-2.3135,-2.3135,-2.3135,-2.3135,-2.3135,-2.296,-2.2422,-2.1239,-2.0051,-1.9513,-1.8326,-1.7326,-1.7326,-1.7326,-1.7188,-1.6907,-1.7015,-1.7008,-1.6536,-1.6369,-1.6407,-1.6407,-1.6123,-1.5886,0.0,0.0,0.0,0.0,0.0,0.0,0.0,0.0,-1.4803,0.0,0.0,0.0,0.0,0.0,0.0,0.0,0.0,0.0,-1.6638,0.0,-1.6813,-1.7326,-1.7326,-1.7326,-1.7326,-1.7004,-1.6952,-1.7121,-1.6608,-1.6477,-1.666,-1.666,-1.6843,-1.7135,-1.7069,-1.7157,-1.7326,-1.7326,-1.7239,-1.7066,-1.7073,-1.669,-1.6312,-2.7803,0.0,-2.8018,0.0,-2.8564,-2.8476,-2.8476,-2.8623,-2.8476,-2.7754,-2.8184,-2.8223,-2.7383,-2.7012,-2.6484,-2.5615,-2.4352,-2.3413,-2.3017,-2.1735,-2.0906,-2.0441,-1.9493,0.0,-1.8796,-1.9445,-2.0004,-2.0436,-2.1976,0.0,0.0,0.0,0.0,0.0,-2.206,-2.2353,-2.2519,-2.2646,-2.2861,-2.3135,-2.3135,-2.3135,-2.3135,-2.3135,-2.3135,-2.3135,-2.3135,-2.3135,-2.3135,-2.3135,-2.3135,-2.3135,-2.3135,-2.3135,-2.296,-2.1971,-2.0962,-1.996,-1.9063,-1.8056,-1.7304,-1.7216,-1.7186,-1.7014,-1.6526,-1.6543,-1.6565,-1.6063,-1.603,-1.6021,-1.6109,-1.5927,-1.5798,-1.5718,0.0,0.0,0.0,0.0,0.0,0.0,-1.509,-1.4816,-1.4429,0.0,0.0,0.0,0.0,0.0,0.0,0.0,0.0,0.0,0.0,0.0,0.0,-1.7326,-1.7326,-1.7326,-1.7099,-1.7113,-1.7311,-1.6857,-1.6777,-1.6996,-1.6996,-1.7121,-1.7311,-1.7091,-1.7128,-1.7326,-1.7239,-1.716,-1.6979,-1.6791,-1.6508,-1.6224,-2.8115,-2.8281,-2.8555,-2.9404,-2.9199,-2.8916,-2.8916,-2.8564,-2.8144,-2.7725,-2.7676,-2.7353,-2.6494,-2.6396,-2.6035,-2.5156,-2.4173,-2.3413,-2.3017,-2.1075,-1.9766,0.0,0.0,-1.813,-1.8804,-1.9687,-2.0508,-2.1117,0.0,0.0,-2.1904,0.0,-2.25,-2.2519,-2.2939,-2.2891,-2.2539,-2.2959,-2.3135,-2.3135,-2.3135,-2.3135,-2.3135,-2.3135,-2.3135,-2.3135,-2.3135,-2.3135,-2.3135,-2.3135,-2.3135,-2.3135,-2.3135,-2.3135,-2.296,-2.1971,-2.0962,-1.996,-1.9063,-1.8056,-1.7252,-1.6938,-1.6857,-1.6777,-1.6106,-1.6034,-1.5949,-1.581,-1.578,-1.5769,-1.5778,-1.5832,-1.5732,-1.5444,0.0,0.0,0.0,0.0,0.0,0.0,-1.497,-1.4736,-1.4148,0.0,0.0,0.0,0.0,0.0,0.0,0.0,0.0,-1.6374,-1.6682,0.0,-1.7326,-1.7326,-1.7326,-1.7326,-1.7326,-1.7326,-1.7326,-1.7318,-1.7318,-1.7326,-1.7326,-1.7326,-1.7326,-1.7326,-1.7326,-1.7232,-1.7066,-1.6979,-1.6979,-1.6414,-1.6224,-1.613,-2.7754,-2.7627,-2.7695,-2.8545,-2.835,-2.8066,-2.8066,-2.7949,-2.7607,-2.6885,-2.6797,-2.6582,-2.6006,-2.6211,-2.5918,0.0,-2.307,-2.1828,0.0,-1.9207,-1.8048,-1.7943,-1.7668,-1.7522,-1.7792,-1.8696,-1.9637,-2.0517,0.0,0.0,0.0,-2.2744,-2.2783,-2.2529,-2.2949,-2.3066,-2.2949,-2.3086,-2.3135,-2.3135,-2.3135,-2.3135,-2.3135,-2.3135,-2.3135,-2.3135,-2.3135,-2.3135,-2.3096,-2.2812,-2.29,-2.3086,-2.2803,-2.2457,-2.1915,-2.0651,-1.9774,-1.9063,-1.8056,-1.7442,-1.6982,-1.6879,-1.6689,-1.644,-1.5864,-1.5458,-1.5341,-1.5487,-1.549,-1.5577,-1.5778,-1.5832,-1.5798,-1.5705,-1.5765,0.0,0.0,0.0,0.0,0.0,-1.4963,-1.4736,0.0,-1.4525,0.0,0.0,0.0,0.0,0.0,0.0,0.0,0.0,-1.6799,0.0,-1.7326,-1.7326,-1.7326,-1.7326,-1.7326,-1.7326,-1.7326,-1.7326,-1.7326,-1.7326,-1.7326,-1.7326,-1.7333,-1.7153,-1.7066,-1.7066,-1.6777,-1.6595,-1.6414,-1.6224,-1.6123,-1.5927,-2.7373,-2.7207,-2.7187,-2.7715,-2.7598,-2.7422,-2.7422,-2.7422,-2.7178,-2.6484,-2.6387,-2.6221,-2.5781,-2.583,0.0,-2.4502,-2.2981,-2.1506,-2.0283,-1.8688,-1.7692,-1.7326,-1.7326,-1.7326,-1.7326,0.0,0.0,-2.0232,-2.1596,-2.2378,-2.2754,-2.3018,-2.2998,-2.2754,-2.3018,-2.3135,-2.3135,-2.3135,-2.3135,-2.3135,-2.3135,-2.3135,-2.3135,-2.3135,-2.3135,-2.3135,-2.3135,-2.3135,-2.3076,-2.2656,-2.2793,-2.3037,-2.2461,-2.195,-2.1244,-2.0017,-1.9133,-1.8383,-1.7271,-1.6821,-1.6645,-1.6535,-1.6345,-1.5937,-1.5276,-1.4949,-1.4783,-1.5201,-1.5329,-1.5449,-1.5758,-1.5832,-1.5832,-1.5832,-1.5832,-1.5792,-1.5678,0.0,0.0,0.0,0.0,0.0,0.0,-1.4696,-1.498,0.0,0.0,0.0,0.0,0.0,0.0,-1.6667,-1.6791,0.0,-1.7326,-1.7326,-1.7326,-1.7326,-1.7326,-1.7326,-1.7326,-1.7326,-1.7326,-1.7326,-1.7326,-1.7239,-1.7153,-1.7073,-1.6979,-1.6784,-1.6595,-1.6312,-1.6224,-1.6123,-1.5927,-1.5832,-2.6924,-2.6924,0.0,0.0,-2.6973,0.0,-2.6973,-2.6973,-2.6816,-2.6396,-2.6338,-2.6191,-2.5781,-2.5361,-2.4922,-2.4453,0.0,0.0,0.0,-1.933,-1.8427,-1.7419,-1.7326,-1.7326,-1.7326,-1.8241,-1.9147,-2.0232,-2.2138,-2.3135,-2.3135,-2.3135,-2.3135,-2.3135,-2.3135,-2.3135,-2.3135,-2.3105,-2.3096,-2.3096,-2.3066,-2.3057,-2.3057,-2.3086,-2.3096,-2.3096,-2.3125,-2.3135,-2.3076,-2.2656,-2.2773,-2.2959,-2.2139,-2.1541,-2.0889,-2.0,-1.9024,-1.7982,-1.6714,-1.6352,-1.6272,-1.5987,-1.5727,-1.5369,-1.4578,-1.4412,-1.4491,-1.4952,-1.5156,-1.5416,-1.5725,-1.5832,-1.5832,-1.5832,-1.5812,-1.5705,-1.5438,0.0,0.0,0.0,0.0,0.0,0.0,-1.479,-1.4856,0.0,0.0,0.0,0.0,0.0,-1.674,-1.6411,-1.6718,-1.7026,-1.7326,-1.7326,-1.7326,-1.7326,-1.7326,-1.7326,-1.7326,-1.7326,-1.7333,-1.7232,-1.7232,-1.7153,-1.6979,-1.6979,-1.6784,-1.6588,-1.6312,-1.613,-1.6123,-1.5927,-1.5832,-1.5832,0.0,0.0,-2.6143,-2.6475,-2.6533,-2.6533,-2.6533,-2.6533,-2.6387,-2.5947,-2.5889,-2.585,-2.5752,-2.5644,-2.5264,-2.4482,-2.3166,-2.2126,-2.1365,-1.9786,-1.8696,-1.8427,-1.7692,-1.7326,-1.7326,-1.7512,-1.8511,-2.0232,-2.2138,-2.3135,-2.3135,-2.3135,-2.3135,-2.3135,-2.3135,-2.3135,-2.3115,-2.2793,-2.2656,-2.2637,-2.2314,-2.2178,-2.2217,-2.2539,-2.2656,-2.2705,-2.3027,-2.3135,-2.3076,-2.2656,-2.2578,-2.2568,-2.2051,-2.1258,-2.0386,-1.9514,-1.8564,-1.7595,-1.6647,-1.6111,-1.5742,-1.567,-1.5291,-1.4895,-1.4812,-1.4576,-1.4552,-1.5214,-1.5208,-1.5234,-1.5725,-1.5832,-1.5832,-1.5832,-1.5645,-1.5478,-1.5404,-1.501,0.0,0.0,-1.4783,-1.4843,-1.4549,-1.479,-1.503,0.0,0.0,0.0,0.0,-1.6551,-1.6899,-1.6748,-1.7055,-1.7252,-1.7326,-1.7326,-1.7326,-1.7326,-1.7326,-1.7326,-1.7326,-1.7326,-1.7246,-1.7066,-1.7066,-1.6972,-1.6683,-1.6501,-1.6319,-1.6312,-1.6021,-1.5927,-1.5927,-1.5825,-1.5832,-1.5832,-2.5742,-2.5742,-2.581,-2.6055,-2.6094,-2.6094,-2.6094,-2.6094,-2.6006,-2.5762,-2.5742,-2.5742,-2.5742,-2.5557,-2.5156,-2.4473,-2.3731,-2.2784,-2.1731,-2.0701,-1.9695,-1.888,-1.8241,-1.7785,-1.7333,-1.7785,-1.8972,-2.0872,-2.2413,-2.3135,-2.3135,-2.3135,-2.3135,-2.3135,-2.2939,-2.2852,-2.2822,-2.2402,-2.2227,-2.2207,-2.1982,-2.1885,-2.1904,-2.2139,-2.2344,-2.2539,-2.2773,-2.2969,-2.3076,-2.2656,-2.251,-2.2441,-2.2021,-2.1307,-2.0384,-1.9106,-1.8099,-1.7055,-1.5965,-1.5376,-1.517,-1.5085,-1.4775,-1.4565,-1.4715,-1.4467,-1.4494,-1.5211,-1.5164,-1.5137,-1.5718,-1.5832,-1.5785,-1.5651,-1.5498,-1.5304,-1.5037,-1.4723,0.0,-1.4522,-1.4783,-1.495,-1.4923,-1.5184,-1.5371,-1.5391,-1.5548,0.0,-1.595,-1.6521,-1.6822,-1.6865,-1.7165,-1.7326,-1.7326,-1.7326,-1.7326,-1.7326,-1.7326,-1.7239,-1.7153,-1.7153,-1.7066,-1.6784,-1.6784,-1.669,-1.6407,-1.6218,-1.613,-1.6028,-1.5832,-1.5832,-1.5832,-1.5832,-1.5832,-1.5832,-2.5742,-2.5742,-2.5742,-2.5742,-2.5742,-2.5742,-2.5742,-2.5742,-2.5742,-2.5742,-2.5742,-2.5742,-2.5742,-2.54,-2.4971,-2.4463,-2.4414,-2.3679,-2.2017,-2.1784,-2.097,-1.933,-1.8972,-1.8519,-1.7785,-1.8696,-2.0034,-2.1603,-2.2591,-2.3018,-2.2949,-2.2949,-2.2949,-2.293,-2.2578,-2.2412,-2.2393,-2.1973,-2.1787,-2.1777,-2.1709,-2.1689,-2.1699,-2.1768,-2.2012,-2.2324,-2.2393,-2.2685,-2.2978,-2.2464,-2.2327,-2.2249,-2.1831,-2.1231,-2.0453,-1.878,-1.7721,-1.676,-1.514,-1.465,-1.465,-1.4398,-1.4314,-1.4409,-1.4502,-1.4362,-1.4402,-1.5277,-1.5231,-1.5197,-1.5732,-1.5792,-1.5698,-1.5491,-1.5351,-1.5104,-1.4649,0.0,-1.4522,-1.4522,-1.4823,-1.5124,-1.5371,-1.5618,-1.5678,-1.5478,-1.5846,-1.606,0.0,-1.6261,-1.6657,-1.6846,-1.7101,-1.7239,-1.7326,-1.7326,-1.7326,-1.7326,-1.7239,-1.7153,-1.6979,-1.6979,-1.6784,-1.6494,-1.6494,-1.64,-1.613,-1.613,-1.6028,-1.5832,-1.5832,-1.5832,-1.5832,-1.5832,-1.5832,-1.5832,-2.5742,-2.5742,-2.5742,-2.5742,-2.5742,-2.5742,-2.5742,-2.5742,-2.5742,-2.5742,-2.5742,-2.5742,-2.5742,-2.5674,-2.5303,-2.4482,-2.4414,-2.3962,-2.292,-2.2148,-2.1606,-2.1239,-1.9704,-1.9063,-1.9778,-2.0692,-2.1264,-2.12,-2.2169,-2.2432,-2.208,-2.208,-2.208,-2.208,-2.2012,-2.1982,-2.1953,-2.1514,-2.1338,-2.1299,-2.0928,-2.0771,-2.081,-2.1191,-2.1377,-2.1475,-2.1855,-2.2246,-2.2454,-2.1839,-2.1694,-2.1534,-2.0957,-2.0467,-1.979,-1.8629,-1.8227,-1.7571,-1.5318,-1.4566,-1.4398,-1.4166,-1.4166,-1.4307,-1.477,-1.4663,-1.4703,-1.5585,-1.5531,-1.5431,-1.5765,-1.5625,-1.5531,-1.5732,-1.5137,-1.471,-1.487,0.0,-1.4522,-1.4522,-1.4997,-1.5344,-1.5391,-1.5438,-1.5545,-1.5745,-1.5578,-1.5744,-1.6142,-1.6197,-1.6386,-1.6612,-1.6943,-1.7153,-1.7326,-1.7326,-1.7326,-1.7326,-1.7153,-1.7073,-1.6979,-1.6784,-1.6494,-1.6218,-1.6218,-1.6123,-1.5832,-1.5832,-1.5832,-1.5832,-1.5832,-1.5832,-1.5832,-1.5832,-1.5832,-1.5832,-2.5742,-2.5742,-2.5742,-2.5742,-2.5742,-2.5742,-2.5742,-2.5742,-2.5742,-2.5742,-2.5742,-2.5742,-2.5742,-2.5518,-2.5117,-2.4473,-2.4209,-2.3809,-2.3184,-2.2687,-2.2236,-2.1695,-2.0872,-2.0602,-2.0962,-2.1219,-2.1553,-2.1807,-2.2107,-2.207,-2.1885,-2.1885,-2.1885,-2.1875,-2.1641,-2.1533,-2.1504,-2.1064,-2.0869,-2.0859,-2.0644,-2.0566,-2.044,-2.0643,-2.0787,-2.0928,-2.113,-2.162,-2.2016,-2.1492,-2.1339,-2.1272,-2.078,-2.0203,-1.9548,-1.855,-1.7577,-1.6527,-1.5394,-1.4657,-1.4243,-1.4082,-1.4208,-1.4436,-1.4863,-1.4856,-1.4963,-1.5678,-1.5598,-1.5484,-1.5772,-1.5591,-1.5391,-1.5364,-1.489,0.0,0.0,-1.4603,-1.4636,-1.4957,-1.5231,-1.5458,-1.5611,-1.5631,-1.5685,-1.5818,-1.5705,-1.5685,-1.5927,-1.6021,-1.6123,-1.6407,-1.6595,-1.6871,-1.6958,-1.6958,-1.6872,-1.6608,-1.6699,-1.6605,-1.6364,-1.6337,-1.6218,-1.6021,-1.6021,-1.5927,-1.5832,-1.5832,-1.5832,-1.5832,-1.5832,-1.5832,-1.5832,-1.5832,-1.5832,-1.5832,-2.5742,-2.5742,-2.5742,-2.5742,-2.5742,-2.5742,-2.5742,-2.5742,-2.5742,-2.5742,-2.5644,-2.5586,-2.5586,-2.5185,-2.4746,-2.4307,-2.3975,-2.3603,-2.3164,-2.3135,-2.2775,-2.2059,-2.1966,-2.1734,-2.1557,-2.1346,-2.1618,-2.2217,-2.1894,-2.168,-2.1582,-2.1582,-2.1582,-2.1562,-2.123,-2.1074,-2.1055,-2.0713,-2.0566,-2.0566,-2.0566,-2.0489,-2.0342,-2.0342,-2.0466,-2.0585,-2.0585,-2.1072,-2.155,-2.103,-2.0955,-2.0882,-2.0476,-1.9968,-1.939,-1.8718,-1.7334,-1.5966,-1.5718,-1.5235,-1.4762,-1.4825,-1.5021,-1.5294,-1.5679,-1.577,-1.5833,-1.6094,-1.6019,-1.5844,-1.5785,-1.5538,-1.5264,-1.5177,0.0,0.0,0.0,-1.4723,-1.489,-1.5344,-1.5458,-1.5585,-1.5805,-1.5832,-1.5832,-1.5832,-1.5832,-1.5832,-1.5832,-1.5832,-1.5927,-1.6123,-1.64,-1.6588,-1.6588,-1.6588,-1.6462,-1.6232,-1.6383,-1.6282,-1.5889,-1.6021,-1.6028,-1.5832,-1.5832,-1.5832,-1.5832,-1.5832,-1.5832,-1.5832,-1.5832,-1.5832,-1.5832,-1.5832,-1.5832,-1.5832,-2.5742,-2.5742,-2.5742,-2.5742,-2.5742,-2.5742,-2.5742,-2.5742,-2.5742,-2.5742,-2.5371,-2.5117,-2.5117,-2.4727,-2.4297,-2.3877,-2.3809,-2.3603,-2.3164,-2.3135,-2.3057,-2.296,-2.2678,-2.2036,-2.1154,-2.1625,-2.1646,-2.1328,-2.1299,-2.1074,-2.0664,-2.0664,-2.0664,-2.0664,-2.0625,-2.0615,-2.0605,-2.0576,-2.0566,-2.0566,-2.0566,-2.0566,-2.0566,-2.0566,-2.0586,-2.0615,-2.0615,-2.075,-2.0838,-2.0258,-2.0141,-2.0233,-1.9635,-1.9329,-1.9301,-1.9222,-1.8567,-1.7594,-1.6854,-1.6535,-1.6605,-1.7004,-1.7099,-1.7296,-1.7888,-1.8045,-1.7885,-1.7345,-1.7217,-1.6835,-1.6015,-1.5371,-1.5164,-1.5678,0.0,0.0,-1.5257,-1.5331,-1.5351,-1.5391,-1.5631,-1.5805,-1.5825,-1.5832,-1.5832,-1.5832,-1.5832,-1.5832,-1.5832,-1.5832,-1.5832,-1.5832,-1.6298,-1.6588,-1.6588,-1.6588,-1.6574,-1.6546,-1.6305,-1.6211,-1.619,-1.592,-1.5832,-1.5832,-1.5832,-1.5832,-1.5832,-1.5832,-1.5832,-1.5832,-1.5832,-1.5832,-1.5832,-1.5832,-1.5832,-1.5832,-2.5742,-2.5742,-2.5742,-2.5742,-2.5742,-2.5742,-2.5742,-2.5508,-2.5322,-2.5322,-2.4941,-2.4668,-2.4668,-2.4287,-2.3965,-2.3799,-2.3545,-2.332,-2.3154,-2.3135,-2.3027,-2.2764,-2.2344,-2.1952,-2.1606,-2.1535,-2.1396,-2.123,-2.0957,-2.0732,-2.0566,-2.0566,-2.0566,-2.0566,-2.0566,-2.0566,-2.0566,-2.0566,-2.0566,-2.0566,-2.0566,-2.0489,-2.0411,-2.0411,-2.0333,-2.0177,-2.002,-2.0216,-2.0339,-1.9757,-1.9746,-1.9942,-1.9439,-1.9301,-1.9301,-1.9301,-1.9054,-1.8727,-1.8399,-1.7513,-1.6778,-1.7203,-1.7451,-1.7652,-1.8152,-1.843,-1.8537,-1.8311,-1.7692,-1.7138,-1.6763,-1.581,-1.5097,-1.5498,0.0,-1.4723,-1.5311,-1.5398,-1.5464,-1.5645,-1.5758,-1.5832,-1.5832,-1.5832,-1.5832,-1.5832,-1.5832,-1.5832,-1.5832,-1.5832,-1.5832,-1.5832,-1.5839,-1.5926,-1.6109,-1.6116,-1.6021,-1.5844,-1.5934,-1.5833,-1.5665,-1.5745,-1.5832,-1.5832,-1.5832,-1.5832,-1.5832,-1.5832,-1.5832,-1.5832,-1.5832,-1.5832,-1.5832,-1.5832,-1.5832,-1.5832,-2.5742,-2.5625,-2.5566,-2.5713,-2.5508,-2.5371,-2.5508,-2.5146,-2.4863,-2.4863,-2.4482,-2.4219,-2.4219,-2.3838,-2.3584,-2.3584,-2.331,-2.3135,-2.3135,-2.3018,-2.2812,-2.2519,-2.2109,-2.1816,-2.168,-2.125,-2.1025,-2.1025,-2.0713,-2.0566,-2.0566,-2.0566,-2.0566,-2.0566,-2.0566,-2.0566,-2.0566,-2.0566,-2.0489,-2.0489,-2.0411,-2.0333,-2.0186,-2.0186,-2.002,-1.9863,-1.9715,-1.9813,-1.9928,-1.9561,-1.9583,-1.9687,-1.9393,-1.9301,-1.9301,-1.9301,-1.9301,-1.9301,-1.9301,-1.8495,-1.7779,-1.8221,-1.8581,-1.8862,-1.9246,-1.9529,-1.9621,-1.9338,-1.8703,-1.8156,-1.7878,-1.6519,-1.5487,-1.5789,-1.5075,-1.4723,-1.5311,-1.5398,-1.5504,-1.5792,-1.5832,-1.5832,-1.5832,-1.5832,-1.5832,-1.5832,-1.5832,-1.5832,-1.5832,-1.5832,-1.5832,-1.5832,-1.5631,-1.5625,-1.5825,-1.5738,-1.5591,-1.5398,-1.5691,-1.5725,-1.5538,-1.5738,-1.5832,-1.5832,-1.5832,-1.5832,-1.5832,-1.5832,-1.5832,-1.5832,-1.5832,-1.5832,-1.5832,-1.5832,-1.5832,-1.5832,-2.5742,-2.5371,-2.5205,-2.5654,-2.501,-2.456,-2.5,-2.4697,-2.4414,-2.4414,-2.4043,-2.3779,-2.3779,-2.3398,-2.3135,-2.3135,-2.3135,-2.3135,-2.3135,-2.2744,-2.2519,-2.251,-2.2109,-2.168,-2.125,-2.0791,-2.0566,-2.0566,-2.0566,-2.0566,-2.0566,-2.0566,-2.0566,-2.0566,-2.0566,-2.0566,-2.0566,-2.0411,-2.0264,-2.0264,-2.0029,-1.9863,-1.9863,-1.9863,-1.9863,-1.9863,-1.9863,-1.9794,-1.9566,-1.9566,-1.9469,-1.9301,-1.9301,-1.9301,-1.9301,-1.9301,-1.9301,-1.9301,-1.9301,-1.9613,-2.0026,-2.042,-2.0814,-2.1218,-2.164,-2.1741,-2.1454,-2.0529,-2.0348,-1.9977,-1.8972,-1.7491,-1.6536,-1.686,-1.5602,-1.473,-1.5317,-1.5398,-1.5504,-1.5792,-1.5832,-1.5832,-1.5832,-1.5832,-1.5832,-1.5832,-1.5832,-1.5832,-1.5832,-1.5832,-1.5832,-1.5832,-1.5825,-1.5825,-1.5825,-1.5545,-1.5398,-1.5398,-1.5691,-1.5832,-1.5825,-1.5832,-1.5832,-1.5832,-1.5832,-1.5832,-1.5832,-1.5832,-1.5832,-1.5832,-1.5832,-1.5832,-1.5832,-1.5832,-1.5832,-1.5832,-2.5615,-2.5371,-2.5117,-2.5244,-2.5049,-2.4814,-2.4639,-2.4248,-2.3975,-2.3975,-2.3603,-2.333,-2.333,-2.3213,-2.3135,-2.3135,-2.3135,-2.3135,-2.3135,-2.3018,-2.2822,-2.2519,-2.1816,-2.1367,-2.123,-2.0791,-2.0566,-2.0566,-2.0566,-2.0566,-2.0566,-2.0566,-2.0566,-2.0566,-2.0411,-2.042,-2.0342,-2.0098,-2.002,-2.002,-1.9942,-1.9863,-1.9863,-1.9863,-1.9863,-1.9863,-1.9715,-1.9645,-1.9566,-1.9469,-1.9381,-1.9301,-1.9301,-1.9301,-1.9301,-1.9301,-1.9301,-1.9301,-1.9301,-1.9815,-2.0365,-2.0493,-2.0814,-2.1218,-2.164,-2.1741,-2.1642,-2.1365,-2.0718,-2.0249,-1.9886,-1.8677,-1.7858,-1.8208,-1.7619,-1.7049,-1.6757,-1.6721,-1.6476,-1.5913,-1.5832,-1.5832,-1.5832,-1.5832,-1.5832,-1.5832,-1.5832,-1.5832,-1.5832,-1.5832,-1.5832,-1.5832,-1.5631,-1.5524,-1.5524,-1.5645,-1.5598,-1.5398,-1.5691,-1.5718,-1.5531,-1.5732,-1.5832,-1.5832,-1.5832,-1.5832,-1.5832,-1.5832,-1.5832,-1.5832,-1.5832,-1.5832,-1.5832,-1.5832,-1.5832,-1.5832,-2.5107,-2.4863,-2.4619,-2.4785,-2.4531,-2.4277,-2.418,-2.3809,-2.3525,-2.3525,-2.3301,-2.3135,-2.3135,-2.3135,-2.3135,-2.3135,-2.3135,-2.3135,-2.3135,-2.3135,-2.3027,-2.2773,-2.1943,-2.1416,-2.124,-2.0791,-2.0566,-2.0489,-2.0489,-2.0411,-2.0333,-2.0333,-2.0333,-2.0333,-2.0177,-2.0186,-2.0264,-1.9951,-1.9872,-1.9863,-1.9706,-1.9627,-1.9627,-1.9627,-1.9627,-1.9627,-1.9548,-1.9478,-1.9478,-1.9301,-1.9301,-1.9301,-1.9301,-1.9301,-1.9301,-1.9301,-1.9301,-1.9338,-1.9503,-2.0026,-2.0558,-2.0714,-2.1053,-2.142,-2.1676,-2.1741,-2.1741,-2.1741,-2.1266,-2.0808,-2.0808,-1.9643,-1.8748,-1.897,-1.8346,-1.7793,-1.7515,-1.7316,-1.6993,-1.6466,-1.6015,-1.5832,-1.5832,-1.5832,-1.5832,-1.5832,-1.5832,-1.5832,-1.5832,-1.5832,-1.5832,-1.5832,-1.5658,-1.5565,-1.5565,-1.5745,-1.5685,-1.5398,-1.5691,-1.5738,-1.5571,-1.5752,-1.5832,-1.5832,-1.5832,-1.5832,-1.5832,-1.5832,-1.5832,-1.5832,-1.5832,-1.5832,-1.5832,-1.5832,-1.5832,-1.5832,-2.4394,-2.4082,-2.3906,-2.4287,-2.3711,-2.332,-2.3682,-2.3389,-2.3135,-2.3135,-2.3135,-2.3135,-2.3135,-2.3135,-2.3135,-2.3135,-2.3135,-2.3135,-2.3135,-2.3135,-2.3135,-2.3135,-2.2279,-2.1675,-2.1357,-2.0869,-2.0547,-2.0234,-2.0322,-2.0244,-1.9998,-1.996,-1.9942,-1.9942,-1.9942,-2.0098,-2.0264,-1.9794,-1.9715,-1.9863,-1.946,-1.9301,-1.9301,-1.9301,-1.9301,-1.9301,-1.9301,-1.9301,-1.9301,-1.9301,-1.9301,-1.9301,-1.9301,-1.9301,-1.9301,-1.9301,-1.9329,-1.9439,-1.9824,-2.0246,-2.0659,-2.1016,-2.142,-2.1741,-2.1741,-2.1741,-2.1741,-2.1741,-2.1741,-2.1722,-2.1686,-2.0359,-1.9359,-1.9359,-1.8371,-1.7677,-1.7937,-1.7474,-1.7256,-1.7289,-1.648,-1.592,-1.5832,-1.5832,-1.5832,-1.5832,-1.5832,-1.5832,-1.5832,-1.5832,-1.5832,-1.5832,-1.5832,-1.5832,-1.5832,-1.5832,-1.5685,-1.5398,-1.5691,-1.5812,-1.5792,-1.5818,-1.5832,-1.5832,-1.5832,-1.5832,-1.5832,-1.5832,-1.5832,-1.5832,-1.5832,-1.5832,-1.5832,-1.5832,-1.5832,-1.5832,-2.4287,-2.4082,-2.3818,-2.3906,-2.3769,-2.3564,-2.332,-2.3203,-2.3135,-2.3135,-2.3135,-2.3135,-2.3135,-2.3135,-2.3135,-2.3135,-2.3135,-2.3135,-2.3135,-2.3135,-2.3135,-2.3135,-2.1939,-2.1551,-2.2236,-2.1484,-2.0675,-2.0003,-2.0675,-2.1014,-2.0924,-2.0575,-2.0411,-2.0411,-2.0264,-2.0264,-2.0264,-1.9942,-1.9863,-1.9863,-1.9636,-1.9557,-1.9557,-1.9557,-1.9469,-1.9301,-1.9478,-1.939,-1.9301,-1.9301,-1.9301,-1.9301,-1.9301,-1.9301,-1.9301,-1.9301,-1.954,-1.9815,-1.9907,-2.0438,-2.0998,-2.1089,-2.142,-2.1741,-2.1741,-2.1741,-2.1741,-2.1741,-2.1741,-2.164,-2.131,-2.0925,-2.0712,-2.0712,-2.0467,-2.0183,-1.9771,-1.9619,-1.8975,-1.7505,-1.7145,-1.6669,-1.5927,-1.5832,-1.5832,-1.5832,-1.5832,-1.5832,-1.5832,-1.5832,-1.5832,-1.5832,-1.5832,-1.5832,-1.5832,-1.5832,-1.5685,-1.5398,-1.5691,-1.5712,-1.5498,-1.5725,-1.5832,-1.5832,-1.5832,-1.5832,-1.5832,-1.5832,-1.5832,-1.5832,-1.5832,-1.5832,-1.5832,-1.5832,-1.5832,-1.5832,-2.3721,-2.3633,-2.3486,-2.3486,-2.3486,-2.3408,-2.3174,-2.3135,-2.3135,-2.3135,-2.3135,-2.3135,-2.3135,-2.3135,-2.3135,-2.3135,-2.3135,-2.3135,-2.3135,-2.3135,-2.3047,-2.2852,-2.1748,-2.1016,-2.0891,-2.1025,-2.0882,-2.0386,-2.0608,-2.068,-2.0591,-2.0361,-2.0255,-2.0255,-2.0177,-2.0186,-2.0264,-2.002,-1.9863,-1.9863,-1.9715,-1.9557,-1.9478,-1.9478,-1.939,-1.9301,-1.939,-1.939,-1.9301,-1.9301,-1.9301,-1.9301,-1.9301,-1.9301,-1.9301,-1.9301,-1.9595,-1.9971,-2.0163,-2.0649,-2.1154,-2.1355,-2.1575,-2.1741,-2.1741,-2.1741,-2.1741,-2.1741,-2.1741,-2.1603,-2.1181,-2.0952,-2.0824,-2.0824,-2.0824,-2.0789,-2.0651,-2.0497,-1.9886,-1.888,-1.7878,-1.6857,-1.592,-1.5832,-1.5832,-1.5832,-1.5832,-1.5832,-1.5832,-1.5832,-1.5832,-1.5832,-1.5832,-1.5832,-1.5832,-1.5832,-1.5752,-1.5605,-1.5758,-1.5752,-1.5611,-1.5758,-1.5832,-1.5832,-1.5832,-1.5832,-1.5832,-1.5832,-1.5832,-1.5832,-1.5832,-1.5832,-1.5832,-1.5832,-1.5832,-1.5832,-2.3135,-2.3135,-2.3135,-2.3135,-2.3135,-2.3135,-2.3135,-2.3135,-2.3135,-2.3135,-2.3135,-2.3135,-2.3135,-2.3135,-2.3135,-2.3135,-2.3135,-2.3135,-2.3135,-2.3135,-2.2988,-2.2637,-2.1673,-2.0712,-1.9832,-2.0544,-2.0874,-2.0674,-2.0598,-2.0486,-2.0239,-2.0087,-2.002,-1.9942,-2.002,-2.0098,-2.0264,-2.0098,-2.002,-2.002,-1.9794,-1.9557,-1.9381,-1.9381,-1.9381,-1.9301,-1.9301,-1.9301,-1.9301,-1.9301,-1.9301,-1.9301,-1.9301,-1.9347,-1.9393,-1.932,-1.9696,-2.0191,-2.0448,-2.086,-2.13,-2.1649,-2.1741,-2.1741,-2.1741,-2.1741,-2.1741,-2.1741,-2.1741,-2.1603,-2.1181,-2.0842,-2.0622,-2.0622,-2.0622,-2.0759,-2.1163,-2.0784,-2.0439,-2.0068,-1.8241,-1.6763,-1.5927,-1.5832,-1.5832,-1.5832,-1.5832,-1.5832,-1.5832,-1.5832,-1.5832,-1.5832,-1.5832,-1.5832,-1.5832,-1.5832,-1.5832,-1.5832,-1.5832,-1.5832,-1.5832,-1.5832,-1.5832,-1.5832,-1.5832,-1.5832,-1.5832,-1.5832,-1.5832,-1.5832,-1.5832,-1.5832,-1.5832,-1.5832,-1.5832,-1.5832,-2.3135,-2.3135,-2.3135,-2.3135,-2.3135,-2.3135,-2.3135,-2.3135,-2.3135,-2.3135,-2.3135,-2.3135,-2.3135,-2.3135,-2.3135,-2.3135,-2.3135,-2.3135,-2.3135,-2.3135,-2.3115,-2.3057,-2.1823,-2.1593,-2.2505,-2.1163,-2.0355,-1.9965,-2.1136,-2.1627,-2.1607,-2.0849,-2.0411,-2.0264,-2.0411,-2.0411,-2.0342,-2.0411,-2.0489,-2.0489,-2.0264,-2.0029,-1.9784,-1.9784,-1.9618,-1.9301,-1.9478,-1.9469,-1.9301,-1.9301,-1.9301,-1.9301,-1.9301,-1.9549,-1.9769,-1.9402,-2.0081,-2.0888,-2.0594,-2.1071,-2.1667,-2.1722,-2.1741,-2.1741,-2.1741,-2.1741,-2.1741,-2.1741,-2.1741,-2.1603,-2.1181,-2.1062,-2.1025,-2.1025,-2.1025,-2.1172,-2.1594,-2.1516,-2.0907,-1.9155,-1.7217,-1.592,-1.5825,-1.5832,-1.5832,-1.5832,-1.5832,-1.5832,-1.5832,-1.5832,-1.5832,-1.5832,-1.5832,-1.5832,-1.5832,-1.5832,-1.5832,-1.5832,-1.5832,-1.5832,-1.5832,-1.5832,-1.5832,-1.5832,-1.5832,-1.5832,-1.5832,-1.5832,-1.5832,-1.5832,-1.5832,-1.5832,-1.5832,-1.5832,-1.5832,-1.5832,-2.3135,-2.3135,-2.3135,-2.3135,-2.3135,-2.3135,-2.3135,-2.3135,-2.3135,-2.3135,-2.3135,-2.3135,-2.3135,-2.3135,-2.3135,-2.3135,-2.3135,-2.3135,-2.3135,-2.3135,-2.293,-2.2461,-2.1607,-2.1253,-2.1551,-2.1077,-2.0766,-2.089,-2.1429,-2.1501,-2.1178,-2.0793,-2.0407,-2.0108,-2.0177,-2.0177,-2.0098,-2.0342,-2.0264,-2.002,-2.0108,-1.9863,-1.9539,-1.9539,-1.946,-1.9301,-1.9557,-1.9557,-1.9469,-1.9627,-1.9548,-1.9469,-1.9627,-1.9836,-2.0142,-2.0028,-2.068,-2.1244,-2.1068,-2.1369,-2.1741,-2.1919,-2.183,-2.1741,-2.1919,-2.183,-2.1741,-2.1741,-2.1741,-2.1603,-2.1181,-2.1108,-2.1108,-2.1108,-2.1108,-2.1255,-2.1676,-2.1741,-2.0997,-1.9072,-1.7498,-1.6393,-1.5825,-1.5832,-1.5832,-1.5832,-1.5832,-1.5832,-1.5832,-1.5832,-1.5832,-1.5832,-1.5832,-1.5832,-1.5832,-1.5832,-1.5832,-1.5832,-1.5832,-1.5832,-1.5832,-1.5832,-1.5832,-1.5832,-1.5832,-1.5832,-1.5832,-1.5832,-1.5832,-1.5832,-1.5832,-1.5832,-1.5832,-1.5832,-1.5832,-1.5832]},{"header":{"parameterUnit":"m.s-1","parameterCategory":1,"la1":30.6,"la2":28.766,"lo1":-90.7593,"lo2":-88.6598,"dy":0.0162,"dx":0.0183,"nx":116,"ny":114,"refTime":"2023-08-05T12:00:00:Z","depth":0,"parameterNumber":3,"parameterNumberName":"V-component_of_WINDS"},"data":[0.0,0.0,0.0,0.0,0.0,0.0,0.0,0.0,0.0,0.0,0.0,0.0,0.0,0.0,0.0,0.0,0.0,0.0,0.0,0.0,0.0,0.0,0.0,0.0,0.0,0.0,0.0,0.0,0.0,0.0,0.0,0.0,0.0,0.0,0.0,0.0,0.0,0.0,0.0,0.0,0.0,0.0,0.0,0.0,0.0,0.0,0.0,0.0,0.0,0.0,0.0,0.0,0.0,0.0,0.0,0.0,0.0,0.0,0.0,0.0,0.0,0.0,0.0,0.0,0.0,0.0,0.0,0.0,0.0,0.0,0.0,0.0,0.0,0.0,0.0,0.0,0.0,0.0,0.0,0.0,0.0,0.0,0.0,0.0,0.0,0.0,0.0,0.0,0.0,0.0,0.0,0.0,0.0,0.0,0.0,0.0,0.0,0.0,0.0,0.0,0.0,0.0,0.0,0.0,0.0,0.0,0.0,0.0,0.0,0.0,0.0,0.0,0.0,0.0,0.0,0.0,0.0,0.0,0.0,0.0,0.0,0.0,0.0,0.0,0.0,0.0,0.0,0.0,0.0,0.0,0.0,0.0,0.0,0.0,0.0,0.0,0.0,0.0,0.0,0.0,0.0,0.0,0.0,0.0,0.0,0.0,0.0,0.0,0.0,0.0,0.0,0.0,0.0,0.0,0.0,0.0,0.0,0.0,0.0,0.0,0.0,0.0,0.0,0.0,0.0,0.0,0.0,0.0,0.0,0.0,0.0,0.0,0.0,0.0,0.0,0.0,0.0,0.0,0.0,0.0,0.0,0.0,0.0,0.0,0.0,0.0,0.0,0.0,0.0,0.0,0.0,0.0,0.0,0.0,0.0,0.0,0.0,0.0,0.0,0.0,0.0,0.0,0.0,0.0,0.0,0.0,0.0,0.0,0.0,0.0,0.0,0.0,0.0,0.0,0.0,0.0,0.0,0.0,0.0,0.0,0.0,0.0,0.0,0.0,0.0,0.0,0.0,0.0,0.0,0.0,0.0,0.0,0.0,0.0,0.0,0.0,0.0,0.0,0.0,0.0,0.0,0.0,0.0,0.0,0.0,0.0,0.0,0.0,0.0,0.0,0.0,0.0,0.0,0.0,0.0,0.0,0.0,0.0,0.0,0.0,0.0,0.0,0.0,0.0,0.0,0.0,0.0,0.0,0.0,0.0,0.0,0.0,0.0,0.0,0.0,0.0,0.0,0.0,0.0,0.0,0.0,0.0,0.0,0.0,0.0,0.0,0.0,0.0,0.0,0.0,0.0,0.0,0.0,0.0,0.0,0.0,0.0,0.0,0.0,0.0,0.0,0.0,0.0,0.0,0.0,0.0,0.0,0.0,0.0,0.0,0.0,0.0,0.0,0.0,0.0,0.0,0.0,0.0,0.0,0.0,0.0,0.0,0.0,0.0,0.0,0.0,0.0,0.0,0.0,0.0,0.0,0.0,0.0,0.0,0.0,0.0,0.0,0.0,0.0,0.0,0.0,0.0,0.0,0.0,0.0,0.0,0.0,0.0,0.0,0.0,0.0,0.0,0.0,0.0,0.0,0.0,0.0,0.0,0.0,0.0,0.0,0.0,0.0,0.0,0.0,0.0,0.0,0.0,0.0,0.0,0.0,0.0,0.0,0.0,0.0,0.0,0.0,0.0,0.0,0.0,0.0,0.0,0.0,0.0,0.0,0.0,0.0,0.0,0.0,0.0,0.0,0.0,0.0,0.0,0.0,0.0,0.0,0.0,0.0,0.0,0.0,0.0,0.0,0.0,0.0,0.0,0.0,0.0,0.0,0.0,0.0,0.0,0.0,0.0,0.0,0.0,0.0,0.0,0.0,0.0,0.0,0.0,0.0,0.0,0.0,0.0,0.0,0.0,0.0,0.0,0.0,0.0,0.0,0.0,0.0,0.0,0.0,0.0,0.0,0.0,0.0,0.0,0.0,0.0,0.0,0.0,0.0,0.0,0.0,0.0,0.0,0.0,0.0,0.0,0.0,0.0,0.0,0.0,0.0,0.0,0.0,0.0,0.0,0.0,0.0,0.0,0.0,0.0,0.0,0.0,0.0,0.0,0.0,0.0,0.0,0.0,0.0,0.0,0.0,0.0,0.0,0.0,0.0,0.0,0.0,0.0,0.0,0.0,0.0,0.0,0.0,0.0,0.0,0.0,0.0,0.0,0.0,0.0,0.0,0.0,0.0,0.0,0.0,0.0,0.0,0.0,0.0,0.0,0.0,0.0,0.0,0.0,0.0,0.0,0.0,0.0,0.0,0.0,0.0,0.0,0.0,0.0,0.0,0.0,0.0,0.0,0.0,0.0,0.0,0.0,0.0,0.0,0.0,0.0,0.0,0.0,0.0,0.0,0.0,0.0,0.0,0.0,0.0,0.0,0.0,0.0,0.0,0.0,0.0,0.0,0.0,0.0,0.0,0.0,0.0,0.0,0.0,0.0,0.0,0.0,0.0,0.0,0.0,0.0,0.0,0.0,0.0,0.0,0.0,0.0,0.0,0.0,0.0,0.0,0.0,0.0,0.0,0.0,0.0,0.0,0.0,0.0,0.0,0.0,0.0,0.0,0.0,0.0,0.0,0.0,0.0,0.0,0.0,0.0,0.0,0.0,0.0,0.0,0.0,0.0,0.0,0.0,0.0,0.0,0.0,0.0,0.0,0.0,0.0,0.0,0.0,0.0,0.0,0.0,0.0,0.0,0.0,0.0,0.0,0.0,0.0,0.0,0.0,0.0,0.0,0.0,0.0,0.0,0.0,0.0,0.0,0.0,0.0,0.0,0.0,0.0,0.0,0.0,0.0,0.0,0.0,0.0,0.0,0.0,0.0,0.0,0.0,0.0,0.0,0.0,0.0,0.0,0.0,0.0,0.0,0.0,0.0,0.0,0.0,0.0,0.0,0.0,0.0,0.0,0.0,0.0,0.0,0.0,0.0,0.0,0.0,0.0,0.0,0.0,0.0,0.0,0.0,0.0,0.0,0.0,0.0,0.0,0.0,0.0,0.0,0.0,0.0,0.0,0.0,0.0,0.0,0.0,0.0,0.0,0.0,0.0,0.0,0.0,0.0,0.0,0.0,0.0,0.0,0.0,0.0,0.0,0.0,0.0,0.0,0.0,0.0,0.0,0.0,0.0,0.0,0.0,0.0,0.0,0.0,0.0,0.0,0.0,0.0,0.0,0.0,0.0,0.0,0.0,0.0,0.0,0.0,0.0,0.0,0.0,0.0,0.0,0.0,0.0,0.0,0.0,0.0,0.0,0.0,0.0,0.0,0.0,0.0,0.0,0.0,0.0,0.0,0.0,0.0,0.0,0.0,0.0,0.0,0.0,0.0,0.0,0.0,0.0,0.0,0.0,0.0,0.0,0.0,0.0,0.0,0.0,0.0,0.0,0.0,0.0,0.0,0.0,0.0,0.0,0.0,0.0,0.0,0.0,0.0,0.0,0.0,0.0,0.0,0.0,0.0,0.0,0.0,0.0,0.0,0.0,0.0,0.0,0.0,0.0,0.0,0.0,0.0,0.0,0.0,0.0,0.0,0.0,0.0,0.0,0.0,0.0,0.0,0.0,0.0,0.0,0.0,0.0,0.0,0.0,0.0,0.0,0.0,0.0,0.0,0.0,0.0,0.0,0.0,0.0,0.0,0.0,0.0,0.0,0.0,0.0,0.0,0.0,0.0,0.0,0.0,0.0,0.0,0.0,0.0,0.0,0.0,0.0,0.0,0.0,0.0,0.0,0.0,0.0,0.0,0.0,0.0,0.0,0.0,0.0,0.0,0.0,0.0,0.0,0.0,0.0,0.0,0.0,0.0,0.0,0.0,0.0,0.0,0.0,0.0,0.0,0.0,0.0,0.0,0.0,0.0,0.0,0.0,0.0,0.0,0.0,0.0,0.0,0.0,0.0,0.0,0.0,0.0,0.0,0.0,0.0,0.0,0.0,0.0,0.0,0.0,0.0,0.0,0.0,0.0,0.0,0.0,0.0,0.0,0.0,0.0,0.0,0.0,0.0,0.0,0.0,0.0,0.0,0.0,0.0,0.0,0.0,0.0,0.0,0.0,0.0,0.0,0.0,0.0,0.0,0.0,0.0,0.0,0.0,0.0,0.0,0.0,0.0,0.0,0.0,0.0,0.0,0.0,0.0,0.0,0.0,0.0,0.0,0.0,0.0,0.0,0.0,0.0,0.0,0.0,0.0,0.0,0.0,0.0,0.0,0.0,0.0,0.0,0.0,0.0,0.0,0.0,0.0,0.0,0.0,0.0,0.0,0.0,0.0,0.0,0.0,0.0,0.0,0.0,0.0,0.0,0.0,0.0,0.0,0.0,0.0,0.0,0.0,0.0,0.0,0.0,0.0,0.0,0.0,0.0,0.0,0.0,0.0,0.0,0.0,0.0,0.0,0.0,0.0,0.0,0.0,0.0,0.0,0.0,0.0,0.0,0.0,0.0,0.0,0.0,0.0,0.0,0.0,0.0,0.0,0.0,0.0,0.0,0.0,0.0,0.0,0.0,0.0,0.0,0.0,0.0,0.0,0.0,0.0,0.0,0.0,0.0,0.0,0.0,0.0,0.0,0.0,0.0,0.0,0.0,0.0,0.0,0.0,0.0,0.0,0.0,0.0,0.0,0.0,0.0,0.0,0.0,0.0,0.0,0.0,0.0,0.0,0.0,0.0,0.0,0.0,0.0,0.0,0.0,0.0,0.0,0.0,0.0,0.0,0.0,0.0,0.0,0.0,0.0,0.0,0.0,0.0,0.0,0.0,0.0,0.0,0.0,0.0,0.0,0.0,0.0,0.0,0.0,0.0,0.0,0.0,0.0,0.0,0.0,0.0,0.0,0.0,0.0,0.0,0.0,0.0,0.0,0.0,0.0,0.0,0.0,0.0,0.0,0.0,0.0,0.0,0.0,0.0,0.0,0.0,0.0,0.0,0.0,0.0,0.0,0.0,0.0,0.0,0.0,0.0,0.0,0.0,0.0,0.0,0.0,0.0,0.0,0.0,0.0,0.0,0.0,0.0,0.0,0.0,0.0,0.0,0.0,0.0,0.0,0.0,0.0,0.0,0.0,0.0,0.0,0.0,0.0,0.0,0.0,0.0,0.0,0.0,0.0,0.0,0.0,0.0,0.0,0.0,0.0,0.0,0.0,0.0,0.0,0.0,0.0,0.0,0.0,0.0,0.0,0.0,0.0,0.0,0.0,0.0,0.0,0.0,0.0,0.0,0.0,0.0,0.0,0.0,0.0,0.0,0.0,0.0,0.0,0.0,0.0,0.0,0.0,0.0,0.0,0.0,0.0,0.0,0.0,0.0,0.0,0.0,0.0,0.0,0.0,0.0,0.0,0.0,0.0,0.0,0.0,0.0,0.0,0.0,0.0,0.0,0.0,0.0,0.0,0.0,0.0,0.0,0.0,0.0,0.0,0.0,0.0,0.0,0.0,0.0,0.0,0.0,0.0,0.0,0.0,0.0,0.0,0.0,0.0,0.0,0.0,0.0,0.0,0.0,0.0,0.0,0.0,0.0,0.0,0.0,0.0,0.0,0.0,0.0,0.0,0.0,0.0,0.0,0.0,0.0,0.0,0.0,0.0,0.0,0.0,0.0,0.0,0.0,0.0,0.0,0.0,0.0,0.0,0.0,0.0,0.0,0.0,0.0,0.0,0.0,0.0,0.0,0.0,0.0,0.0,0.0,0.0,0.0,0.0,0.0,0.0,0.0,0.0,0.0,0.0,0.0,0.0,0.0,0.0,0.0,0.0,0.0,0.0,0.0,0.0,0.0,0.0,0.0,0.0,0.0,0.0,0.0,0.0,0.0,0.0,0.0,0.0,0.0,0.0,0.0,0.0,0.0,0.0,0.0,0.0,0.0,0.0,0.0,0.0,0.0,0.0,0.0,0.0,0.0,0.0,0.0,0.0,0.0,0.0,0.0,0.0,0.0,0.0,0.0,0.0,0.0,0.0,0.0,0.0,0.0,0.0,0.0,0.0,0.0,0.0,0.0,0.0,0.0,0.0,0.0,0.0,0.0,0.0,0.0,0.0,0.0,0.0,0.0,0.0,0.0,0.0,0.0,0.0,0.0,-4.1698,0.0,0.0,0.0,0.0,0.0,0.0,0.0,0.0,0.0,0.0,0.0,0.0,0.0,0.0,0.0,0.0,0.0,0.0,0.0,0.0,0.0,0.0,0.0,0.0,0.0,0.0,0.0,0.0,0.0,0.0,0.0,0.0,0.0,0.0,0.0,0.0,0.0,0.0,0.0,0.0,0.0,0.0,0.0,0.0,0.0,0.0,0.0,0.0,0.0,0.0,0.0,0.0,0.0,0.0,0.0,0.0,0.0,0.0,0.0,0.0,0.0,0.0,0.0,0.0,0.0,0.0,0.0,0.0,0.0,0.0,0.0,0.0,0.0,0.0,0.0,0.0,0.0,0.0,0.0,0.0,0.0,0.0,0.0,0.0,0.0,0.0,0.0,0.0,0.0,0.0,0.0,0.0,0.0,0.0,0.0,0.0,0.0,0.0,0.0,0.0,0.0,0.0,0.0,0.0,0.0,0.0,0.0,0.0,0.0,0.0,0.0,0.0,0.0,0.0,0.0,0.0,-4.3424,0.0,0.0,0.0,0.0,0.0,0.0,0.0,0.0,0.0,0.0,0.0,0.0,0.0,0.0,0.0,0.0,0.0,0.0,0.0,0.0,0.0,0.0,0.0,0.0,0.0,0.0,0.0,0.0,0.0,0.0,0.0,0.0,0.0,0.0,0.0,0.0,0.0,0.0,0.0,0.0,0.0,0.0,0.0,0.0,0.0,0.0,0.0,0.0,0.0,0.0,0.0,0.0,0.0,0.0,0.0,0.0,0.0,0.0,0.0,0.0,0.0,0.0,0.0,0.0,0.0,0.0,0.0,0.0,0.0,0.0,0.0,0.0,0.0,0.0,0.0,0.0,0.0,0.0,0.0,0.0,0.0,0.0,0.0,0.0,0.0,0.0,0.0,0.0,0.0,0.0,0.0,0.0,0.0,0.0,0.0,0.0,0.0,0.0,0.0,0.0,0.0,0.0,0.0,0.0,0.0,0.0,0.0,0.0,-4.5444,-4.6624,-4.7939,-4.7984,-4.9231,-5.1203,-4.8729,-4.7841,-4.8009,0.0,0.0,0.0,0.0,0.0,0.0,0.0,0.0,0.0,0.0,0.0,0.0,0.0,0.0,0.0,0.0,0.0,0.0,0.0,0.0,0.0,0.0,0.0,0.0,0.0,0.0,0.0,0.0,0.0,0.0,0.0,0.0,0.0,0.0,0.0,0.0,0.0,0.0,0.0,0.0,0.0,0.0,0.0,0.0,0.0,0.0,0.0,0.0,0.0,0.0,0.0,0.0,0.0,0.0,0.0,0.0,0.0,0.0,0.0,0.0,0.0,0.0,0.0,0.0,0.0,0.0,0.0,0.0,0.0,0.0,0.0,0.0,0.0,0.0,0.0,0.0,0.0,0.0,0.0,0.0,0.0,0.0,0.0,0.0,0.0,0.0,0.0,-4.1289,-4.1397,0.0,0.0,0.0,0.0,0.0,0.0,0.0,0.0,0.0,0.0,0.0,0.0,0.0,0.0,-4.4161,-4.698,-4.8122,-4.7586,-5.0088,-5.1409,-5.1607,-5.1972,-5.3034,-5.4592,-5.4893,0.0,-5.0416,-4.7895,0.0,0.0,0.0,0.0,0.0,0.0,0.0,0.0,0.0,0.0,0.0,0.0,0.0,0.0,0.0,0.0,0.0,0.0,0.0,0.0,0.0,0.0,0.0,0.0,0.0,0.0,0.0,0.0,0.0,0.0,0.0,0.0,0.0,0.0,0.0,0.0,0.0,0.0,0.0,0.0,0.0,0.0,0.0,0.0,0.0,0.0,0.0,0.0,0.0,0.0,0.0,0.0,0.0,0.0,0.0,0.0,0.0,0.0,0.0,0.0,0.0,0.0,0.0,0.0,0.0,0.0,0.0,0.0,0.0,0.0,0.0,0.0,0.0,0.0,0.0,0.0,0.0,0.0,0.0,0.0,0.0,0.0,0.0,0.0,0.0,-4.1578,-4.2212,-4.1759,-4.1796,-4.165,0.0,0.0,0.0,0.0,0.0,0.0,0.0,0.0,0.0,-4.6052,-4.6631,-4.7553,-4.892,-5.0534,-5.1366,-5.1457,-5.269,-5.3735,-5.4607,-5.4319,-5.535,-5.729,-5.6328,-5.5941,-5.5834,-5.2996,-5.1054,-4.9693,0.0,0.0,0.0,0.0,-4.8982,-4.9774,0.0,0.0,0.0,0.0,0.0,0.0,0.0,0.0,0.0,0.0,0.0,0.0,0.0,0.0,0.0,0.0,0.0,0.0,0.0,0.0,0.0,0.0,0.0,0.0,0.0,0.0,0.0,0.0,0.0,0.0,0.0,0.0,0.0,0.0,0.0,0.0,0.0,0.0,0.0,0.0,0.0,0.0,0.0,0.0,0.0,0.0,0.0,0.0,0.0,0.0,0.0,0.0,0.0,0.0,0.0,0.0,0.0,0.0,0.0,0.0,0.0,0.0,0.0,0.0,0.0,0.0,0.0,0.0,0.0,0.0,0.0,0.0,0.0,0.0,0.0,0.0,0.0,-4.2846,-4.3679,-4.2466,-4.357,-4.3839,0.0,0.0,0.0,0.0,0.0,0.0,-4.491,-4.5068,-4.6498,-4.9453,-4.9884,-5.1022,-5.3005,-5.3563,-5.4081,-5.4602,-5.4893,-5.5715,-5.6914,-5.6381,-5.724,-5.9002,-5.7457,-5.7932,-5.9539,-5.6575,-5.4282,-5.2548,-5.1433,-5.0791,-5.0544,-5.1214,-5.1801,-5.2405,0.0,0.0,0.0,0.0,0.0,0.0,0.0,0.0,0.0,0.0,0.0,0.0,0.0,0.0,0.0,0.0,0.0,0.0,0.0,0.0,0.0,0.0,0.0,0.0,0.0,0.0,0.0,0.0,0.0,0.0,0.0,0.0,0.0,0.0,0.0,0.0,0.0,0.0,0.0,0.0,0.0,0.0,0.0,0.0,0.0,0.0,0.0,0.0,0.0,0.0,0.0,0.0,0.0,0.0,0.0,0.0,0.0,0.0,0.0,0.0,0.0,0.0,0.0,0.0,0.0,0.0,0.0,0.0,0.0,0.0,0.0,0.0,0.0,0.0,0.0,0.0,0.0,0.0,0.0,-4.4258,-4.6721,0.0,0.0,0.0,0.0,-4.4635,-4.5186,-4.6587,-4.8889,-4.9369,-5.0697,-5.3051,-5.3545,-5.4164,-5.5058,-5.5842,-5.6215,-5.627,-5.7391,-5.8028,-5.8325,-5.8635,-5.8988,-5.9309,-5.9965,-5.991,-5.9084,-5.593,-5.5434,-5.6455,-5.4678,-5.4142,-5.4428,-5.4602,-5.5212,-5.583,0.0,0.0,0.0,0.0,0.0,0.0,0.0,0.0,0.0,0.0,0.0,0.0,0.0,0.0,0.0,0.0,0.0,0.0,0.0,0.0,0.0,0.0,0.0,0.0,0.0,0.0,0.0,0.0,0.0,0.0,0.0,0.0,0.0,0.0,0.0,0.0,0.0,0.0,0.0,0.0,0.0,0.0,0.0,0.0,0.0,0.0,0.0,0.0,0.0,0.0,0.0,0.0,0.0,0.0,0.0,0.0,0.0,0.0,0.0,0.0,0.0,0.0,0.0,0.0,0.0,0.0,0.0,0.0,0.0,0.0,0.0,0.0,0.0,0.0,0.0,0.0,0.0,0.0,0.0,-4.7355,-4.9582,0.0,-4.8042,-4.8034,-4.8281,-4.854,-4.8798,-4.9734,-5.1512,-5.251,-5.3881,-5.5837,-5.6565,-5.734,-5.8264,-5.8271,-5.826,-5.826,-5.8697,-5.8908,-5.8968,-5.914,-5.929,-5.951,-5.9811,-5.9826,-5.959,-5.8455,-5.7949,-5.7831,-5.731,-5.6809,-5.645,-5.6481,-5.6702,-5.6929,0.0,0.0,0.0,0.0,0.0,0.0,0.0,0.0,0.0,0.0,0.0,0.0,0.0,0.0,0.0,0.0,0.0,0.0,0.0,0.0,0.0,0.0,0.0,0.0,0.0,0.0,0.0,0.0,0.0,0.0,0.0,0.0,0.0,0.0,0.0,0.0,0.0,0.0,0.0,0.0,0.0,0.0,-4.302,0.0,0.0,0.0,0.0,0.0,0.0,0.0,0.0,0.0,0.0,0.0,0.0,0.0,0.0,0.0,0.0,0.0,0.0,0.0,0.0,0.0,0.0,0.0,0.0,0.0,0.0,0.0,0.0,0.0,0.0,0.0,0.0,0.0,0.0,0.0,-5.0796,-4.9474,-5.2136,-5.3132,-5.0615,-5.1076,-5.1669,-5.1982,-5.222,-5.2906,-5.4148,-5.5256,-5.6387,-5.7533,-5.8357,-5.9089,-5.9732,-5.9478,-5.929,-5.929,-5.929,-5.9346,-5.9419,-5.9419,-5.9526,-5.9719,-5.9719,-5.9786,-5.9885,-5.9885,-5.9517,-5.8925,-5.9057,-5.8748,-5.8237,-5.8237,-5.8237,-5.8161,0.0,0.0,0.0,0.0,0.0,0.0,0.0,0.0,0.0,0.0,0.0,0.0,0.0,0.0,0.0,0.0,0.0,0.0,0.0,0.0,0.0,0.0,0.0,0.0,0.0,0.0,0.0,0.0,0.0,0.0,0.0,0.0,0.0,0.0,0.0,0.0,0.0,0.0,0.0,0.0,0.0,0.0,-4.4654,0.0,0.0,0.0,0.0,0.0,0.0,0.0,0.0,0.0,0.0,0.0,0.0,0.0,0.0,0.0,0.0,0.0,0.0,0.0,0.0,0.0,0.0,0.0,0.0,0.0,0.0,0.0,0.0,0.0,0.0,0.0,0.0,0.0,-4.7294,-5.0944,-5.2878,-5.0578,-5.4381,-5.5752,-5.1928,-5.3526,-5.4832,-5.4783,-5.5368,-5.6021,-5.6847,-5.7679,-5.8142,-5.8186,-5.8945,-5.9328,-5.9383,-5.9346,-5.9327,-5.9327,-5.9327,-5.9419,-5.9616,-5.9616,-5.9719,-5.9885,-5.9885,-5.9885,-5.9885,-5.9885,-5.9885,-5.9885,-5.9885,-5.9885,-5.9885,-5.9885,-5.9866,-5.962,0.0,0.0,0.0,0.0,0.0,0.0,0.0,0.0,0.0,0.0,0.0,0.0,0.0,0.0,0.0,0.0,0.0,0.0,0.0,0.0,0.0,0.0,0.0,0.0,0.0,0.0,0.0,0.0,0.0,0.0,0.0,0.0,0.0,0.0,0.0,0.0,0.0,0.0,0.0,0.0,0.0,0.0,-4.5766,0.0,0.0,0.0,0.0,0.0,0.0,0.0,0.0,0.0,0.0,0.0,0.0,0.0,0.0,0.0,0.0,0.0,0.0,0.0,0.0,0.0,0.0,0.0,0.0,0.0,0.0,0.0,0.0,0.0,0.0,0.0,0.0,-5.2631,-5.1188,-5.3034,-5.4744,-5.5178,-5.6696,-5.7536,-5.7088,-5.7525,-5.8099,-5.8549,-5.7895,-5.7668,-5.8155,-5.8692,-5.9176,-5.9667,-6.0154,-6.0448,-6.0604,-6.0036,-5.9753,-5.9753,-5.9753,-5.9767,-5.982,-5.982,-5.9853,-5.9885,-5.9885,-5.9885,-5.9885,-5.9885,-5.9885,-5.9885,-5.9885,-5.9885,-5.9885,-5.9885,-5.9525,-5.8786,0.0,0.0,0.0,0.0,0.0,0.0,0.0,0.0,0.0,0.0,0.0,0.0,0.0,0.0,0.0,0.0,0.0,0.0,0.0,0.0,0.0,0.0,0.0,0.0,0.0,0.0,0.0,0.0,0.0,0.0,0.0,0.0,0.0,0.0,0.0,0.0,0.0,0.0,0.0,0.0,0.0,0.0,-4.7165,-4.6886,-4.6738,-4.6593,-4.583,-4.5814,-4.6091,-4.5278,0.0,0.0,0.0,0.0,0.0,0.0,0.0,0.0,0.0,0.0,0.0,0.0,0.0,0.0,0.0,0.0,0.0,0.0,0.0,0.0,0.0,0.0,0.0,0.0,-5.3306,-5.5108,-5.5526,-5.6346,-5.7206,-5.7966,-5.8419,-5.905,-5.9926,-5.9327,-5.9337,-6.0434,-5.9179,-5.8589,-5.9136,-5.9227,-5.944,-5.9853,-6.0544,-6.0827,-6.0586,-6.0454,-6.0226,-5.9885,-5.9885,-5.9885,-5.9885,-5.9885,-5.9715,0.0,-5.9734,-5.9487,-5.8881,-5.9241,-5.9165,0.0,0.0,0.0,0.0,0.0,-5.8862,-5.7971,0.0,0.0,0.0,0.0,0.0,0.0,0.0,0.0,0.0,0.0,0.0,0.0,0.0,0.0,0.0,0.0,0.0,0.0,0.0,0.0,0.0,0.0,0.0,0.0,0.0,0.0,0.0,0.0,0.0,0.0,0.0,0.0,0.0,0.0,0.0,0.0,0.0,0.0,0.0,0.0,0.0,0.0,-4.8549,-4.7972,-4.7659,-4.7459,-4.6842,-4.6548,-4.6567,-4.6906,0.0,0.0,0.0,0.0,0.0,0.0,0.0,0.0,0.0,0.0,0.0,0.0,0.0,0.0,0.0,0.0,0.0,0.0,0.0,0.0,0.0,0.0,0.0,0.0,-5.5734,-5.6833,-5.9492,-6.0017,-5.9924,-5.9449,-5.9745,-6.0362,-6.1241,-5.9934,-5.9729,-6.1334,-5.9929,-5.9353,-6.0124,0.0,0.0,0.0,0.0,-6.0757,-6.0037,-6.0643,-6.0605,-5.9885,-5.9885,-5.9885,-5.9885,-5.9809,-5.9374,-5.8729,-5.9336,-5.8767,-5.746,-5.8218,-5.8085,-5.7554,-5.9033,-5.962,-5.9506,-5.871,-5.7933,-5.7156,0.0,0.0,0.0,0.0,0.0,0.0,0.0,0.0,0.0,0.0,0.0,0.0,0.0,0.0,0.0,0.0,0.0,0.0,0.0,0.0,0.0,0.0,0.0,0.0,0.0,0.0,0.0,0.0,0.0,0.0,0.0,0.0,0.0,0.0,0.0,0.0,0.0,0.0,0.0,0.0,0.0,0.0,-4.8855,-4.8707,-4.8633,-4.8614,-4.8447,-4.8391,-4.8426,-4.8765,-4.8889,-4.8931,-4.9275,0.0,0.0,0.0,0.0,0.0,0.0,0.0,0.0,0.0,0.0,0.0,0.0,0.0,0.0,0.0,0.0,0.0,0.0,0.0,0.0,-5.7091,-5.9956,-6.1703,-6.0586,-6.1279,-6.1601,-6.0778,-6.1054,-6.1691,-6.2553,-6.227,-6.2494,-6.3506,-6.2375,-6.1768,-6.2248,-6.1598,0.0,-6.1792,-6.133,-6.1022,-6.0871,-6.0378,-6.0037,-5.9885,0.0,0.0,-5.9866,-5.9222,-5.8843,-5.8653,-5.8123,-5.7687,-5.7403,-5.7573,-5.7554,-5.7422,-5.7763,-5.7876,-5.7782,-5.6967,-5.6569,-5.6304,0.0,0.0,0.0,0.0,0.0,0.0,0.0,0.0,0.0,0.0,0.0,0.0,0.0,0.0,0.0,0.0,0.0,0.0,0.0,0.0,0.0,0.0,0.0,0.0,0.0,0.0,0.0,0.0,0.0,0.0,0.0,0.0,0.0,0.0,0.0,0.0,0.0,0.0,0.0,0.0,0.0,0.0,-4.9739,-4.9328,-4.916,-4.916,-4.9061,-4.9046,-4.9168,-5.0,-5.0231,-5.0393,-5.128,-5.1247,-5.0535,0.0,0.0,0.0,0.0,0.0,0.0,0.0,0.0,0.0,0.0,0.0,0.0,0.0,0.0,-5.3677,0.0,0.0,-5.893,-6.058,-6.2021,-6.2633,-6.1747,-6.1908,-6.1807,-6.0877,-6.0792,-6.1446,-6.3125,-6.2502,-6.271,-6.4426,-6.3181,-6.2597,-6.3201,-6.2068,-6.1514,-6.1743,-6.1326,-6.0909,-6.0492,-6.0492,-6.0283,-5.9885,-5.9885,-5.9885,-5.9885,-5.9468,-5.8824,-5.8047,-5.8047,-5.7327,-5.6152,-5.6152,-5.6152,-5.6152,-5.6152,-5.6417,-5.6739,-5.6341,-5.5925,-5.5489,0.0,0.0,0.0,0.0,0.0,0.0,0.0,0.0,0.0,0.0,0.0,0.0,0.0,0.0,0.0,0.0,0.0,0.0,0.0,0.0,0.0,0.0,0.0,0.0,0.0,0.0,0.0,0.0,0.0,0.0,0.0,0.0,0.0,0.0,0.0,0.0,0.0,0.0,0.0,0.0,0.0,0.0,-5.0691,-4.9826,-4.9476,-4.9384,-4.9276,-4.9276,-4.9496,-5.0733,-5.1304,-5.1675,-5.302,-5.3454,-5.2932,-5.0344,-5.0562,0.0,0.0,0.0,0.0,0.0,0.0,0.0,0.0,0.0,-5.2513,-5.3995,-5.5231,-5.653,-5.8096,-5.9453,-6.1086,-6.3413,-6.306,-6.2568,-6.2839,-6.2372,-6.1766,-6.0998,-6.0588,-6.1174,-6.3183,-6.2292,-6.2444,-6.449,-6.341,-6.2936,-6.3581,-6.2178,-6.1345,-6.1345,-6.1193,-6.0776,-6.0132,-6.0605,-6.053,-5.9885,-5.9885,-5.9809,-5.9658,-5.9487,-5.8578,-5.7194,-5.7725,-5.6796,-5.4901,-5.4901,-5.4901,-5.4901,-5.4901,-5.5337,-5.5943,-5.5974,-5.5519,-5.4931,0.0,0.0,0.0,0.0,0.0,0.0,0.0,0.0,0.0,0.0,0.0,0.0,0.0,0.0,0.0,0.0,0.0,0.0,0.0,0.0,0.0,0.0,0.0,0.0,0.0,0.0,0.0,0.0,0.0,0.0,0.0,0.0,0.0,0.0,0.0,0.0,0.0,0.0,0.0,0.0,0.0,0.0,-5.1055,-5.0165,-4.9655,-4.9415,-4.9384,-4.9469,-4.9816,-5.0976,-5.1945,-5.2897,-5.3991,-5.4341,-5.3995,-5.2124,0.0,-5.0414,-4.8452,-4.8702,-5.0221,-5.3099,-5.3311,-5.3958,0.0,0.0,-5.8489,-5.9366,-6.1421,-6.2471,-6.0465,-6.2624,-6.4344,-6.3206,-6.344,-6.3809,-6.3828,-6.3067,-6.2477,-6.2302,-6.2193,-6.2235,-6.2519,-6.3012,-6.3448,-6.3732,-6.3581,-6.3524,-6.3619,-6.2747,-6.2254,-6.2254,-6.1496,-6.106,-6.0966,-6.034,-5.998,-5.9885,-5.9885,-5.9525,-5.8805,-5.8028,-5.7194,-5.6304,-5.5621,-5.5166,-5.4901,-5.4901,-5.4901,-5.4901,-5.4901,-5.4958,-5.5053,-5.5122,-5.5076,-5.5,0.0,0.0,0.0,0.0,0.0,0.0,0.0,0.0,0.0,0.0,0.0,0.0,0.0,0.0,0.0,0.0,0.0,0.0,0.0,0.0,0.0,0.0,0.0,0.0,0.0,0.0,0.0,0.0,0.0,0.0,0.0,0.0,0.0,0.0,0.0,0.0,0.0,0.0,0.0,0.0,0.0,0.0,-5.1054,-4.9709,-4.9159,-4.9094,-4.9012,-4.9059,0.0,0.0,-5.1108,-5.1809,-5.3898,-5.4207,-5.3456,-5.1703,-5.1645,0.0,-5.1279,-5.1337,0.0,0.0,-5.4932,-5.6044,-5.8577,-5.9198,-5.9606,-6.0893,-6.2768,-6.3866,-6.2796,-6.4133,-6.5012,0.0,-6.4314,-6.4455,-6.3501,-6.3402,-6.2833,-6.1343,-6.1514,-6.2132,-6.3012,-6.341,-6.3827,-6.432,-6.3903,-6.3619,-6.3619,-6.2368,-6.1648,-6.1648,-6.0833,-6.0397,-6.0397,-6.0056,-5.9885,-5.9885,-5.943,-5.9014,-5.8653,-5.7801,-5.6948,-5.6152,-5.528,-5.4901,-5.4901,-5.4901,-5.4901,-5.4901,-5.4941,-5.496,-5.496,-5.496,-5.499,-5.5,0.0,0.0,0.0,0.0,0.0,0.0,0.0,0.0,0.0,0.0,0.0,0.0,0.0,0.0,0.0,0.0,0.0,0.0,0.0,0.0,0.0,0.0,0.0,0.0,0.0,0.0,0.0,0.0,0.0,0.0,0.0,0.0,0.0,0.0,0.0,0.0,0.0,0.0,0.0,0.0,0.0,0.0,-5.0675,-4.9235,-4.877,-4.8814,-4.8517,-4.8471,0.0,0.0,-4.997,-5.0567,-5.2569,-5.2935,-5.2319,-5.0816,-5.1049,-5.1895,-5.2375,0.0,0.0,-5.4799,-5.6453,-5.795,-5.9019,-6.0021,-6.1064,-6.2164,-6.3733,-6.4775,-6.4267,-6.505,-6.5337,-6.4038,-6.4535,-6.4554,-6.3102,-6.3138,-6.2715,-6.1062,-6.1121,-6.1855,-6.3145,-6.305,-6.3183,-6.3808,-6.3278,-6.2917,-6.2917,-6.1345,-6.0435,-6.0435,-5.9866,-5.9449,-5.9203,-5.9449,-5.9449,-5.9184,-5.8616,-5.8218,-5.7971,-5.7099,-5.6398,-5.5811,-5.5166,-5.4901,-5.4901,-5.4901,-5.4901,-5.4901,-5.4941,-5.4971,-5.5,-5.496,-5.4971,-5.5057,0.0,0.0,0.0,0.0,0.0,0.0,0.0,0.0,0.0,0.0,0.0,0.0,0.0,0.0,0.0,0.0,0.0,0.0,0.0,0.0,0.0,0.0,0.0,0.0,0.0,0.0,0.0,0.0,0.0,0.0,0.0,0.0,0.0,0.0,0.0,0.0,0.0,0.0,0.0,0.0,0.0,0.0,-4.9841,-4.9007,-4.8712,-4.8624,-4.7981,0.0,0.0,0.0,-4.8861,-4.973,-4.976,-5.0267,0.0,-4.9814,-4.8931,0.0,0.0,0.0,-5.2741,-5.6088,-5.8184,-5.9854,-6.1516,-6.3162,-6.432,-6.424,-6.5551,-6.6192,-6.4526,-6.5547,-6.5853,-6.335,-6.3675,-6.3923,-6.3025,-6.2204,-6.1898,-6.2439,-6.1869,-6.1692,0.0,-6.1667,-6.1174,-6.1212,-6.1174,-6.1174,-6.1174,-5.9639,-5.8767,-5.8767,-5.8748,-5.8331,-5.7479,-5.8312,-5.8312,-5.7479,-5.7441,-5.7024,-5.6247,-5.5375,-5.4958,-5.4939,-5.492,-5.4901,-5.4901,-5.4901,-5.4901,-5.4901,-5.4901,-5.4941,-5.5,-5.5,-5.5066,-5.5203,0.0,0.0,0.0,0.0,0.0,0.0,0.0,0.0,0.0,0.0,0.0,0.0,0.0,0.0,0.0,0.0,0.0,0.0,0.0,0.0,0.0,0.0,0.0,0.0,0.0,0.0,0.0,0.0,0.0,0.0,0.0,0.0,0.0,0.0,0.0,0.0,0.0,0.0,0.0,0.0,0.0,0.0,-5.1282,-4.878,-4.8232,-4.8509,0.0,0.0,0.0,0.0,0.0,0.0,-4.828,0.0,0.0,-4.7713,-4.7545,-4.7798,0.0,0.0,-5.2722,-5.6145,-5.7857,-5.9146,-6.0815,-6.2035,-6.283,-6.2785,-6.2678,-6.2451,-6.1849,-6.1697,-6.1382,-6.0523,-6.1554,-6.2185,-6.1363,-6.1459,-6.102,-5.9481,-6.0042,0.0,0.0,0.0,0.0,-6.1098,-6.0094,-5.9506,-5.9506,-5.8445,-5.7839,-5.7839,-5.7839,-5.7687,-5.7403,-5.7687,-5.7687,-5.7384,-5.6853,-5.6152,-5.5337,-5.5034,-5.4901,-5.4901,-5.4901,-5.4901,-5.4901,-5.4901,-5.4931,-5.4971,-5.5028,-5.5066,-5.5149,-5.5214,-5.5286,-5.5339,0.0,0.0,0.0,0.0,0.0,0.0,0.0,0.0,0.0,0.0,0.0,0.0,0.0,0.0,0.0,0.0,0.0,0.0,0.0,0.0,0.0,0.0,0.0,0.0,0.0,0.0,0.0,0.0,0.0,0.0,0.0,0.0,0.0,0.0,0.0,0.0,0.0,0.0,0.0,0.0,0.0,0.0,-5.0353,-4.7818,-4.7264,0.0,0.0,0.0,0.0,0.0,0.0,0.0,0.0,-4.6437,-4.5908,-4.6694,-4.7104,-4.7875,-5.0433,-5.1741,-5.3203,-5.6607,-5.7896,-5.8819,-6.08,-6.1661,-6.2016,-6.1991,-6.1224,-6.043,-6.0097,-5.9297,-5.8574,-5.8268,-5.9109,-5.9625,-5.9109,-5.9243,-5.9054,-5.8187,-5.85,0.0,0.0,0.0,0.0,-6.0207,-5.8995,-5.8237,-5.8237,-5.7422,-5.6967,-5.6967,-5.6967,-5.6815,-5.6512,-5.6815,-5.6815,-5.6493,-5.5981,-5.5451,-5.4901,-5.4901,-5.4901,-5.4901,-5.4901,-5.4901,-5.4901,-5.4901,-5.496,-5.5,-5.5057,-5.5121,-5.5203,-5.5294,-5.5358,-5.5403,0.0,0.0,0.0,0.0,0.0,0.0,0.0,0.0,0.0,0.0,0.0,0.0,0.0,0.0,0.0,0.0,0.0,0.0,0.0,0.0,0.0,0.0,0.0,0.0,0.0,-4.3273,-4.3961,0.0,0.0,0.0,0.0,0.0,0.0,0.0,0.0,0.0,0.0,0.0,0.0,0.0,0.0,0.0,-4.739,-4.6312,0.0,0.0,0.0,0.0,0.0,0.0,0.0,0.0,0.0,0.0,-4.5924,-4.6738,-4.7567,-4.8779,-5.1298,-5.2568,-5.401,-5.7396,-5.8204,-5.8819,-6.132,-6.1897,-6.1877,-6.1785,-6.0923,-5.9933,0.0,0.0,-5.7313,-5.653,-5.6511,-5.6587,-5.6587,-5.5938,-5.6267,0.0,0.0,0.0,0.0,0.0,0.0,-5.8502,0.0,-5.7308,-5.727,-5.655,-5.6133,-5.6133,-5.6133,-5.5735,-5.492,-5.5716,-5.5716,-5.4901,-5.4901,-5.4901,-5.4901,-5.4901,-5.4901,-5.4901,-5.4901,-5.4901,-5.4901,-5.4901,-5.4941,-5.5,-5.5,-5.5094,-5.5203,-5.5203,-5.5294,-5.5403,0.0,0.0,0.0,0.0,0.0,0.0,0.0,0.0,0.0,0.0,0.0,0.0,0.0,0.0,0.0,0.0,0.0,0.0,0.0,0.0,0.0,0.0,0.0,0.0,0.0,0.0,0.0,0.0,0.0,0.0,0.0,0.0,0.0,0.0,0.0,0.0,0.0,0.0,0.0,0.0,0.0,0.0,-4.8738,0.0,0.0,0.0,0.0,0.0,0.0,0.0,0.0,0.0,0.0,-4.5417,-4.6771,-4.7621,-4.8894,-5.0452,-5.2356,-5.3029,-5.3876,-5.6626,-5.6838,-5.6876,-5.8819,-5.9261,-5.9088,-5.8412,-5.6499,-5.466,0.0,0.0,0.0,-5.3702,-5.5345,0.0,-5.6587,-5.6415,0.0,-5.6092,0.0,-5.6521,-5.6827,-5.6645,0.0,0.0,-5.6626,-5.6209,-5.5564,-5.5337,-5.5223,-5.5223,-5.5223,-5.5129,-5.4901,-5.5129,-5.5129,-5.4901,-5.4901,-5.4901,-5.4901,-5.4901,-5.4901,-5.4901,-5.4901,-5.4901,-5.4901,-5.4901,-5.4971,-5.5066,-5.5066,-5.5187,-5.5358,-5.5358,-5.5358,-5.5403,0.0,0.0,0.0,0.0,0.0,0.0,0.0,0.0,0.0,0.0,0.0,0.0,0.0,0.0,0.0,0.0,0.0,0.0,0.0,0.0,0.0,0.0,0.0,0.0,0.0,0.0,0.0,0.0,0.0,0.0,0.0,0.0,0.0,0.0,0.0,0.0,0.0,0.0,0.0,0.0,0.0,0.0,0.0,0.0,0.0,0.0,0.0,0.0,0.0,0.0,0.0,-4.4922,-4.4922,-4.608,-4.768,-4.8931,0.0,-5.1529,-5.2837,-5.3741,-5.4645,-5.6069,-5.6338,-5.6434,-5.7011,-5.7453,-5.7165,-5.5182,-5.3541,0.0,0.0,0.0,0.0,0.0,0.0,0.0,-5.5854,-5.5332,-5.5069,0.0,-5.5703,0.0,-5.6152,-5.619,-5.6038,0.0,-5.5621,-5.5413,-5.4939,-5.4901,-5.4901,-5.4901,-5.4901,-5.4901,-5.4901,-5.4901,-5.4901,-5.4901,-5.4901,-5.4901,-5.4901,-5.4901,-5.4901,-5.4901,0.0,-5.4901,-5.4901,-5.4901,-5.4941,-5.5,-5.4713,-5.489,-5.5255,-5.4963,-5.5078,-5.5403,0.0,0.0,0.0,0.0,0.0,0.0,0.0,0.0,0.0,0.0,0.0,0.0,0.0,0.0,0.0,0.0,0.0,0.0,0.0,0.0,0.0,0.0,0.0,0.0,0.0,0.0,0.0,0.0,0.0,0.0,0.0,0.0,0.0,0.0,0.0,0.0,0.0,0.0,0.0,0.0,0.0,0.0,0.0,0.0,0.0,0.0,0.0,0.0,0.0,0.0,-4.5552,-4.5932,-4.5932,-4.7086,-4.8759,-5.0375,-5.1529,-5.2433,-5.3299,-5.4511,-5.5568,-5.5665,-5.6088,-5.6299,-5.553,-5.5857,-5.5412,-5.2197,0.0,-5.0785,-4.9152,0.0,-5.0302,-5.1276,0.0,-5.2545,-5.4886,-5.3944,-5.3769,-5.5883,-5.5455,-5.5274,-5.5943,-5.6019,-5.5716,-5.4958,-5.4901,-5.4901,-5.4901,-5.4901,-5.4901,-5.4901,-5.4901,-5.4901,-5.4901,-5.4901,-5.4901,-5.4901,-5.4787,-5.4806,-5.4901,-5.4787,-5.475,-5.475,0.0,0.0,-5.4579,-5.4579,-5.4695,-5.4772,-5.4153,-5.4444,-5.5134,-5.4499,-5.4753,-5.5403,0.0,0.0,0.0,0.0,0.0,0.0,0.0,0.0,0.0,0.0,-3.5745,0.0,0.0,0.0,0.0,0.0,0.0,0.0,0.0,0.0,0.0,0.0,0.0,0.0,0.0,0.0,0.0,0.0,0.0,0.0,0.0,0.0,0.0,0.0,0.0,0.0,0.0,0.0,0.0,0.0,0.0,0.0,0.0,0.0,0.0,0.0,0.0,0.0,0.0,0.0,-4.6584,-4.7663,-4.7663,-4.8856,-5.0433,-5.1414,-5.2818,-5.4222,-5.503,-5.4991,-5.4876,-5.553,-5.4761,-5.3797,-5.3582,-5.3159,0.0,0.0,0.0,-4.8252,-4.7235,-4.7709,0.0,-5.0283,0.0,0.0,0.0,0.0,-5.4827,0.0,0.0,0.0,0.0,0.0,0.0,0.0,0.0,-5.4901,-5.4901,-5.4901,-5.4901,-5.4901,-5.4901,-5.4901,-5.4901,-5.4901,-5.4901,-5.4901,-5.4238,-5.4257,-5.4882,-5.4219,-5.3916,-5.3916,-5.3916,0.0,-5.2836,-5.2836,-5.331,-5.3993,-5.3925,-5.4425,-5.521,-5.5186,-5.5269,-5.5403,0.0,0.0,0.0,0.0,0.0,0.0,0.0,0.0,0.0,0.0,-3.5531,-3.6327,0.0,0.0,0.0,0.0,0.0,0.0,0.0,0.0,0.0,0.0,0.0,0.0,0.0,0.0,0.0,0.0,0.0,0.0,0.0,0.0,0.0,0.0,0.0,0.0,0.0,0.0,0.0,0.0,0.0,0.0,0.0,0.0,0.0,0.0,0.0,0.0,0.0,0.0,-4.6486,-4.7652,-4.8029,-4.9039,-5.0359,-5.1782,-5.2805,-5.3671,-5.4687,-5.5001,-5.502,-5.4981,-5.4367,-5.3426,-5.2058,0.0,0.0,0.0,0.0,-4.6967,-4.6084,0.0,0.0,0.0,0.0,0.0,0.0,0.0,0.0,0.0,0.0,0.0,0.0,0.0,0.0,0.0,0.0,0.0,-5.4901,-5.4901,-5.4901,-5.4901,-5.4901,-5.4901,-5.4901,-5.4484,-5.4276,-5.4276,-5.3423,-5.3461,-5.4257,-5.3878,-5.3935,-5.4295,-5.3878,0.0,-5.3044,-5.2589,-5.294,-5.3651,-5.2889,-5.3389,-5.4463,-5.4148,-5.4333,-5.4791,0.0,0.0,0.0,0.0,0.0,0.0,0.0,-3.3726,-3.4627,-3.4576,-3.5409,-3.6293,-3.6962,-3.7832,-3.8459,0.0,0.0,0.0,0.0,0.0,0.0,0.0,0.0,0.0,0.0,0.0,0.0,0.0,0.0,0.0,0.0,0.0,0.0,0.0,0.0,0.0,0.0,0.0,0.0,0.0,0.0,0.0,0.0,0.0,0.0,0.0,0.0,0.0,0.0,0.0,-4.5761,-4.6644,-4.7421,-4.8499,-4.9825,-5.1402,-5.2289,-5.2946,-5.3719,-5.4556,-5.5044,-5.4239,-5.3894,-5.3127,-5.0768,-5.0076,0.0,0.0,-4.5875,-4.6103,-4.5411,0.0,0.0,0.0,0.0,0.0,0.0,0.0,0.0,0.0,0.0,0.0,0.0,0.0,0.0,0.0,0.0,0.0,-5.4901,-5.4901,-5.4901,-5.4901,-5.4731,-5.4636,-5.4636,-5.4029,-5.3613,-5.3404,-5.2741,-5.2873,-5.3688,-5.3518,-5.3764,-5.4333,-5.3707,0.0,0.0,-5.2153,-5.2381,-5.3054,-5.1863,-5.2315,-5.356,-5.3003,-5.3225,-5.3913,0.0,0.0,0.0,0.0,0.0,0.0,0.0,-3.3584,-3.4295,-3.3634,-3.5396,-3.6751,-3.6818,-3.7648,-3.8777,0.0,0.0,0.0,0.0,0.0,0.0,0.0,0.0,0.0,0.0,0.0,0.0,0.0,0.0,0.0,0.0,0.0,0.0,0.0,0.0,0.0,0.0,0.0,0.0,0.0,0.0,0.0,0.0,0.0,0.0,0.0,0.0,0.0,0.0,0.0,0.0,-4.4784,-4.5608,-4.7564,-4.9618,-4.9825,0.0,0.0,-5.2844,-5.3517,-5.42,-5.3338,-5.2571,-5.1554,-4.9729,0.0,0.0,-4.57,-4.5333,-4.5309,-4.5233,-4.5281,0.0,0.0,0.0,0.0,0.0,0.0,0.0,0.0,0.0,0.0,0.0,0.0,0.0,0.0,0.0,0.0,-5.4901,-5.4901,-5.4901,-5.4901,-5.42,-5.3821,-5.3821,-5.3745,-5.3309,-5.2532,-5.2456,-5.2873,-5.3669,-5.2892,-5.257,-5.2627,-5.2551,0.0,0.0,-5.0144,-5.0692,-5.1505,-5.1414,-5.1986,-5.2819,-5.2799,-5.2843,-5.2919,0.0,0.0,0.0,0.0,0.0,0.0,0.0,-3.2493,-3.322,-3.3389,-3.4573,-3.5757,-3.6671,-3.7526,-3.8438,0.0,0.0,0.0,0.0,0.0,0.0,0.0,0.0,0.0,0.0,0.0,0.0,0.0,0.0,0.0,0.0,0.0,0.0,0.0,0.0,0.0,0.0,0.0,0.0,0.0,0.0,0.0,0.0,0.0,0.0,0.0,0.0,0.0,0.0,0.0,0.0,0.0,-4.4053,-4.522,0.0,0.0,-4.9832,-5.0974,-5.2077,-5.2726,-5.3067,-5.293,-5.1863,-5.0581,-4.9392,0.0,0.0,-4.5483,-4.5213,-4.5192,-4.5148,-4.5103,-4.5266,0.0,0.0,0.0,0.0,0.0,0.0,0.0,0.0,0.0,0.0,0.0,0.0,0.0,0.0,0.0,-5.3442,-5.4352,-5.4674,-5.42,-5.3878,-5.3461,-5.293,-5.2438,-5.2267,-5.24,-5.1926,-5.24,-5.3688,-5.3347,-5.3177,-5.3158,-5.2627,0.0,0.0,-5.0107,-5.0437,-5.1204,-5.0779,-5.1161,-5.1929,-5.203,-5.2079,-5.2155,0.0,0.0,0.0,0.0,0.0,0.0,-3.1258,-3.1816,-3.2544,-3.3305,-3.4032,-3.4996,-3.6299,-3.711,-3.7787,-3.8294,0.0,0.0,0.0,0.0,0.0,0.0,0.0,0.0,0.0,0.0,0.0,0.0,0.0,0.0,0.0,0.0,0.0,0.0,0.0,0.0,0.0,0.0,0.0,0.0,0.0,0.0,0.0,0.0,0.0,0.0,0.0,0.0,0.0,0.0,0.0,0.0,0.0,0.0,0.0,0.0,-4.8012,-4.8983,-5.0441,-5.1336,-5.1869,-5.1832,-5.0849,-4.9682,0.0,0.0,0.0,-4.5341,-4.5148,-4.5125,-4.508,-4.5033,-4.4967,0.0,0.0,0.0,0.0,0.0,0.0,0.0,0.0,0.0,0.0,0.0,0.0,0.0,0.0,0.0,0.0,-5.3705,-5.4103,-5.3347,-5.3328,-5.2911,-5.2059,-5.149,-5.149,-5.204,-5.1471,-5.1945,-5.3328,-5.3328,-5.3196,-5.2949,0.0,0.0,0.0,-5.0144,-5.0285,-5.0797,-5.0304,-5.0488,-5.1072,-5.1171,-5.1219,-5.1295,0.0,0.0,0.0,0.0,0.0,0.0,0.0,-3.1816,-3.2544,-3.3305,-3.4032,-3.4776,-3.5537,-3.6332,-3.6789,-3.6806,0.0,0.0,0.0,0.0,0.0,0.0,0.0,0.0,0.0,0.0,0.0,-3.9524,-3.9506,0.0,0.0,0.0,0.0,0.0,0.0,0.0,0.0,0.0,0.0,0.0,0.0,0.0,0.0,0.0,0.0,0.0,0.0,0.0,0.0,0.0,0.0,0.0,0.0,0.0,0.0,0.0,-4.6416,-4.8419,-4.757,-4.9043,-5.0627,-4.9824,-4.9273,-4.868,0.0,0.0,0.0,-4.5274,-4.5057,-4.4991,-4.4991,-4.4962,-4.4895,-4.4895,0.0,0.0,0.0,0.0,0.0,0.0,0.0,0.0,0.0,0.0,0.0,0.0,0.0,0.0,0.0,-5.2956,-5.3093,-5.2438,-5.2419,-5.204,-5.1225,-5.1206,-5.1206,-5.1225,-5.1206,-5.1642,-5.2419,-5.2419,-5.1983,0.0,0.0,0.0,0.0,-4.9898,-4.9952,-5.0005,-5.0082,-5.0158,-5.0207,-5.0298,-5.0302,-5.0302,0.0,0.0,0.0,0.0,0.0,0.0,0.0,-3.2138,-3.273,-3.3981,-3.4793,-3.5757,-3.7043,-3.7855,-3.8294,-3.8294,0.0,0.0,0.0,0.0,0.0,0.0,0.0,0.0,0.0,0.0,0.0,-4.0538,-3.9461,-3.9283,0.0,0.0,0.0,0.0,0.0,0.0,0.0,0.0,0.0,0.0,0.0,0.0,0.0,0.0,0.0,0.0,0.0,0.0,0.0,0.0,0.0,0.0,0.0,0.0,0.0,0.0,0.0,0.0,-4.6336,-4.7036,-4.7634,-4.7834,-4.7359,-4.6847,-4.6787,0.0,0.0,-4.5114,-4.5014,-4.4986,-4.4943,-4.4919,-4.506,-4.55,-4.5542,0.0,0.0,0.0,0.0,0.0,0.0,0.0,0.0,0.0,0.0,0.0,0.0,0.0,0.0,-5.2027,-5.2537,-5.2419,-5.1888,-5.1471,-5.1206,-5.0618,-5.0884,-5.2021,-5.1471,-5.2229,-5.4086,-5.3537,0.0,0.0,0.0,0.0,0.0,-4.9898,-4.9952,-5.0005,-5.0082,-5.0158,-5.0212,-5.0278,-5.0302,-5.0302,0.0,0.0,0.0,0.0,0.0,0.0,0.0,-3.2036,-3.2493,-3.4269,-3.4895,-3.5774,-3.7313,-3.8142,-3.8464,-3.8176,0.0,0.0,0.0,0.0,0.0,0.0,0.0,0.0,0.0,0.0,-3.91,-4.0535,-3.9593,-3.9281,-3.9623,-3.922,-3.9454,0.0,0.0,0.0,0.0,0.0,0.0,0.0,0.0,0.0,-4.29,0.0,0.0,0.0,0.0,0.0,0.0,0.0,0.0,0.0,0.0,0.0,0.0,0.0,0.0,0.0,0.0,-4.5643,-4.611,-4.6551,-4.6242,0.0,0.0,0.0,0.0,0.0,-4.4919,-4.487,-4.4821,-4.477,-4.4908,-4.531,-4.5594,0.0,0.0,0.0,0.0,0.0,0.0,0.0,0.0,0.0,0.0,0.0,0.0,0.0,0.0,-5.1206,-5.1824,-5.2275,-5.1594,-5.1054,-5.0713,-5.0505,-5.0903,-5.1945,-5.1452,-5.2021,-5.3499,-5.3309,0.0,0.0,0.0,0.0,0.0,-4.9925,-4.9978,-5.0005,-5.0108,-5.0163,-5.0212,-5.0278,-5.0302,-5.0302,0.0,0.0,0.0,0.0,0.0,0.0,0.0,0.0,0.0,0.0,-3.4539,-3.5165,-3.6688,-3.7533,-3.7702,0.0,0.0,0.0,0.0,0.0,0.0,0.0,0.0,0.0,0.0,-4.088,-4.0393,-3.9836,-3.9729,-3.9226,-3.8355,-3.8301,-3.8701,-3.955,-3.955,0.0,0.0,0.0,0.0,0.0,0.0,0.0,0.0,0.0,0.0,0.0,0.0,0.0,0.0,0.0,0.0,0.0,0.0,0.0,0.0,0.0,0.0,0.0,0.0,0.0,0.0,0.0,0.0,0.0,0.0,0.0,0.0,0.0,0.0,0.0,-4.4716,-4.4616,-4.4552,-4.4637,-4.5177,0.0,0.0,0.0,0.0,0.0,0.0,0.0,0.0,0.0,0.0,0.0,0.0,0.0,0.0,-5.045,-5.098,-5.1963,-5.1424,-5.0751,-4.9993,-5.0732,-5.1149,-5.1206,-5.1149,-5.1187,-5.1319,-5.2002,0.0,0.0,0.0,0.0,0.0,-4.9959,-5.0005,-5.0031,-5.0139,-5.0188,-5.0212,-5.0278,-5.0302,-5.0302,0.0,0.0,0.0,0.0,0.0,0.0,0.0,0.0,0.0,0.0,-3.4996,-3.5943,-3.7466,-3.8294,-3.8667,0.0,0.0,0.0,0.0,0.0,0.0,0.0,0.0,0.0,0.0,-3.9296,-3.9477,-4.0162,-3.9065,-3.9017,-3.9948,-3.9013,-3.9499,-4.1162,-4.1162,0.0,0.0,0.0,0.0,0.0,0.0,0.0,0.0,0.0,0.0,0.0,-4.2609,-4.2609,0.0,0.0,0.0,0.0,0.0,0.0,0.0,0.0,-4.2548,-4.2663,-4.2799,0.0,-4.3613,-4.3923,-4.3915,0.0,0.0,0.0,0.0,0.0,0.0,0.0,0.0,0.0,-4.4871,-4.599,-4.6333,0.0,0.0,0.0,0.0,0.0,0.0,0.0,0.0,0.0,0.0,0.0,0.0,0.0,0.0,-4.9842,-5.0072,-5.093,-5.0478,-5.0429,-5.0884,-5.0448,-5.0542,-5.1206,-5.0523,-5.0884,-5.2115,-5.1679,0.0,0.0,0.0,0.0,-4.9978,-5.0005,-5.0038,-5.0158,-5.0188,-5.0212,-5.0278,-5.0302,-5.0302,-5.0302,0.0,0.0,0.0,0.0,0.0,0.0,0.0,0.0,0.0,0.0,0.0,0.0,0.0,0.0,0.0,0.0,0.0,0.0,0.0,0.0,0.0,0.0,0.0,0.0,0.0,-3.9268,-3.938,-3.9811,-3.8868,-3.8783,-3.9459,-3.8706,-3.9301,-4.1051,-4.1773,0.0,0.0,0.0,0.0,0.0,-4.2609,0.0,0.0,0.0,0.0,0.0,-4.249,-4.2217,0.0,-4.1823,-4.1841,-4.1895,0.0,0.0,0.0,0.0,-4.2427,-4.245,-4.2503,-4.2606,-4.2765,-4.2976,-4.3105,-4.3249,0.0,0.0,0.0,0.0,0.0,0.0,0.0,0.0,0.0,0.0,0.0,0.0,0.0,0.0,0.0,0.0,0.0,0.0,0.0,0.0,0.0,0.0,0.0,0.0,0.0,-4.9674,-4.979,-5.0566,-5.0128,-5.0126,-5.0599,-5.0523,-5.0523,-5.0599,-5.0523,-5.0751,-5.1244,-5.1225,-5.0978,0.0,0.0,0.0,-5.0005,-5.0031,-5.0108,-5.0188,-5.0236,-5.0278,-5.0302,-5.0302,-5.0302,-5.0302,0.0,0.0,0.0,0.0,0.0,0.0,0.0,0.0,0.0,0.0,0.0,0.0,0.0,0.0,0.0,0.0,0.0,0.0,0.0,0.0,0.0,0.0,0.0,0.0,0.0,-3.9935,-3.9799,-3.9395,-3.8911,-3.8572,-3.8382,-3.7945,-3.8722,-4.05,-4.2085,0.0,0.0,0.0,0.0,0.0,-4.2606,0.0,0.0,0.0,0.0,0.0,0.0,0.0,0.0,-4.1556,-4.1395,-4.102,-4.1591,0.0,0.0,0.0,0.0,0.0,-4.2266,-4.2418,-4.257,-4.2609,-4.2806,-4.2995,0.0,0.0,0.0,0.0,0.0,0.0,0.0,0.0,0.0,0.0,0.0,0.0,0.0,0.0,0.0,0.0,0.0,0.0,0.0,0.0,0.0,0.0,0.0,0.0,0.0,-4.9618,-4.9715,-5.0397,-5.0071,-4.9898,-4.9898,-5.0637,-5.0637,-4.9898,-5.0656,-5.0618,-4.9917,-5.0656,-5.0599,0.0,0.0,0.0,-5.0031,-5.0082,-5.0139,-5.0212,-5.0278,-5.0302,-5.0302,-5.0302,-5.0302,-5.0302,0.0,0.0,0.0,0.0,0.0,0.0,0.0,0.0,0.0,0.0,0.0,0.0,0.0,0.0,0.0,0.0,0.0,0.0,0.0,0.0,0.0,0.0,0.0,0.0,0.0,0.0,0.0,-4.0229,-3.8939,-3.8439,-3.8701,-3.7629,-3.8729,-4.1629,-4.2882,-4.3811,-4.4402,-4.3674,-4.3364,-4.331,-4.2614,0.0,0.0,0.0,0.0,0.0,0.0,0.0,0.0,-3.9521,-3.9682,-4.0003,-3.9504,0.0,0.0,0.0,0.0,0.0,-4.1288,-4.1828,-4.2369,-4.257,-4.2588,-4.2606,0.0,0.0,0.0,0.0,0.0,0.0,0.0,0.0,0.0,0.0,0.0,0.0,0.0,0.0,0.0,0.0,0.0,0.0,0.0,0.0,0.0,0.0,0.0,0.0,0.0,0.0,-4.9471,-4.9584,-4.9797,-4.9898,-4.9898,-5.0031,-5.0031,-4.9898,-5.0031,-5.0031,-4.9898,-5.0031,-5.0031,0.0,0.0,-5.0164,-5.0082,-5.0158,-5.0212,-5.0278,-5.0302,-5.0302,-5.0302,-5.0302,-5.0302,-5.0302,0.0,0.0,0.0,0.0,0.0,0.0,0.0,0.0,0.0,0.0,0.0,0.0,0.0,0.0,0.0,0.0,0.0,0.0,0.0,0.0,0.0,0.0,0.0,0.0,0.0,0.0,0.0,0.0,-3.7987,-3.7456,-3.7665,-3.8459,-3.9781,-4.1499,-4.334,-4.4371,-4.4693,-4.425,-4.4107,-4.4036,0.0,0.0,0.0,0.0,0.0,0.0,0.0,0.0,0.0,0.0,-3.9361,-3.9325,-3.9397,0.0,0.0,0.0,0.0,0.0,-4.0985,-4.1359,-4.1792,-4.2302,-4.2409,-4.2387,0.0,0.0,0.0,0.0,0.0,0.0,0.0,0.0,0.0,0.0,0.0,0.0,0.0,0.0,0.0,0.0,0.0,0.0,0.0,0.0,0.0,0.0,0.0,0.0,0.0,0.0,-4.9446,-4.9555,-4.9769,-4.9898,-4.9898,-4.9898,-4.9898,-4.9898,-4.9898,-4.9898,-4.9898,-4.9898,-4.9898,-4.9879,0.0,-4.9986,-5.0108,-5.0133,-5.0207,-5.0302,-5.0302,-5.0302,-5.0302,-5.0302,-5.0302,-5.0302,0.0,0.0,0.0,0.0,0.0,0.0,0.0,0.0,0.0,0.0,0.0,0.0,0.0,0.0,0.0,0.0,0.0,0.0,0.0,0.0,0.0,0.0,0.0,0.0,0.0,0.0,-3.8299,-3.8212,-3.7082,-3.6565,-3.6738,-3.9145,-4.0697,-4.1552,-4.3868,-4.4999,-4.516,-4.4963,-4.4892,-4.4821,0.0,0.0,0.0,0.0,0.0,0.0,0.0,0.0,0.0,0.0,0.0,0.0,0.0,0.0,0.0,-3.9361,-3.9504,-3.9825,-4.061,-4.0967,-4.1288,-4.2091,0.0,0.0,0.0,0.0,0.0,0.0,0.0,0.0,0.0,0.0,0.0,0.0,0.0,0.0,0.0,0.0,0.0,0.0,0.0,0.0,0.0,0.0,0.0,0.0,0.0,0.0,0.0,0.0,-4.9476,-4.9692,-4.9843,-4.9898,-4.9898,-4.9898,-4.9898,-4.9898,-4.9898,-4.9898,-4.9898,-4.9898,-4.9898,-4.9879,-4.9933,-5.0005,-5.0108,-5.0133,-5.0207,-5.0302,-5.0302,-5.0302,-5.0302,-5.0302,-5.0302,-5.0302,0.0,0.0,0.0,0.0,0.0,0.0,0.0,0.0,0.0,0.0,0.0,0.0,0.0,0.0,0.0,0.0,0.0,0.0,0.0,0.0,0.0,0.0,0.0,0.0,0.0,-3.8612,-3.8212,-3.8212,-3.6771,-3.6267,-3.6738,-3.8849,-4.0819,-4.2695,-4.4787,-4.6123,-4.6766,-4.6034,-4.5713,-4.5588,-4.4107,0.0,0.0,0.0,0.0,0.0,0.0,0.0,0.0,0.0,0.0,0.0,0.0,0.0,-3.7755,-3.7755,-3.829,-3.9058,-3.9789,-4.0538,-4.1288,-4.2091,0.0,0.0,0.0,0.0,0.0,0.0,0.0,0.0,0.0,0.0,0.0,0.0,0.0,0.0,0.0,0.0,0.0,0.0,0.0,0.0,0.0,0.0,0.0,0.0,0.0,0.0,0.0,0.0,0.0,-4.9692,-4.9843,-4.9898,-4.9898,-4.9898,-4.9898,-4.9898,-4.9898,-4.9898,-4.9898,-4.9898,-4.9898,-4.9925,-5.0031,-5.0082,-5.0108,-5.0231,-5.0302,-5.0302,-5.0302,-5.0302,-5.0302,-5.0302,-5.0302,-5.0302,0.0,0.0,0.0,0.0,0.0,0.0,0.0,0.0,0.0,0.0,0.0,0.0,0.0,0.0,0.0,0.0,0.0,0.0,0.0,0.0,0.0,0.0,0.0,-4.0143,-3.9395,-3.8181,-3.7533,-3.7533,-3.6042,-3.6223,-3.7905,-3.9675,-4.1723,-4.3953,-4.573,-4.6159,-4.5552,-4.6248,-4.5963,-4.5017,-4.4428,-4.4196,0.0,0.0,0.0,0.0,0.0,0.0,0.0,0.0,-3.7577,0.0,0.0,0.0,-3.7577,-3.7577,-3.7809,-3.8219,-3.9004,-3.9771,-4.0556,-4.1341,0.0,0.0,0.0,0.0,0.0,0.0,0.0,0.0,0.0,0.0,0.0,0.0,0.0,0.0,0.0,0.0,0.0,0.0,0.0,0.0,0.0,0.0,0.0,0.0,0.0,0.0,0.0,0.0,0.0,-4.9816,-4.9378,-4.9386,-4.9898,-4.9386,-4.9386,-4.9898,-4.9898,-4.9898,-4.9898,-4.9898,-4.9906,-4.9978,-5.0031,-5.0082,-5.0182,-5.0231,-5.0278,-5.0302,-5.0302,-5.0302,-5.0302,-5.0302,-5.0302,-5.0302,0.0,0.0,0.0,0.0,0.0,0.0,0.0,0.0,0.0,0.0,0.0,0.0,0.0,0.0,0.0,0.0,0.0,0.0,0.0,0.0,0.0,0.0,0.0,-3.9934,-3.8957,-3.7963,-3.7334,-3.7102,-3.5628,-3.5954,-3.8002,-3.9559,-4.1163,-4.2793,-4.4597,-4.4668,-4.3518,-4.4845,-4.4883,-4.4058,-4.4014,-4.4102,0.0,0.0,0.0,0.0,0.0,0.0,0.0,0.0,0.0,0.0,0.0,0.0,0.0,0.0,-3.7577,-3.7773,-3.8594,-3.9343,-4.011,0.0,0.0,0.0,0.0,0.0,0.0,0.0,0.0,0.0,0.0,0.0,0.0,0.0,0.0,0.0,0.0,0.0,0.0,0.0,0.0,0.0,0.0,0.0,0.0,0.0,0.0,0.0,0.0,0.0,0.0,0.0,-4.9216,-4.9216,-4.95,-4.9216,-4.9349,-4.9898,-4.9898,-4.9898,-4.9898,-4.9906,-4.9952,-5.0005,-5.0038,-5.0133,-5.0188,-5.0212,-5.0255,-5.0302,-5.0302,-5.0302,-5.0302,-5.0302,-5.0302,-5.0302,0.0,0.0,0.0,0.0,0.0,0.0,0.0,0.0,0.0,0.0,0.0,0.0,0.0,0.0,0.0,0.0,0.0,0.0,0.0,0.0,0.0,0.0,0.0,-3.9702,-3.8245,-3.8212,-3.7847,-3.7102,-3.5644,-3.5566,-3.6772,-3.8275,-3.8897,-3.8735,-4.1012,-4.1583,-4.0926,-4.1687,-4.2317,-4.2765,-4.2738,-4.3041,-4.334,0.0,0.0,0.0,0.0,0.0,0.0,0.0,-3.7612,0.0,0.0,0.0,0.0,0.0,-3.7594,-3.7773,-3.8576,-3.9343,0.0,0.0,0.0,0.0,0.0,0.0,0.0,0.0,0.0,0.0,0.0,0.0,0.0,0.0,0.0,0.0,0.0,0.0,0.0,0.0,0.0,0.0,0.0,0.0,0.0,0.0,0.0,0.0,0.0,0.0,0.0,0.0,-4.9462,-4.95,-4.8704,-4.9481,-4.9879,-4.9898,-4.9898,-4.9898,-4.9879,-4.9978,-5.0005,-5.0005,-5.0139,-5.0188,-5.0207,-5.0278,-5.0302,-5.0302,-5.0302,-5.0302,-5.0302,-5.0302,-5.0302,-5.0302,0.0,0.0,0.0,0.0,0.0,0.0,0.0,0.0,0.0,0.0,0.0,0.0,0.0,0.0,0.0,0.0,0.0,0.0,0.0,0.0,0.0,0.0,0.0,0.0,0.0,0.0,-3.7847,-3.7102,-3.6671,-3.7352,0.0,0.0,0.0,-4.1029,-4.1704,-4.1152,-3.987,-4.1751,-4.2194,-4.1712,-4.2807,-4.3355,-4.3393,0.0,0.0,0.0,0.0,0.0,0.0,0.0,0.0,0.0,0.0,0.0,0.0,-3.7755,-3.7987,-3.838,-3.8041,0.0,0.0,0.0,0.0,0.0,0.0,0.0,0.0,0.0,0.0,0.0,0.0,0.0,0.0,0.0,0.0,0.0,0.0,0.0,0.0,0.0,0.0,0.0,0.0,0.0,0.0,0.0,0.0,0.0,0.0,0.0,0.0,0.0,-4.8913,-4.9197,-4.9538,-4.9216,-4.933,-4.9898,-4.9952,-4.9978,-4.9978,-5.0005,-5.0038,-5.0139,-5.0188,-5.0231,-5.0278,-5.0302,-5.0302,-5.0302,-5.0302,-5.0302,-5.0302,-5.0302,-5.0302,-5.0302,0.0,0.0,0.0,0.0,0.0,0.0,0.0,0.0,0.0,0.0,0.0,0.0,0.0,0.0,0.0,0.0,0.0,0.0,0.0,0.0,0.0,0.0,0.0,0.0,0.0,-3.8576,-3.8129,0.0,0.0,0.0,0.0,0.0,-3.9581,-3.9982,-4.0288,-3.9498,-3.8036,-3.9959,-4.036,-3.9852,-4.1335,-4.21,-4.2308,0.0,0.0,0.0,0.0,0.0,0.0,0.0,0.0,0.0,0.0,0.0,0.0,-3.7826,-3.8165,-3.8701,-3.8201,0.0,0.0,0.0,0.0,0.0,0.0,0.0,0.0,0.0,0.0,0.0,0.0,0.0,0.0,0.0,0.0,0.0,0.0,0.0,0.0,0.0,0.0,0.0,0.0,0.0,0.0,0.0,0.0,0.0,0.0,0.0,0.0,0.0,-4.8818,-4.9083,-4.8894,-4.8761,-4.8787,-4.8946,-4.8991,-4.9024,-4.9112,-4.9778,-5.0114,-5.0188,-5.0231,-5.0278,-5.0283,-4.9958,-4.9824,-4.9824,-4.9824,-4.9824,-4.9862,-5.0187,-5.0302,-5.0302,0.0,0.0,0.0,0.0,0.0,0.0,0.0,0.0,0.0,0.0,0.0,0.0,0.0,0.0,0.0,0.0,0.0,0.0,0.0,0.0,0.0,0.0,0.0,0.0,0.0,0.0,0.0,0.0,0.0,0.0,0.0,0.0,-3.7727,-3.6832,0.0,-3.7164,-3.5927,-3.714,-3.77,-3.7846,-3.9126,-4.0086,-4.072,-4.1122,0.0,0.0,0.0,0.0,0.0,0.0,0.0,0.0,0.0,0.0,0.0,-3.7844,-3.8219,-3.8897,0.0,0.0,0.0,0.0,0.0,0.0,0.0,0.0,0.0,0.0,0.0,0.0,0.0,0.0,0.0,0.0,0.0,0.0,0.0,0.0,0.0,0.0,0.0,0.0,0.0,0.0,0.0,0.0,0.0,0.0,0.0,0.0,0.0,0.0,-4.8837,-4.8932,-4.7397,-4.8174,-4.8226,0.0,-4.7523,-4.7571,-4.7747,-4.9272,-4.9978,-4.9983,-5.0049,-5.0073,-5.0015,-4.927,-4.8965,-4.8965,-4.8965,-4.9022,-4.9175,-4.992,-5.0245,-5.0302,0.0,0.0,0.0,0.0,0.0,0.0,0.0,0.0,0.0,0.0,0.0,0.0,0.0,0.0,0.0,0.0,0.0,0.0,0.0,0.0,0.0,0.0,0.0,0.0,0.0,0.0,0.0,0.0,0.0,0.0,0.0,0.0,0.0,-3.6058,0.0,-3.6804,-3.6298,-3.7135,-3.7984,-3.8925,-3.9778,-4.0542,-4.1168,-4.1258,-4.1542,0.0,0.0,0.0,0.0,0.0,0.0,0.0,-3.9914,-3.9664,-3.9397,-3.8005,-3.8576,0.0,0.0,0.0,0.0,0.0,0.0,0.0,0.0,0.0,0.0,0.0,0.0,0.0,0.0,0.0,0.0,0.0,0.0,0.0,0.0,0.0,0.0,0.0,0.0,0.0,0.0,0.0,0.0,0.0,0.0,0.0,0.0,0.0,0.0,-4.6506,-4.7416,-4.7757,-4.7397,-4.7637,-4.7663,0.0,-4.7615,-4.7686,-4.7709,-4.8071,-4.8266,-4.8331,-4.8312,-4.8353,-4.8334,-4.8162,-4.8086,-4.8086,-4.8086,-4.8506,-4.9117,-4.9289,-4.9748,-5.0302,0.0,0.0,0.0,0.0,0.0,0.0,0.0,0.0,0.0,0.0,0.0,0.0,0.0,0.0,0.0,0.0,0.0,0.0,0.0,0.0,0.0,0.0,0.0,0.0,0.0,0.0,0.0,0.0,0.0,0.0,0.0,0.0,0.0,-3.6865,0.0,-3.7145,-3.7053,-3.7645,-3.8063,-3.8438,-3.912,-3.9817,-4.0494,-4.0733,-4.1258,-4.1959,-4.2187,0.0,0.0,0.0,0.0,0.0,0.0,0.0,-3.9682,-3.8504,-3.8736,-3.9379,0.0,0.0,0.0,0.0,0.0,0.0,0.0,0.0,0.0,0.0,0.0,0.0,0.0,0.0,0.0,0.0,0.0,0.0,0.0,0.0,0.0,0.0,0.0,0.0,0.0,0.0,0.0,0.0,0.0,0.0,0.0,-4.7264,-4.6733,-4.5066,-4.6184,-4.6474,-4.5683,-4.6505,-4.6345,-4.5194,-4.6104,-4.653,-4.659,-4.7392,-4.7754,-4.7799,-4.7799,-4.7799,-4.778,-4.736,-4.7188,-4.7188,-4.7188,-4.7723,-4.8525,-4.8945,-4.9614,-5.0302,0.0,0.0,0.0,0.0,0.0,0.0,0.0,0.0,0.0,0.0,0.0,0.0,0.0,0.0,0.0,0.0,0.0,0.0,0.0,0.0,0.0,0.0,0.0,0.0,0.0,0.0,0.0,0.0,0.0,0.0,0.0,0.0,0.0,-3.7752,0.0,-3.76,-3.774,-3.8105,-3.8033,-3.7769,-3.8261,-3.8898,-3.9697,-4.0152,-4.0827,-4.1578,-4.2103,-4.2287,-4.2287,-4.2287,0.0,0.0,0.0,0.0,-3.9968,-3.9218,-3.9004,-3.9129,0.0,0.0,0.0,0.0,0.0,0.0,0.0,0.0,0.0,0.0,0.0,0.0,0.0,0.0,0.0,0.0,0.0,0.0,0.0,0.0,0.0,0.0,0.0,0.0,0.0,0.0,0.0,0.0,0.0,0.0,-4.6278,-4.5918,-4.5066,-4.3531,-4.4819,-4.5,-4.3814,-4.5185,-4.4947,-4.3151,-4.4565,-4.5254,-4.5335,-4.6748,-4.7379,-4.7379,-4.7379,-4.7379,-4.7322,-4.6596,-4.629,-4.629,-4.629,-4.6825,-4.7685,-4.8544,-4.9385,-5.0111,0.0,0.0,0.0,0.0,0.0,0.0,0.0,0.0,0.0,0.0,0.0,0.0,0.0,0.0,0.0,0.0,0.0,0.0,-3.6241,0.0,0.0,-3.9272,-3.9272,-3.899,0.0,0.0,0.0,0.0,0.0,0.0,0.0,0.0,0.0,-3.6908,0.0,-3.7863,-3.7724,-3.7644,-3.8003,-3.8619,-3.8567,-3.9061,-3.9834,-4.0383,-4.0955,-4.1578,-4.2103,-4.2287,-4.2287,-4.2287,-4.2287,0.0,0.0,0.0,-4.0788,-4.0003,-3.9753,0.0,0.0,0.0,0.0,0.0,0.0,0.0,0.0,0.0,0.0,0.0,0.0,0.0,0.0,0.0,0.0,0.0,0.0,0.0,0.0,0.0,0.0,0.0,0.0,0.0,0.0,0.0,0.0,0.0,0.0,0.0,-4.6241,-4.4819,-4.3587,-4.2602,-4.2838,-4.3263,-4.3795,-4.4075,-4.4446,-4.4868,-4.5161,-4.5297,-4.5297,-4.5526,-4.5621,-4.5621,-4.5621,-4.5621,-4.5621,-4.5507,-4.5449,-4.5449,-4.5449,-4.5965,-4.6787,-4.7665,-4.8525,-4.9347,0.0,0.0,0.0,0.0,0.0,0.0,0.0,0.0,0.0,0.0,0.0,0.0,0.0,0.0,0.0,-3.2348,-3.3475,-3.4949,-3.6522,-3.7914,-3.8805,-3.9131,-3.9148,-3.8817,-3.8124,0.0,0.0,0.0,0.0,0.0,0.0,-3.8391,-3.8603,0.0,0.0,0.0,0.0,0.0,-3.8307,-3.8711,-3.8711,-3.8994,-3.9542,-4.0309,-4.0878,-4.1357,-4.2026,-4.2287,-4.2287,-4.2287,-4.2287,-4.2234,-4.1877,0.0,0.0,0.0,-3.9968,0.0,0.0,0.0,0.0,0.0,0.0,0.0,0.0,0.0,0.0,0.0,0.0,0.0,0.0,0.0,0.0,0.0,0.0,0.0,0.0,0.0,0.0,0.0,0.0,0.0,0.0,0.0,0.0,0.0,0.0,-4.6354,-4.552,-4.4345,-4.3327,-4.2477,-4.2955,-4.3213,-4.3183,-4.4141,-4.4603,-4.451,-4.4092,-4.3902,-4.3902,-4.3902,-4.4399,-4.5297,-4.5297,-4.5297,-4.5297,-4.5297,-4.5297,-4.5297,-4.5297,-4.5793,-4.6574,-4.7277,-4.82,-4.9171,0.0,0.0,0.0,0.0,0.0,0.0,0.0,0.0,0.0,0.0,0.0,0.0,0.0,0.0,0.0,0.0,-3.3193,-3.4369,-3.6357,-3.7314,-3.8005,-3.841,-3.8607,-3.8294,-3.7406,0.0,0.0,0.0,0.0,0.0,-3.6931,-3.8471,-3.8867,0.0,-3.8056,-3.8297,0.0,0.0,0.0,-3.8766,-3.8625,0.0,-3.9035,-3.9983,-4.0513,-4.0878,-4.192,-4.2287,-4.2287,-4.2287,-4.2287,-4.2287,-4.2287,-4.1877,0.0,0.0,0.0,0.0,0.0,0.0,0.0,0.0,0.0,0.0,0.0,0.0,0.0,0.0,0.0,0.0,0.0,0.0,0.0,0.0,0.0,0.0,0.0,0.0,0.0,0.0,0.0,0.0,0.0,0.0,0.0,0.0,0.0,-4.5596,-4.4933,-4.3929,-4.3099,-4.2522,-4.3152,-4.3352,-4.302,-4.426,-4.4491,-4.3692,-4.31,-4.2794,-4.2794,-4.2794,-4.3482,-4.4647,-4.4647,-4.4647,-4.4647,-4.4647,-4.4781,-4.4972,-4.4972,-4.5468,-4.6287,-4.7036,-4.7908,-4.8884,0.0,0.0,0.0,0.0,0.0,0.0,0.0,0.0,0.0,0.0,0.0,0.0,-3.6986,-3.576,-3.4303,-3.2812,-3.2729,-3.3346,-3.4707,-3.6056,-3.6809,-3.679,-3.7515,0.0,-3.5742,0.0,0.0,0.0,0.0,0.0,-3.6931,-3.8364,-3.9007,-3.8974,-3.9152,-3.9115,-3.8969,0.0,0.0,0.0,0.0,0.0,0.0,0.0,0.0,0.0,-4.1676,-4.2287,-4.2287,-4.2287,-4.2287,-4.2287,-4.2287,-4.2251,-4.2234,0.0,0.0,0.0,0.0,0.0,0.0,0.0,0.0,0.0,0.0,0.0,0.0,0.0,0.0,0.0,0.0,0.0,0.0,0.0,0.0,0.0,0.0,0.0,0.0,0.0,0.0,0.0,0.0,0.0,0.0,0.0,0.0,-4.4952,-4.4895,-4.336,-4.2473,-4.2503,-4.2607,-4.3052,-4.3819,-4.3975,-4.3673,-4.287,-4.2813,-4.2794,-4.2794,-4.2794,-4.2851,-4.2928,-4.2928,-4.2928,-4.2928,-4.2928,-4.3386,-4.4074,-4.4074,-4.4609,-4.5524,-4.6809,-4.7528,-4.8041,0.0,0.0,0.0,0.0,0.0,0.0,0.0,0.0,0.0,0.0,0.0,0.0,0.0,-3.5926,-3.4816,-3.2862,-3.3127,-3.4021,-3.5463,-3.5993,-3.6404,-3.6814,-3.7416,-3.7068,-3.5627,0.0,0.0,0.0,0.0,-3.6633,-3.6898,-3.7529,-3.8203,-3.9023,-3.9094,-3.9094,-3.9023,-3.9023,0.0,0.0,0.0,0.0,0.0,0.0,0.0,0.0,0.0,0.0,0.0,-4.2287,-4.2287,-4.2287,-4.2287,-4.2287,-4.2091,-4.1056,-4.036,0.0,0.0,0.0,0.0,0.0,0.0,0.0,0.0,0.0,0.0,0.0,0.0,0.0,0.0,0.0,0.0,0.0,0.0,0.0,0.0,0.0,0.0,0.0,0.0,0.0,0.0,0.0,0.0,0.0,0.0,0.0,-4.4895,-4.4374,-4.4098,-4.4186,-4.423,-4.4162,-4.3956,-4.3996,-4.3329,-4.1972,-4.1972,-4.1705,-4.1189,-4.1013,-4.1033,-4.1189,-4.1013,-4.1642,-4.2794,-4.2794,-4.2966,-4.3291,-4.3806,-4.4105,-4.4364,-4.5719,-4.6655,-4.7332,0.0,0.0,0.0,0.0,0.0,0.0,0.0,0.0,0.0,0.0,0.0,0.0,0.0,0.0,-3.5214,-3.3226,-3.3462,-3.4157,-3.5149,-3.5382,-3.5696,-3.609,-3.6908,-3.6806,-3.5627,0.0,0.0,0.0,0.0,0.0,0.0,-3.7051,-3.7696,-3.8731,-3.8731,-3.8863,0.0,0.0,0.0,-3.9077,0.0,0.0,-3.9307,0.0,0.0,0.0,0.0,0.0,0.0,0.0,0.0,-4.2287,-4.2287,-4.2091,-4.1591,-4.0003,-3.9539,0.0,0.0,0.0,0.0,0.0,0.0,0.0,0.0,0.0,0.0,0.0,0.0,0.0,0.0,0.0,0.0,0.0,0.0,0.0,0.0,0.0,0.0,0.0,0.0,0.0,0.0,0.0,0.0,0.0,0.0,0.0,-4.4919,-4.4986,-4.5057,-4.5125,-4.4906,-4.4414,-4.3615,-4.331,-4.2469,-4.1094,-4.1016,-4.0691,-4.0157,-3.9892,-3.987,-4.0036,-3.9935,-4.0686,-4.1953,-4.1953,-4.2297,-4.2851,-4.3386,-4.3817,-4.4284,-4.5245,-4.6036,-4.6732,0.0,0.0,0.0,0.0,0.0,0.0,0.0,0.0,0.0,-3.6042,0.0,0.0,0.0,0.0,0.0,-3.3955,-3.373,-3.3637,-3.3637,-3.42,-3.4497,-3.4497,-3.5873,-3.6315,-3.5611,0.0,0.0,0.0,0.0,0.0,0.0,0.0,-3.7466,-3.8212,-3.8195,-3.8593,-3.9272,0.0,-3.9272,-3.9222,0.0,-3.8488,-3.9001,0.0,0.0,0.0,-4.1861,-4.2287,0.0,-4.2287,0.0,0.0,0.0,-4.1752,-4.0806,-3.9289,-3.8826,0.0,0.0,0.0,0.0,0.0,0.0,0.0,0.0,0.0,0.0,0.0,0.0,0.0,0.0,0.0,0.0,0.0,0.0,0.0,0.0,0.0,0.0,0.0,0.0,0.0,0.0,0.0,0.0,0.0,0.0,-4.4895,-4.4967,-4.4967,-4.5038,-4.5154,-4.4395,-4.3576,-4.2775,-4.1915,-4.1094,-4.031,-4.0038,-3.9914,-3.9892,-3.9623,-3.9502,-3.9508,-3.9762,-4.0017,-4.0291,-4.0291,-4.1266,-4.2737,-4.2756,-4.3768,-4.5233,-4.5458,-4.5752,-4.6221,0.0,0.0,0.0,0.0,0.0,0.0,0.0,0.0,0.0,0.0,0.0,0.0,-3.4953,-3.4593,-3.4452,-3.4584,-3.4537,-3.4537,-3.4537,-3.4688,-3.4804,-3.4804,-3.5597,-3.5959,-3.5745,0.0,0.0,0.0,0.0,0.0,0.0,0.0,0.0,0.0,-3.7649,-3.8112,-3.9272,-3.9272,0.0,0.0,-3.9056,-3.9291,0.0,0.0,0.0,0.0,0.0,-4.2287,-4.2287,0.0,-4.2287,-4.2287,0.0,0.0,-4.0895,0.0,0.0,0.0,-3.7809,0.0,0.0,0.0,0.0,0.0,0.0,0.0,0.0,0.0,0.0,0.0,0.0,0.0,0.0,0.0,0.0,0.0,0.0,0.0,0.0,0.0,0.0,0.0,0.0,0.0,0.0,0.0,-4.4004,-4.4231,-4.4355,-4.4448,-4.4372,-4.4056,-4.3833,-4.3104,-4.1877,-4.1609,-4.1094,-4.031,-4.0215,-4.0098,-3.9892,-3.9623,-3.9502,-3.9483,-3.9357,-3.9458,-3.9739,-4.0137,-4.0578,-4.1055,-4.1628,-4.2368,-4.3225,-4.3894,-4.4691,-4.548,0.0,0.0,0.0,0.0,0.0,0.0,0.0,0.0,0.0,0.0,0.0,0.0,-3.4481,-3.4592,-3.4767,-3.4883,-3.4899,-3.4899,-3.4899,-3.4899,-3.4899,-3.4899,-3.5546,-3.5894,-3.5894,0.0,0.0,0.0,0.0,0.0,0.0,0.0,0.0,0.0,0.0,0.0,0.0,0.0,0.0,0.0,-3.9272,0.0,0.0,-4.0351,-4.0926,0.0,0.0,0.0,-4.2287,-4.2287,-4.2287,0.0,0.0,0.0,0.0,0.0,0.0,0.0,-3.7719,-3.7577,0.0,0.0,0.0,0.0,-4.0347,-4.0546,0.0,0.0,0.0,0.0,0.0,0.0,0.0,0.0,0.0,0.0,0.0,0.0,0.0,0.0,0.0,0.0,0.0,0.0,0.0,-4.3406,-4.3721,-4.3962,-4.4151,-4.4279,-4.4259,-4.4094,-4.3436,-4.2734,-4.2049,-4.1342,-4.0712,-4.0118,-4.0017,-3.9826,-3.9575,-3.9298,-3.9183,-3.9165,-3.9129,-3.9192,-3.9376,-3.9804,-4.0165,-4.0526,-4.1106,-4.1958,-4.2886,-4.3417,-4.4221,-4.5057,0.0,0.0,0.0,0.0,0.0,0.0,0.0,0.0,0.0,0.0,0.0,-3.5728,-3.5214,-3.5661,-3.5777,-3.5197,-3.4982,-3.4932,-3.5015,-3.4949,-3.4899,-3.4899,-3.5528,-3.5926,0.0,0.0,0.0,0.0,0.0,0.0,0.0,0.0,0.0,0.0,0.0,0.0,0.0,0.0,0.0,-3.9272,-3.9272,-3.9592,0.0,0.0,-4.0672,-4.1534,-4.1578,-4.1917,-4.2287,-4.2287,-4.2287,0.0,0.0,0.0,0.0,0.0,-3.8362,0.0,-3.7612,-3.7631,-3.7792,0.0,0.0,0.0,-3.9193,-3.9823,-4.022,0.0,0.0,0.0,0.0,0.0,0.0,0.0,0.0,0.0,0.0,0.0,0.0,0.0,0.0,0.0,0.0,-4.3178,-4.3336,-4.3336,-4.3623,-4.3899,-4.4072,-4.4231,-4.4401,-4.4594,-4.3085,-4.2367,-4.2601,-4.1036,-4.0118,-3.9851,-3.9604,-3.9376,-3.9101,-3.8851,-3.8738,-3.8689,-3.895,-3.9045,-3.9055,-3.9279,-3.9846,-4.0603,-4.082,-4.1901,-4.3308,-4.3322,-4.3891,-4.4707,-3.8694,0.0,0.0,0.0,0.0,0.0,0.0,0.0,0.0,0.0,0.0,-3.5624,-3.6572,-3.6274,-3.6191,-3.6638,-3.5595,-3.5148,-3.5744,-3.523,-3.4899,-3.4899,-3.5032,-3.5396,-3.5992,0.0,0.0,0.0,0.0,0.0,0.0,0.0,0.0,0.0,0.0,0.0,0.0,0.0,0.0,-3.9272,-3.9272,0.0,-4.0053,-4.0497,-4.1019,-4.1578,-4.2002,-4.2187,-4.2287,-4.2287,-4.2287,-4.2251,0.0,0.0,0.0,-3.9932,0.0,0.0,0.0,0.0,0.0,0.0,0.0,0.0,-3.9334,-3.9496,-3.9749,0.0,0.0,0.0,0.0,0.0,0.0,0.0,0.0,0.0,0.0,0.0,0.0,0.0,0.0,0.0,0.0,-4.2957,-4.2995,-4.2995,-4.3214,-4.3356,-4.3391,-4.3563,-4.3602,-4.3434,-4.2502,-4.1801,-4.1437,-4.0471,-3.9829,-3.9575,-3.9526,-3.9376,-3.9101,-3.9045,-3.8892,-3.8707,-3.875,-3.8732,-3.8615,-3.8658,-3.911,-3.9752,-3.9801,-4.0547,-4.1601,-4.1579,-4.2545,-4.3829,-3.9131,0.0,0.0,0.0,0.0,0.0,0.0,0.0,0.0,0.0,0.0,-3.6615,-3.6539,-3.6887,-3.7102,-3.7102,-3.6423,-3.6009,-3.6009,-3.5644,-3.528,-3.4916,-3.4899,-3.5065,-3.5446,-3.5446,0.0,0.0,0.0,0.0,0.0,0.0,0.0,0.0,0.0,0.0,0.0,0.0,-3.9272,-3.9272,-3.9272,0.0,-3.9696,-3.9935,-4.0514,-4.122,-4.1445,-4.1856,-4.2287,-4.2287,-4.2287,0.0,0.0,-4.1752,-4.102,0.0,-3.972,-3.8758,0.0,0.0,0.0,-3.7898,0.0,0.0,0.0,-3.879,-3.9007,0.0,0.0,0.0,0.0,0.0,0.0,0.0,0.0,0.0,0.0,0.0,0.0,0.0,0.0,0.0,0.0,-4.2882,-4.2938,-4.2994,-4.3142,-4.3251,-4.3305,-4.3428,-4.331,-4.2911,-4.2128,-4.1424,-4.0925,-4.009,-3.9575,-3.9298,-3.9298,-3.9156,-3.891,-3.891,-3.8773,-3.8609,-3.8609,-3.8559,-3.8446,-3.8446,-3.8646,-3.8961,-3.9154,-3.9754,-4.0615,-4.0809,-4.1914,-4.3309,-3.9625,0.0,0.0,0.0,0.0,0.0,0.0,0.0,0.0,0.0,0.0,0.0,-3.6754,-3.7582,-3.803,-3.7566,-3.7135,-3.6771,-3.6439,-3.6158,-3.5727,-3.5131,-3.5098,-3.5048,-3.4899,-3.4899,0.0,0.0,0.0,0.0,0.0,0.0,0.0,0.0,0.0,0.0,0.0,0.0,0.0,-3.9272,0.0,-3.9362,-3.9415,-3.9415,-3.9986,-4.0802,-4.0896,-4.1445,-4.2145,-4.2287,-4.2287,-4.2287,-4.2287,-4.1859,0.0,0.0,0.0,0.0,0.0,0.0,0.0,0.0,0.0,-3.8269,0.0,0.0,0.0,0.0,0.0,0.0,0.0,0.0,0.0,0.0,0.0,0.0,0.0,0.0,0.0,0.0,0.0,0.0,0.0,-4.2882,-4.2956,-4.3104,-4.3014,-4.3032,-4.3156,-4.3243,-4.3023,-4.2482,-4.185,-4.1241,-4.0633,-3.982,-3.9298,-3.9017,-3.9017,-3.891,-3.8707,-3.8658,-3.8609,-3.851,-3.8478,-3.8446,-3.8401,-3.8401,-3.8368,-3.8382,-3.87,-3.9235,-3.9904,-4.0318,-4.1491,-4.2744,-3.9484,-3.9537,0.0,0.0,0.0,0.0,0.0,0.0,0.0,0.0,0.0,0.0,0.0,0.0,0.0,-3.899,0.0,0.0,-3.788,0.0,-3.5959,-3.5876,-3.5876,-3.5578,-3.4916,-3.4899,-3.4899,0.0,0.0,0.0,0.0,0.0,0.0,0.0,-3.7152,0.0,0.0,0.0,-3.8692,0.0,-3.9272,-3.9556,0.0,-3.9919,-4.0302,-4.0849,-4.1248,-4.1472,-4.1666,0.0,-4.2287,-4.2287,0.0,-4.2333,-4.2177,-4.15,0.0,0.0,0.0,0.0,0.0,0.0,-3.9155,0.0,0.0,0.0,0.0,-3.8445,0.0,0.0,0.0,0.0,0.0,0.0,0.0,0.0,0.0,0.0,0.0,0.0,0.0,0.0,0.0,0.0,-4.2956,-4.3104,-4.2486,-4.2192,-4.2333,-4.2383,-4.2193,-4.1646,-4.1571,-4.1126,-4.0356,-3.9547,-3.8989,-3.875,-3.875,-3.8738,-3.8707,-3.859,-3.851,-3.851,-3.8446,-3.8368,-3.8289,-3.8289,-3.8274,-3.8241,-3.8401,-3.8652,-3.9039,-3.9801,-4.0839,-4.1847,-3.9484,-3.9501,0.0,0.0,0.0,0.0,0.0,0.0,0.0,0.0,0.0,0.0,0.0,0.0,0.0,0.0,0.0,-3.8444,0.0,0.0,-3.7102,-3.6671,0.0,-3.629,-3.5545,-3.5545,-3.533,0.0,-3.4899,0.0,0.0,0.0,0.0,0.0,-3.6274,0.0,-3.803,0.0,0.0,0.0,0.0,0.0,0.0,-3.9441,-3.9868,-4.04,-4.0926,-4.1248,-4.1516,0.0,-4.2044,0.0,0.0,0.0,0.0,0.0,0.0,0.0,0.0,0.0,0.0,0.0,0.0,0.0,-3.8952,0.0,-3.8844,0.0,0.0,0.0,0.0,0.0,0.0,0.0,0.0,0.0,0.0,0.0,0.0,0.0,0.0,0.0,0.0,0.0,0.0,0.0,0.0,-4.188,-4.1595,-4.1592,-4.1287,-4.0579,-4.0579,-4.0191,-3.9379,-3.9047,-3.8792,-3.8707,-3.8707,-3.8658,-3.859,-3.851,-3.8446,-3.8368,-3.8354,-3.8289,-3.8241,-3.8241,-3.8225,-3.8225,-3.8256,-3.8336,-3.8483,-3.8875,-3.9887,-4.1075,-3.9379,-3.9501,0.0,0.0,0.0,0.0,0.0,0.0,0.0,0.0,0.0,0.0,-4.01,-4.0613,0.0,0.0,-4.0382,-3.9934,0.0,0.0,-3.788,0.0,0.0,0.0,0.0,-3.6208,-3.5943,0.0,0.0,0.0,0.0,0.0,0.0,0.0,0.0,-3.6522,-3.745,0.0,0.0,-3.8278,-3.899,-3.8974,-3.856,-3.9073,-3.9504,-3.9868,-4.04,-4.0784,-4.1094,-4.1293,-4.1622,0.0,-4.2079,0.0,0.0,0.0,0.0,0.0,-4.0883,0.0,0.0,0.0,0.0,0.0,0.0,0.0,0.0,0.0,0.0,0.0,0.0,0.0,0.0,0.0,0.0,0.0,0.0,0.0,0.0,0.0,0.0,0.0,0.0,0.0,0.0,-4.2049,-4.1827,-4.1421,-4.0818,-4.0781,-4.0414,-3.9588,-3.979,-3.9515,-3.8707,-3.8658,-3.8658,-3.864,-3.8627,-3.8578,-3.8478,-3.8446,-3.8401,-3.8307,-3.8274,-3.8241,-3.8192,-3.8192,-3.8192,-3.821,-3.8427,-3.8518,-3.857,-3.8803,-3.9781,-4.0924,-3.9094,-3.9379,0.0,0.0,0.0,0.0,0.0,0.0,0.0,0.0,0.0,0.0,0.0,0.0,0.0,0.0,0.0,-4.0365,-4.0315,0.0,-3.788,0.0,0.0,-3.75,0.0,0.0,0.0,0.0,0.0,0.0,0.0,0.0,0.0,0.0,0.0,-3.682,-3.8179,-3.8195,-3.8212,-3.8278,-3.899,-3.9309,-3.9239,0.0,-3.9325,-3.9362,-3.9868,0.0,0.0,-4.0784,-4.1036,0.0,0.0,0.0,0.0,0.0,0.0,0.0,0.0,0.0,0.0,-4.0691,0.0,0.0,0.0,0.0,-3.8427,0.0,0.0,0.0,0.0,0.0,-3.8445,-3.926,0.0,0.0,0.0,0.0,0.0,0.0,0.0,0.0,0.0,0.0,0.0,-4.2066,-4.1332,-4.0646,-3.9974,-3.9937,-3.957,-3.8762,-3.9478,-3.9515,-3.8707,-3.8559,-3.851,-3.851,-3.8446,-3.8415,-3.8382,-3.8322,-3.8307,-3.8307,-3.8225,-3.8192,-3.8192,-3.8192,-3.8192,-3.8264,-3.9061,-3.9351,-3.9441,-4.0166,-4.0963,-4.1687,-3.9379,-3.9379,0.0,0.0,0.0,0.0,0.0,-4.0001,0.0,0.0,0.0,0.0,0.0,-4.381,-4.3578,0.0,0.0,-4.1922,-4.0464,-4.0348,0.0,0.0,0.0,-3.9437,0.0,0.0,0.0,0.0,0.0,0.0,0.0,0.0,0.0,0.0,0.0,-3.5972,0.0,0.0,0.0,0.0,0.0,-3.9068,-3.9448,0.0,0.0,-3.9325,-3.9573,-3.985,0.0,-4.0497,-4.0849,-4.1146,-4.1283,-4.0979,-4.0692,-4.1018,-4.125,0.0,0.0,0.0,-4.2303,-4.1506,0.0,0.0,0.0,0.0,0.0,0.0,0.0,0.0,0.0,0.0,-3.8445,-3.926,-3.9387,0.0,0.0,0.0,0.0,0.0,0.0,0.0,0.0,0.0,0.0,-4.1282,-4.051,-3.9772,0.0,-3.9061,-3.8982,-3.8707,-3.8964,-3.8982,-3.8707,-3.8559,-3.851,-3.851,-3.8446,-3.8368,-3.8322,-3.8307,-3.8274,-3.8241,-3.8225,-3.8192,-3.8192,-3.8192,-3.8192,-3.8264,-3.9079,-3.9695,-4.0166,-4.0419,-4.1017,-4.1723,-3.9537,0.0,0.0,0.0,0.0,0.0,0.0,0.0,0.0,0.0,-4.3264,0.0,-4.4887,0.0,-4.5069,0.0,-4.3992,-4.3297,-4.164,-4.1458,0.0,-3.9338,-4.0415,0.0,0.0,0.0,0.0,0.0,0.0,-3.7153,0.0,0.0,0.0,0.0,0.0,0.0,-3.6734,0.0,-3.7886,0.0,0.0,-3.899,0.0,0.0,-3.9432,-3.9379,0.0,-3.9781,-4.0037,-4.0187,-4.0434,-4.0789,-4.0913,-4.0568,-4.0262,-4.0762,-4.106,-4.1268,-4.1743,-4.2371,0.0,-4.1922,-4.1325,0.0,-4.0582,0.0,0.0,0.0,0.0,0.0,0.0,0.0,0.0,-3.9659,-3.9568,-3.9297,0.0,-3.9206,0.0,0.0,0.0,0.0,0.0,0.0,-4.1468,-4.0411,-3.9947,-3.9516,0.0,0.0,-3.8786,-3.9129,-3.8805,-3.8755,-3.9048,-3.8643,-3.8579,-3.8853,-3.8514,-3.8322,-3.8274,-3.8274,-3.8241,-3.8192,-3.8192,-3.8192,-3.8192,-3.8192,-3.8192,-3.8301,-3.9369,-4.0093,-4.0546,-4.0836,-4.1452,-4.214,-3.9609,0.0,0.0,0.0,-3.9956,0.0,0.0,0.0,-4.2518,0.0,-4.3876,-4.4522,-4.391,-4.5698,-4.6378,-4.492,-4.4804,-4.4456,-4.3678,-4.2336,0.0,0.0,-4.0121,-3.9785,-3.8295,0.0,0.0,0.0,0.0,0.0,0.0,0.0,0.0,0.0,-3.6379,0.0,-3.7434,-3.8254,-3.8623,-3.8656,-3.8656,-3.9058,-3.9729,-3.9729,-3.9642,-3.9554,-3.9677,-3.9729,-3.9729,-3.9833,-3.9901,-3.9952,-4.0087,-4.007,-4.0221,-4.0707,-4.1139,-4.1613,-4.2115,-4.2555,-4.2719,-4.1959,0.0,0.0,0.0,0.0,-4.0727,0.0,0.0,0.0,0.0,0.0,0.0,-4.0456,-3.9948,-3.917,0.0,0.0,0.0,0.0,0.0,0.0,0.0,-4.1359,-4.1212,-3.9634,-3.9692,0.0,0.0,0.0,-3.8999,-3.9863,-3.9017,-3.893,-3.9685,-3.8755,-3.8689,-3.9452,-3.8588,-3.8192,-3.8192,-3.8192,-3.8192,-3.8192,-3.8192,-3.8192,-3.8192,-3.8192,-3.821,-3.8391,-3.9912,-4.0564,-4.0727,-4.1488,-4.2248,-4.2882,-3.9833,-4.0234,-4.0682,0.0,-4.0313,-4.01,0.0,0.0,0.0,0.0,-4.5268,-4.5864,-4.6775,-4.7388,-4.7338,-4.6411,-4.6328,0.0,0.0,0.0,0.0,-4.038,-4.1444,-4.1233,-3.9356,-4.0207,-4.0224,-3.9306,0.0,0.0,-3.7418,0.0,0.0,0.0,0.0,0.0,-3.6135,-3.8065,-3.921,-3.9699,-3.9699,-3.9767,0.0,0.0,-3.9935,-3.9798,-3.9849,-3.9849,-3.9901,-3.9986,-4.0037,-4.0037,-4.007,-4.007,-4.0254,-4.1094,-4.141,-4.1656,-4.2498,-4.2806,-4.2846,-4.2629,-4.214,-4.1669,0.0,0.0,0.0,0.0,0.0,0.0,0.0,0.0,0.0,0.0,-4.0745,-3.9948,0.0,0.0,0.0,-3.9315,0.0,0.0,0.0,-4.0443,-4.0075,-3.9607,-3.9754,0.0,0.0,0.0,0.0,-3.9688,-3.9418,-3.9418,-3.9619,-3.8755,-3.8398,-3.8616,-3.8316,-3.8192,-3.8192,-3.8192,-3.8192,-3.8192,-3.8192,-3.8192,-3.8192,-3.8192,-3.8536,-3.9188,-4.0148,-4.1234,-4.2303,-4.252,-4.2719,-4.2882,-4.0408,0.0,0.0,-4.2349,0.0,0.0,-4.3465,0.0,0.0,-4.564,-4.6001,0.0,-4.7101,-4.7814,-4.8077,-4.7661,-4.7328,0.0,-4.5319,0.0,0.0,-4.1744,-4.181,-4.1159,-3.9711,-4.0113,0.0,-3.9677,0.0,0.0,-3.8052,0.0,0.0,0.0,0.0,-3.6443,0.0,-3.8193,-3.9411,-4.007,-4.007,0.0,0.0,-4.0087,-4.0037,-3.9986,-3.9986,-3.9986,-3.9986,-4.007,-4.007,-4.007,-4.007,-4.007,-4.0303,-4.1213,-4.1481,-4.17,-4.2634,-4.2882,-4.2882,-4.2882,-4.2556,-4.223,-4.223,-4.1868,-4.1542,0.0,0.0,0.0,0.0,0.0,0.0,0.0,0.0,0.0,0.0,0.0,0.0,0.0,-3.9306,0.0,0.0,0.0,-3.9491,-3.9046,0.0,0.0,0.0,0.0,0.0,-4.0151,-4.0099,-4.0247,-4.0593,-3.969,-3.9257,-3.9257,-3.8896,-3.8536,-3.8192,-3.8192,-3.8192,-3.8192,-3.8192,-3.8192,-3.8192,-3.8192,-3.8663,-3.9514,-4.06,-4.1796,-4.2882,-4.2882,-4.2882,-4.29,-4.1322,0.0,0.0,0.0,0.0,0.0,0.0,-4.5144,0.0,-4.6257,0.0,-4.6664,-4.6441,-4.7667,-4.845,-4.8349,0.0,-4.7328,-4.7127,-4.5319,-4.3863,-4.3082,-4.1762,-4.0687,-3.988,-3.9747,-3.9697,0.0,0.0,0.0,0.0,0.0,0.0,0.0,0.0,0.0,0.0,-3.8294,-3.9276,0.0,-4.0037,-4.007,-4.007,-4.007,-4.007,-4.007,-4.007,-4.007,-4.007,-4.007,-4.007,-4.007,-4.007,-4.007,-4.0254,-4.1139,-4.1437,-4.17,-4.2577,-4.2844,-4.2882,-4.2882,-4.2882,-4.2882,-4.2882,-4.2882,-4.2882,-4.2882,-4.2339,-4.2085,0.0,0.0,0.0,0.0,0.0,0.0,0.0,0.0,0.0,0.0,0.0,0.0,0.0,0.0,0.0,0.0,0.0,0.0,0.0,0.0,0.0,-4.0739,-4.0704,0.0,-4.1851,0.0,-4.051,-4.051,-3.9749,-3.9025,-3.8337,-3.8246,-3.8192,-3.8192,-3.8192,-3.8246,-3.8355,-3.8355,-3.888,-3.984,-4.1307,-4.2285,-4.2882,-4.2882,-4.292,-4.2938,0.0,0.0,0.0,0.0,0.0,-4.6794,-4.8146,-4.7984,-4.7814,-4.8065,-4.8651,-4.8785,-4.8165,-4.8333,-4.8249,-4.7646,-4.7479,0.0,0.0,0.0,0.0,-4.3228,-4.2717,-4.1988,-4.0966,-4.0112,-3.9788,0.0,0.0,0.0,0.0,0.0,0.0,0.0,0.0,0.0,-3.7719,-3.799,0.0,-3.9242,-3.9834,-4.007,-4.007,-4.007,-4.007,-4.007,-4.007,-4.007,-4.007,-4.007,-4.007,-4.007,-4.007,-4.007,-4.0221,-4.0754,-4.1185,-4.1613,-4.2157,-4.2595,-4.2882,-4.2882,-4.2882,-4.2882,-4.2882,-4.2882,-4.2882,-4.2882,-4.2774,-4.2719,-4.2864,0.0,0.0,0.0,0.0,0.0,0.0,0.0,0.0,0.0,0.0,-3.9582,0.0,0.0,0.0,0.0,0.0,0.0,0.0,0.0,0.0,0.0,-4.0545,0.0,0.0,0.0,-4.051,-4.051,-3.9749,-3.9315,-3.917,-3.85,-3.8192,-3.8192,-3.8192,-3.8572,-3.9188,-3.9188,-4.0021,-4.1397,-4.2321,-4.2774,-4.2882,-4.2882,-4.2994,-4.3067,0.0,0.0,0.0,0.0,0.0,0.0,0.0,-4.9839,0.0,-4.8824,-4.8656,-4.8387,-4.7569,-4.79,-4.8046,-4.7692,-4.7305,-4.6784,-4.6077,-4.5303,-4.4434,-4.3377,-4.2706,-4.1933,-4.0998,-3.9795,-3.9571,-4.0434,0.0,0.0,0.0,0.0,0.0,0.0,0.0,-3.7026,0.0,0.0,0.0,-3.958,-3.9935,-4.007,-4.007,-4.007,-4.007,-4.007,-4.007,-4.007,-4.007,-4.007,-4.007,-4.007,-4.007,-4.007,-4.0171,-4.0676,-4.1139,-4.1613,-4.2074,-4.2537,-4.2882,-4.2882,-4.2882,-4.2882,-4.2882,-4.2882,-4.2882,-4.2882,-4.2882,-4.2938,-4.2994,-4.3068,0.0,0.0,0.0,0.0,0.0,0.0,0.0,0.0,0.0,0.0,0.0,0.0,0.0,0.0,0.0,0.0,0.0,0.0,0.0,0.0,0.0,0.0,0.0,0.0,0.0,-4.1126,-4.0347,-3.9967,-3.993,-3.8735,-3.8627,-3.9369,-3.8989,-3.9025,-3.9423,-3.9804,-4.0655,-4.1796,-4.2592,-4.2882,-4.2882,-4.2882,-4.2994,-4.3104,0.0,-4.5111,0.0,0.0,-4.797,0.0,-4.9238,-5.0845,-5.1321,-4.935,-4.8669,-4.7977,-4.6978,-4.7521,-4.7784,-4.7479,-4.6904,-4.6498,-4.6329,-4.5326,-4.4364,-4.3583,-4.2821,-4.2025,-4.1043,-3.9697,-3.9461,0.0,0.0,0.0,0.0,0.0,0.0,0.0,0.0,0.0,0.0,0.0,-3.8802,-3.9868,-4.002,-4.007,-4.007,-4.007,-4.007,-4.007,-4.007,-4.007,-4.007,-4.007,-4.007,-4.007,-4.007,-4.007,-4.0171,-4.0531,-4.1047,-4.1569,-4.1931,-4.2458,-4.2882,-4.2882,-4.2882,-4.2882,-4.2882,-4.2882,-4.29,-4.2938,-4.2938,-4.3013,-4.3086,-4.3196,0.0,0.0,0.0,0.0,0.0,0.0,0.0,0.0,0.0,0.0,-3.9735,0.0,0.0,0.0,0.0,0.0,0.0,0.0,0.0,0.0,0.0,-4.2103,-4.2882,0.0,-4.2574,0.0,-4.1162,-4.0782,-4.0727,-3.9315,-3.9351,-4.0492,-3.9894,-3.9731,-3.9948,-4.0709,-4.1397,-4.2031,-4.2647,-4.2882,-4.2882,-4.2938,-4.3031,-4.3123,0.0,0.0,0.0,0.0,0.0,0.0,0.0,-5.0744,-5.0997,-5.0101,-4.9932,-4.9357,-4.7909,-4.7885,-4.7378,-4.6024,-4.5838,-4.5517,-4.4823,-4.5066,-4.487,-4.4044,-4.4179,-4.3507,-4.1819,-4.0777,-3.9901,0.0,0.0,-3.7483,0.0,0.0,0.0,0.0,0.0,0.0,0.0,-3.8345,-3.8971,-3.9157,-3.9817,-4.007,-4.007,-4.007,-4.007,-4.007,-4.007,-4.007,-4.007,-4.007,-4.007,-4.007,-4.007,-4.007,-4.0121,-4.0171,-4.0784,-4.1525,-4.1569,-4.2221,-4.2882,-4.2882,-4.2882,-4.2882,-4.2882,-4.2882,-4.2938,-4.3067,-4.3105,-4.3178,-4.3178,-4.3305,-4.3156,0.0,0.0,0.0,0.0,0.0,0.0,-4.1244,0.0,0.0,0.0,-3.8624,0.0,0.0,0.0,0.0,0.0,0.0,0.0,-4.0492,0.0,-4.2103,-4.2882,-4.2882,-4.2846,-4.2774,-4.1977,-4.1615,-4.1578,-4.0691,-4.0365,-4.051,-4.0437,-4.0818,-4.156,-4.2339,-4.2701,-4.2792,-4.2864,-4.2882,-4.292,-4.3049,-4.3123,-4.3214,0.0,0.0,0.0,0.0,0.0,0.0,0.0,-5.0067,-5.0118,-4.8934,-4.9543,-4.9543,-4.8071,-4.7513,-4.665,-4.5162,-4.4848,-4.4451,-4.3698,-4.4092,-4.3976,-4.3228,-4.3571,-4.3233,-4.2106,-4.0989,-4.0456,0.0,0.0,0.0,0.0,0.0,0.0,0.0,0.0,-3.7973,-3.8142,-3.8734,-3.9242,-3.9665,-3.9969,-4.007,-4.007,-4.007,-4.007,-4.007,-4.007,-4.007,-4.007,-4.007,-4.007,-4.007,-4.007,-4.007,-4.0171,-4.0451,-4.1019,-4.1569,-4.1846,-4.24,-4.2882,-4.2882,-4.2882,-4.2811,-4.2377,-4.2649,-4.2904,-4.2523,-4.2922,-4.3305,-4.3305,-4.3411,-4.3353,0.0,0.0,0.0,0.0,0.0,0.0,0.0,0.0,-4.0671,0.0,0.0,0.0,0.0,0.0,0.0,0.0,0.0,0.0,-4.118,0.0,-4.1615,-4.2882,-4.2882,-4.2882,-4.2882,-4.2085,-4.1959,-4.2375,-4.1107,-4.0782,-4.1234,-4.1234,-4.1687,-4.2411,-4.2248,-4.2466,-4.2882,-4.2882,-4.2938,-4.3049,-4.3067,-4.3196,-4.334,-4.8156,0.0,-4.8528,0.0,-4.9475,-4.9323,-4.9323,-4.9576,-4.9323,-4.8071,-4.8815,-4.8883,-4.7428,-4.6786,-4.5872,-4.4367,-4.416,-4.3803,-4.3062,-4.3593,-4.3585,-4.2855,-4.3273,0.0,-4.2216,-4.123,-4.0788,-4.0989,-3.985,0.0,0.0,0.0,0.0,0.0,-3.821,-3.8717,-3.9005,-3.9225,-3.9597,-4.007,-4.007,-4.007,-4.007,-4.007,-4.007,-4.007,-4.007,-4.007,-4.007,-4.007,-4.007,-4.007,-4.007,-4.007,-4.0171,-4.0676,-4.1139,-4.1613,-4.2074,-4.2537,-4.2828,-4.2611,-4.2538,-4.2376,-4.1687,-4.1996,-4.2323,-4.2119,-4.2591,-4.3137,-4.3375,-4.3463,-4.3406,-4.3185,0.0,0.0,0.0,0.0,0.0,0.0,-4.146,-4.0708,-3.9643,0.0,0.0,0.0,0.0,0.0,0.0,0.0,0.0,0.0,0.0,0.0,0.0,-4.2882,-4.2882,-4.2882,-4.2321,-4.2357,-4.2846,-4.1723,-4.1524,-4.2067,-4.2067,-4.2375,-4.2846,-4.2303,-4.2393,-4.2882,-4.2938,-4.3012,-4.3104,-4.3178,-4.3287,-4.3394,-4.8697,-4.8984,-4.9458,-5.093,-5.0574,-5.0084,-5.0084,-4.9475,-4.8748,-4.802,-4.7936,-4.7378,-4.5889,-4.572,-4.5094,-4.3572,-4.3835,-4.3803,-4.3062,-4.3937,-4.4135,0.0,0.0,-4.3502,-4.2234,-4.1743,-4.0909,-3.9715,0.0,0.0,-3.7939,0.0,-3.8971,-3.9005,-3.9732,-3.9648,-3.9039,-3.9766,-4.007,-4.007,-4.007,-4.007,-4.007,-4.007,-4.007,-4.007,-4.007,-4.007,-4.007,-4.007,-4.007,-4.007,-4.007,-4.007,-4.0171,-4.0676,-4.1139,-4.1613,-4.2074,-4.2537,-4.2701,-4.1922,-4.1723,-4.1524,-4.0887,-4.0706,-4.1012,-4.2006,-4.2205,-4.2459,-4.3351,-4.3497,-4.3222,-4.2433,0.0,0.0,0.0,0.0,0.0,0.0,-4.113,-4.0487,-3.8872,0.0,0.0,0.0,0.0,0.0,0.0,0.0,0.0,-4.0528,-4.1289,0.0,-4.2882,-4.2882,-4.2882,-4.2882,-4.2882,-4.2882,-4.2882,-4.2864,-4.2864,-4.2882,-4.2882,-4.2882,-4.2882,-4.2882,-4.2882,-4.292,-4.3049,-4.3104,-4.3104,-4.3323,-4.3394,-4.3429,-4.8071,-4.7851,-4.797,-4.9441,-4.9103,-4.8612,-4.8612,-4.8409,-4.7817,-4.6566,-4.6413,-4.6041,-4.5043,-4.5399,-4.4891,0.0,-4.3388,-4.3306,0.0,-4.2888,-4.3304,-4.3051,-4.3186,-4.3098,-4.2691,-4.2239,-4.1637,-4.0926,0.0,0.0,0.0,-3.9394,-3.9462,-3.9022,-3.9749,-3.9952,-3.9749,-3.9986,-4.007,-4.007,-4.007,-4.007,-4.007,-4.007,-4.007,-4.007,-4.007,-4.007,-4.0003,-3.9512,-3.9665,-3.9986,-3.9495,-3.9895,-4.0573,-4.053,-4.1225,-4.2074,-4.2537,-4.2371,-4.2031,-4.1778,-4.1307,-4.0691,-4.0017,-4.0008,-4.0492,-4.198,-4.2271,-4.2509,-4.3351,-4.3497,-4.3406,-4.3149,-4.3314,0.0,0.0,0.0,0.0,0.0,-4.1111,-4.0487,0.0,-3.9108,0.0,0.0,0.0,0.0,0.0,0.0,0.0,0.0,-4.1578,0.0,-4.2882,-4.2882,-4.2882,-4.2882,-4.2882,-4.2882,-4.2882,-4.2882,-4.2882,-4.2882,-4.2882,-4.2882,-4.29,-4.2994,-4.3049,-4.3049,-4.3142,-4.3233,-4.3323,-4.3394,-4.3411,-4.3463,-4.7411,-4.7124,-4.709,-4.8003,-4.78,-4.7496,-4.7496,-4.7496,-4.7073,-4.5872,-4.5703,-4.5415,-4.4654,-4.4739,0.0,-4.2439,-4.2994,-4.2899,-4.1587,-4.2221,-4.2711,-4.2882,-4.2882,-4.2882,-4.2882,0.0,0.0,-4.1481,-4.0832,-4.0163,-3.9411,-3.9868,-3.9834,-3.9411,-3.9868,-4.007,-4.007,-4.007,-4.007,-4.007,-4.007,-4.007,-4.007,-4.007,-4.007,-4.007,-4.007,-4.007,-3.9969,-3.9242,-3.9478,-3.9901,-3.8903,-3.9395,-4.0377,-4.0368,-4.1032,-4.1779,-4.1955,-4.1633,-4.1198,-4.0926,-4.0456,-3.9946,-3.9283,-3.9199,-3.9804,-4.1482,-4.1831,-4.2161,-4.3296,-4.3497,-4.3497,-4.3497,-4.3497,-4.3387,-4.3075,0.0,0.0,0.0,0.0,0.0,0.0,-3.9836,-4.0335,0.0,0.0,0.0,0.0,0.0,0.0,-4.1252,-4.156,0.0,-4.2882,-4.2882,-4.2882,-4.2882,-4.2882,-4.2882,-4.2882,-4.2882,-4.2882,-4.2882,-4.2882,-4.2938,-4.2994,-4.3067,-4.3104,-4.316,-4.3233,-4.334,-4.3394,-4.3411,-4.3463,-4.3497,-4.6633,-4.6633,0.0,0.0,-4.6718,0.0,-4.6718,-4.6718,-4.6447,-4.572,-4.5618,-4.5365,-4.4654,-4.3927,-4.3166,-4.2354,0.0,0.0,0.0,-4.1931,-4.2378,-4.2844,-4.2882,-4.2882,-4.2882,-4.2458,-4.2015,-4.1481,-4.0563,-4.007,-4.007,-4.007,-4.007,-4.007,-4.007,-4.007,-4.007,-4.002,-4.0003,-4.0003,-3.9952,-3.9935,-3.9935,-3.9986,-4.0003,-4.0003,-4.0054,-4.007,-3.9969,-3.9242,-3.9445,-3.9766,-3.8345,-3.8662,-3.9703,-4.0115,-4.0565,-4.0867,-4.0601,-4.0474,-4.0274,-3.9568,-3.942,-3.9267,-3.8734,-3.8546,-3.9017,-4.0804,-4.1082,-4.1507,-4.3204,-4.3497,-4.3497,-4.3497,-4.3442,-4.3149,-4.2415,0.0,0.0,0.0,0.0,0.0,0.0,-4.0634,-4.0818,0.0,0.0,0.0,0.0,0.0,-4.1433,-4.0619,-4.1379,-4.214,-4.2882,-4.2882,-4.2882,-4.2882,-4.2882,-4.2882,-4.2882,-4.2882,-4.29,-4.292,-4.292,-4.2994,-4.3104,-4.3104,-4.316,-4.3214,-4.334,-4.3429,-4.3411,-4.3463,-4.3497,-4.3497,0.0,0.0,-4.528,-4.5855,-4.5957,-4.5957,-4.5957,-4.5957,-4.5703,-4.4942,-4.484,-4.4773,-4.4604,-4.4418,-4.3758,-4.2405,-4.2227,-4.1833,-4.1041,-4.1717,-4.2239,-4.2378,-4.2711,-4.2882,-4.2882,-4.2806,-4.232,-4.1481,-4.0563,-4.007,-4.007,-4.007,-4.007,-4.007,-4.007,-4.007,-4.0037,-3.9478,-3.9242,-3.9208,-3.865,-3.8413,-3.8481,-3.9039,-3.9242,-3.9326,-3.9884,-4.007,-3.9969,-3.9242,-3.9106,-3.9089,-3.8193,-3.835,-3.8953,-3.9353,-3.981,-4.0226,-4.0438,-4.0129,-3.9708,-3.9527,-3.9067,-3.8802,-3.9355,-3.8985,-3.9182,-4.1519,-4.1501,-4.1574,-4.3204,-4.3497,-4.3497,-4.3497,-4.2983,-4.2525,-4.2323,-4.124,0.0,0.0,-4.0616,-4.0781,-3.9974,-4.0634,-4.1295,0.0,0.0,0.0,0.0,-4.2287,-4.2359,-4.1452,-4.2212,-4.2701,-4.2882,-4.2882,-4.2882,-4.2882,-4.2882,-4.2882,-4.2882,-4.2882,-4.2956,-4.3049,-4.3049,-4.3086,-4.3178,-4.3269,-4.3359,-4.334,-4.3428,-4.3463,-4.3463,-4.3479,-4.3497,-4.3497,-4.4587,-4.4587,-4.4705,-4.5128,-4.5196,-4.5196,-4.5196,-4.5196,-4.5043,-4.4621,-4.4587,-4.4587,-4.4587,-4.4265,-4.3572,-4.2388,-4.2159,-4.1746,-4.0871,-4.1293,-4.176,-4.2157,-4.2458,-4.2673,-4.29,-4.2673,-4.2115,-4.1185,-4.0434,-4.007,-4.007,-4.007,-4.007,-4.007,-3.9732,-3.958,-3.9529,-3.8802,-3.8497,-3.8464,-3.8075,-3.7905,-3.7939,-3.8345,-3.87,-3.9039,-3.9445,-3.9783,-3.9969,-3.9242,-3.8988,-3.887,-3.8142,-3.7853,-3.7937,-3.8531,-3.9036,-3.946,-3.9514,-3.9286,-3.901,-3.9043,-3.8743,-3.8697,-3.9621,-3.9213,-3.9287,-4.1791,-4.1662,-4.1589,-4.3185,-4.3497,-4.3369,-4.3002,-4.258,-4.2047,-4.1313,-4.0451,0.0,-3.99,-4.0616,-4.1075,-4.1001,-4.1717,-4.2231,-4.2286,-4.2145,0.0,-4.2099,-4.2759,-4.2705,-4.1741,-4.2484,-4.2882,-4.2882,-4.2882,-4.2882,-4.2882,-4.2882,-4.2938,-4.2994,-4.2994,-4.3049,-4.316,-4.316,-4.3196,-4.3305,-4.3376,-4.3429,-4.3446,-4.3497,-4.3497,-4.3497,-4.3497,-4.3497,-4.3497,-4.4587,-4.4587,-4.4587,-4.4587,-4.4587,-4.4587,-4.4587,-4.4587,-4.4587,-4.4587,-4.4587,-4.4587,-4.4587,-4.3995,-4.325,-4.2371,-4.2286,-4.1852,-4.0762,-4.0754,-4.1157,-4.1931,-4.2115,-4.2338,-4.2673,-4.2239,-4.1534,-4.0629,-4.0133,-3.9868,-3.9749,-3.9749,-3.9749,-3.9715,-3.9106,-3.8819,-3.8785,-3.8058,-3.7736,-3.7719,-3.7601,-3.7567,-3.7584,-3.7702,-3.8125,-3.8667,-3.8785,-3.9292,-3.98,-3.9105,-3.8868,-3.8732,-3.8004,-3.7335,-3.6898,-3.7668,-3.822,-3.8545,-3.8434,-3.8415,-3.8415,-3.851,-3.8541,-3.8797,-3.9845,-3.946,-3.957,-4.1974,-4.1846,-4.1754,-4.3222,-4.3387,-4.313,-4.2561,-4.2176,-4.1497,-4.0249,0.0,-3.99,-3.99,-4.0726,-4.1552,-4.2231,-4.291,-4.3075,-4.2525,-4.2951,-4.2955,0.0,-4.2921,-4.2832,-4.1959,-4.2594,-4.2938,-4.2882,-4.2882,-4.2882,-4.2882,-4.2938,-4.2994,-4.3104,-4.3104,-4.316,-4.3251,-4.3251,-4.3286,-4.3429,-4.3429,-4.3446,-4.3497,-4.3497,-4.3497,-4.3497,-4.3497,-4.3497,-4.3497,-4.4587,-4.4587,-4.4587,-4.4587,-4.4587,-4.4587,-4.4587,-4.4587,-4.4587,-4.4587,-4.4587,-4.4587,-4.4587,-4.4468,-4.3826,-4.2405,-4.2286,-4.1713,-4.0306,-4.058,-4.0849,-4.1019,-4.1778,-4.2074,-4.17,-4.1276,-4.0631,-3.9871,-3.9384,-3.8853,-3.8244,-3.8244,-3.8244,-3.8244,-3.8125,-3.8075,-3.8024,-3.7263,-3.6958,-3.6891,-3.6248,-3.5977,-3.6045,-3.6705,-3.7026,-3.7195,-3.7855,-3.8531,-3.9088,-3.8404,-3.815,-3.8061,-3.7422,-3.6734,-3.626,-3.676,-3.6961,-3.7256,-3.8153,-3.8446,-3.851,-3.8658,-3.8658,-3.9043,-4.0579,-4.0286,-4.0396,-4.2818,-4.2671,-4.2396,-4.3314,-4.2928,-4.2671,-4.3222,-4.1589,-4.0414,-4.0855,0.0,-3.99,-3.99,-4.1203,-4.2158,-4.2286,-4.2415,-4.2708,-4.3259,-4.28,-4.2677,-4.3175,-4.3321,-4.325,-4.2996,-4.3014,-4.2994,-4.2882,-4.2882,-4.2882,-4.2882,-4.2994,-4.3067,-4.3104,-4.316,-4.3251,-4.3376,-4.3376,-4.3411,-4.3497,-4.3497,-4.3497,-4.3497,-4.3497,-4.3497,-4.3497,-4.3497,-4.3497,-4.3497,-4.4587,-4.4587,-4.4587,-4.4587,-4.4587,-4.4587,-4.4587,-4.4587,-4.4587,-4.4587,-4.4587,-4.4587,-4.4587,-4.4198,-4.3504,-4.2388,-4.1931,-4.1238,-4.0155,-4.0303,-4.0531,-4.0802,-4.1185,-4.1321,-4.1139,-4.0545,-3.9903,-3.9341,-3.8679,-3.8227,-3.7905,-3.7905,-3.7905,-3.7889,-3.7483,-3.7297,-3.7246,-3.6485,-3.6146,-3.6129,-3.5757,-3.5622,-3.5762,-3.6118,-3.6554,-3.699,-3.7347,-3.8214,-3.9112,-3.8376,-3.8103,-3.7984,-3.7297,-3.6635,-3.6191,-3.6603,-3.7058,-3.756,-3.8101,-3.8433,-3.8609,-3.8689,-3.9038,-3.9662,-4.0836,-4.0818,-4.1111,-4.3075,-4.2855,-4.2543,-4.3332,-4.2837,-4.2286,-4.2213,-4.091,0.0,0.0,-4.012,-4.0212,-4.1093,-4.1846,-4.247,-4.2892,-4.2947,-4.3094,-4.3461,-4.3149,-4.3094,-4.3463,-4.3428,-4.3411,-4.3305,-4.3233,-4.3105,-4.305,-4.305,-4.2832,-4.2432,-4.2941,-4.2978,-4.2631,-4.3122,-4.3376,-4.3428,-4.3428,-4.3463,-4.3497,-4.3497,-4.3497,-4.3497,-4.3497,-4.3497,-4.3497,-4.3497,-4.3497,-4.3497,-4.4587,-4.4587,-4.4587,-4.4587,-4.4587,-4.4587,-4.4587,-4.4587,-4.4587,-4.4587,-4.4418,-4.4316,-4.4316,-4.3623,-4.2861,-4.21,-4.1525,-4.0882,-4.0121,-4.007,-4.0254,-4.0628,-4.0456,-4.0449,-4.0543,-3.9726,-3.8999,-3.8481,-3.7922,-3.755,-3.7381,-3.7381,-3.7381,-3.7347,-3.6772,-3.6502,-3.6468,-3.5876,-3.5622,-3.5622,-3.5622,-3.5667,-3.5773,-3.5773,-3.6174,-3.6757,-3.6757,-3.7626,-3.8679,-3.794,-3.7803,-3.7866,-3.7131,-3.6585,-3.6276,-3.6539,-3.7173,-3.7844,-3.7948,-3.8186,-3.8455,-3.862,-3.913,-3.9841,-4.0844,-4.1081,-4.1517,-4.3047,-4.2845,-4.266,-4.3369,-4.269,-4.1937,-4.1699,0.0,0.0,0.0,-4.0451,-4.091,-4.2158,-4.247,-4.2818,-4.3424,-4.3497,-4.3497,-4.3497,-4.3497,-4.3497,-4.3497,-4.3497,-4.3463,-4.3411,-4.3286,-4.3214,-4.3214,-4.3214,-4.2886,-4.2285,-4.2959,-4.2976,-4.2498,-4.3137,-4.3446,-4.3497,-4.3497,-4.3497,-4.3497,-4.3497,-4.3497,-4.3497,-4.3497,-4.3497,-4.3497,-4.3497,-4.3497,-4.3497,-4.4587,-4.4587,-4.4587,-4.4587,-4.4587,-4.4587,-4.4587,-4.4587,-4.4587,-4.4587,-4.3944,-4.3504,-4.3504,-4.2828,-4.2083,-4.1356,-4.1238,-4.0882,-4.0121,-4.007,-4.0138,-4.0171,-3.9477,-3.9347,-3.9784,-3.8615,-3.7682,-3.6941,-3.6891,-3.6502,-3.5791,-3.5791,-3.5791,-3.5791,-3.5723,-3.5707,-3.569,-3.5639,-3.5622,-3.5622,-3.5622,-3.5622,-3.5622,-3.5622,-3.5656,-3.5707,-3.5707,-3.6305,-3.7019,-3.6358,-3.6713,-3.7264,-3.6543,-3.6353,-3.6301,-3.6343,-3.6638,-3.7094,-3.7414,-3.7578,-3.7739,-3.8417,-3.8631,-3.9078,-4.0653,-4.101,-4.1378,-4.2663,-4.2884,-4.3014,-4.341,-4.2231,-4.1662,-4.3075,0.0,0.0,-4.1919,-4.2121,-4.2176,-4.2286,-4.2947,-4.3424,-4.3479,-4.3497,-4.3497,-4.3497,-4.3497,-4.3497,-4.3497,-4.3497,-4.3497,-4.3497,-4.3304,-4.3214,-4.3214,-4.3214,-4.3178,-4.3105,-4.3322,-4.3358,-4.3303,-4.3444,-4.3497,-4.3497,-4.3497,-4.3497,-4.3497,-4.3497,-4.3497,-4.3497,-4.3497,-4.3497,-4.3497,-4.3497,-4.3497,-4.3497,-4.4587,-4.4587,-4.4587,-4.4587,-4.4587,-4.4587,-4.4587,-4.4181,-4.3859,-4.3859,-4.32,-4.2726,-4.2726,-4.2066,-4.1508,-4.1221,-4.0781,-4.0392,-4.0104,-4.007,-3.9884,-3.9428,-3.87,-3.8408,-3.8581,-3.7678,-3.706,-3.6772,-3.6299,-3.591,-3.5622,-3.5622,-3.5622,-3.5622,-3.5622,-3.5622,-3.5622,-3.5622,-3.5622,-3.5622,-3.5622,-3.5667,-3.5711,-3.5711,-3.5756,-3.5844,-3.5932,-3.6471,-3.7072,-3.6388,-3.675,-3.7309,-3.6559,-3.6301,-3.6301,-3.6301,-3.6409,-3.6557,-3.6701,-3.7132,-3.7684,-3.8413,-3.8966,-3.9646,-4.077,-4.1395,-4.1882,-4.2364,-4.2711,-4.2957,-4.3105,-4.2006,-4.1479,-4.258,0.0,-4.0451,-4.2066,-4.2304,-4.2488,-4.2983,-4.3296,-4.3497,-4.3497,-4.3497,-4.3497,-4.3497,-4.3497,-4.3497,-4.3497,-4.3497,-4.3497,-4.3497,-4.2933,-4.288,-4.3375,-4.3393,-4.3137,-4.266,-4.319,-4.3206,-4.2748,-4.3259,-4.3497,-4.3497,-4.3497,-4.3497,-4.3497,-4.3497,-4.3497,-4.3497,-4.3497,-4.3497,-4.3497,-4.3497,-4.3497,-4.3497,-4.4587,-4.4384,-4.4282,-4.4536,-4.4181,-4.3944,-4.4181,-4.3555,-4.3064,-4.3064,-4.2405,-4.1948,-4.1948,-4.1288,-4.0849,-4.0849,-4.0375,-4.007,-4.007,-3.9868,-3.9512,-3.9005,-3.8294,-3.7787,-3.755,-3.6806,-3.6417,-3.6417,-3.5876,-3.5622,-3.5622,-3.5622,-3.5622,-3.5622,-3.5622,-3.5622,-3.5622,-3.5622,-3.5667,-3.5667,-3.5711,-3.5756,-3.5861,-3.5861,-3.5932,-3.6019,-3.6122,-3.6491,-3.6895,-3.6405,-3.6638,-3.7025,-3.6473,-3.6301,-3.6301,-3.6301,-3.6301,-3.6301,-3.6301,-3.6893,-3.7697,-3.8417,-3.9176,-3.9994,-4.0806,-4.1407,-4.1839,-4.1948,-4.2257,-4.2516,-4.2634,-4.1669,-4.1147,-4.1951,-4.0863,-4.0451,-4.2066,-4.2304,-4.2598,-4.3387,-4.3497,-4.3497,-4.3497,-4.3497,-4.3497,-4.3497,-4.3497,-4.3497,-4.3497,-4.3497,-4.3497,-4.3497,-4.2947,-4.2928,-4.3479,-4.324,-4.2837,-4.2304,-4.3112,-4.3204,-4.269,-4.324,-4.3497,-4.3497,-4.3497,-4.3497,-4.3497,-4.3497,-4.3497,-4.3497,-4.3497,-4.3497,-4.3497,-4.3497,-4.3497,-4.3497,-4.4587,-4.3944,-4.3656,-4.4434,-4.3318,-4.254,-4.3301,-4.2777,-4.2286,-4.2286,-4.1644,-4.1187,-4.1187,-4.0527,-4.007,-4.007,-4.007,-4.007,-4.007,-3.9394,-3.9005,-3.8988,-3.8294,-3.755,-3.6806,-3.6011,-3.5622,-3.5622,-3.5622,-3.5622,-3.5622,-3.5622,-3.5622,-3.5622,-3.5622,-3.5622,-3.5622,-3.5711,-3.5817,-3.5817,-3.5949,-3.6019,-3.6019,-3.6019,-3.6019,-3.6019,-3.6019,-3.6079,-3.6225,-3.6225,-3.6233,-3.6301,-3.6301,-3.6301,-3.6301,-3.6301,-3.6301,-3.6301,-3.6301,-3.6887,-3.7663,-3.8405,-3.9146,-3.9905,-4.0698,-4.0888,-4.0995,-4.1401,-4.149,-4.1648,-4.2115,-4.1207,-4.0673,-4.1469,-4.0643,-4.0469,-4.2084,-4.2304,-4.2598,-4.3387,-4.3497,-4.3497,-4.3497,-4.3497,-4.3497,-4.3497,-4.3497,-4.3497,-4.3497,-4.3497,-4.3497,-4.3497,-4.3479,-4.3479,-4.3479,-4.2708,-4.2304,-4.2304,-4.3112,-4.3497,-4.3479,-4.3497,-4.3497,-4.3497,-4.3497,-4.3497,-4.3497,-4.3497,-4.3497,-4.3497,-4.3497,-4.3497,-4.3497,-4.3497,-4.3497,-4.3497,-4.4367,-4.3944,-4.3504,-4.3724,-4.3386,-4.298,-4.2675,-4.1999,-4.1525,-4.1525,-4.0882,-4.0409,-4.0409,-4.0206,-4.007,-4.007,-4.007,-4.007,-4.007,-3.9868,-3.9529,-3.9005,-3.7787,-3.7009,-3.6772,-3.6011,-3.5622,-3.5622,-3.5622,-3.5622,-3.5622,-3.5622,-3.5622,-3.5622,-3.5711,-3.5728,-3.5773,-3.5888,-3.5932,-3.5932,-3.5975,-3.6019,-3.6019,-3.6019,-3.6019,-3.6019,-3.6122,-3.6182,-3.6225,-3.6233,-3.6259,-3.6301,-3.6301,-3.6301,-3.6301,-3.6301,-3.6301,-3.6301,-3.6301,-3.7267,-3.8301,-3.8543,-3.9146,-3.9905,-4.0698,-4.0888,-4.0918,-4.1041,-4.1328,-4.1516,-4.1692,-4.122,-4.1071,-4.1877,-4.1258,-4.1159,-4.2541,-4.2723,-4.2923,-4.3426,-4.3497,-4.3497,-4.3497,-4.3497,-4.3497,-4.3497,-4.3497,-4.3497,-4.3497,-4.3497,-4.3497,-4.3497,-4.2947,-4.2653,-4.2653,-4.2983,-4.2855,-4.2304,-4.3112,-4.3185,-4.2671,-4.3222,-4.3497,-4.3497,-4.3497,-4.3497,-4.3497,-4.3497,-4.3497,-4.3497,-4.3497,-4.3497,-4.3497,-4.3497,-4.3497,-4.3497,-4.3487,-4.3064,-4.2642,-4.2929,-4.2489,-4.2049,-4.188,-4.1238,-4.0747,-4.0747,-4.0358,-4.007,-4.007,-4.007,-4.007,-4.007,-4.007,-4.007,-4.007,-4.007,-3.9884,-3.9445,-3.8007,-3.7094,-3.6789,-3.6011,-3.5622,-3.5667,-3.5667,-3.5711,-3.5756,-3.5756,-3.5756,-3.5756,-3.5844,-3.5861,-3.5817,-3.5993,-3.6036,-3.6019,-3.6105,-3.6148,-3.6148,-3.6148,-3.6148,-3.6148,-3.6191,-3.6251,-3.6251,-3.6301,-3.6301,-3.6301,-3.6301,-3.6301,-3.6301,-3.6301,-3.6301,-3.637,-3.668,-3.7663,-3.8663,-3.8957,-3.9595,-4.0284,-4.0767,-4.0888,-4.0888,-4.0888,-4.1071,-4.1283,-4.1283,-4.0725,-4.0435,-4.0914,-4.0491,-4.0438,-4.1515,-4.2063,-4.2595,-4.3178,-4.341,-4.3497,-4.3497,-4.3497,-4.3497,-4.3497,-4.3497,-4.3497,-4.3497,-4.3497,-4.3497,-4.3497,-4.302,-4.2763,-4.2763,-4.3259,-4.3094,-4.2304,-4.3112,-4.324,-4.2782,-4.3277,-4.3497,-4.3497,-4.3497,-4.3497,-4.3497,-4.3497,-4.3497,-4.3497,-4.3497,-4.3497,-4.3497,-4.3497,-4.3497,-4.3497,-4.2252,-4.1711,-4.1407,-4.2066,-4.1068,-4.0392,-4.1018,-4.051,-4.007,-4.007,-4.007,-4.007,-4.007,-4.007,-4.007,-4.007,-4.007,-4.007,-4.007,-4.007,-4.007,-4.007,-3.8783,-3.7733,-3.6992,-3.6146,-3.5768,-3.5946,-3.5919,-3.5963,-3.6078,-3.601,-3.5975,-3.5975,-3.5975,-3.5888,-3.5817,-3.6079,-3.6122,-3.6019,-3.6216,-3.6301,-3.6301,-3.6301,-3.6301,-3.6301,-3.6301,-3.6301,-3.6301,-3.6301,-3.6301,-3.6301,-3.6301,-3.6301,-3.6301,-3.6301,-3.6353,-3.6559,-3.7284,-3.8077,-3.8853,-3.9526,-4.0284,-4.0888,-4.0888,-4.0888,-4.0888,-4.0888,-4.0888,-4.0853,-4.0784,-3.9956,-3.9256,-3.9256,-3.8952,-3.9014,-3.9818,-4.0917,-4.1919,-4.2792,-4.3214,-4.3444,-4.3497,-4.3497,-4.3497,-4.3497,-4.3497,-4.3497,-4.3497,-4.3497,-4.3497,-4.3497,-4.3497,-4.3497,-4.3497,-4.3497,-4.3094,-4.2304,-4.3112,-4.3442,-4.3387,-4.3461,-4.3497,-4.3497,-4.3497,-4.3497,-4.3497,-4.3497,-4.3497,-4.3497,-4.3497,-4.3497,-4.3497,-4.3497,-4.3497,-4.3497,-4.2066,-4.1711,-4.1255,-4.1407,-4.117,-4.0815,-4.0392,-4.0189,-4.007,-4.007,-4.007,-4.007,-4.007,-4.007,-4.007,-4.007,-4.007,-4.007,-4.007,-4.007,-4.007,-4.007,-3.958,-3.908,-3.8514,-3.7212,-3.6729,-3.7033,-3.6729,-3.6581,-3.661,-3.6,-3.5711,-3.5711,-3.5817,-3.5817,-3.5817,-3.5975,-3.6019,-3.6019,-3.6165,-3.6208,-3.6208,-3.6208,-3.6233,-3.6301,-3.6251,-3.6276,-3.6301,-3.6301,-3.6301,-3.6301,-3.6301,-3.6301,-3.6301,-3.6301,-3.6749,-3.7267,-3.7439,-3.8439,-3.9491,-3.9664,-4.0284,-4.0888,-4.0888,-4.0888,-4.0888,-4.0888,-4.0888,-4.0698,-4.0077,-3.9772,-3.9576,-3.9576,-3.9527,-3.9826,-4.0989,-4.1364,-4.1878,-4.2788,-4.2975,-4.3142,-4.3463,-4.3497,-4.3497,-4.3497,-4.3497,-4.3497,-4.3497,-4.3497,-4.3497,-4.3497,-4.3497,-4.3497,-4.3497,-4.3497,-4.3094,-4.2304,-4.3112,-4.3167,-4.258,-4.3204,-4.3497,-4.3497,-4.3497,-4.3497,-4.3497,-4.3497,-4.3497,-4.3497,-4.3497,-4.3497,-4.3497,-4.3497,-4.3497,-4.3497,-4.1085,-4.0933,-4.0679,-4.0679,-4.0679,-4.0544,-4.0138,-4.007,-4.007,-4.007,-4.007,-4.007,-4.007,-4.007,-4.007,-4.007,-4.007,-4.007,-4.007,-4.007,-3.9918,-3.958,-3.9641,-3.9526,-3.9083,-3.8523,-3.7866,-3.7158,-3.661,-3.6367,-3.6395,-3.5987,-3.58,-3.58,-3.5844,-3.5861,-3.5817,-3.5932,-3.6019,-3.6019,-3.6122,-3.6208,-3.6251,-3.6251,-3.6276,-3.6301,-3.6276,-3.6276,-3.6301,-3.6301,-3.6301,-3.6301,-3.6301,-3.6301,-3.6301,-3.6301,-3.6853,-3.756,-3.7922,-3.8836,-3.9784,-4.0164,-4.0578,-4.0888,-4.0888,-4.0888,-4.0888,-4.0888,-4.0888,-4.0629,-3.9836,-3.9405,-3.9163,-3.9163,-3.9163,-3.9513,-4.053,-4.1111,-4.1692,-4.2157,-4.2634,-4.3069,-4.3444,-4.3497,-4.3497,-4.3497,-4.3497,-4.3497,-4.3497,-4.3497,-4.3497,-4.3497,-4.3497,-4.3497,-4.3497,-4.3497,-4.3277,-4.2873,-4.3296,-4.3277,-4.2892,-4.3296,-4.3497,-4.3497,-4.3497,-4.3497,-4.3497,-4.3497,-4.3497,-4.3497,-4.3497,-4.3497,-4.3497,-4.3497,-4.3497,-4.3497,-4.007,-4.007,-4.007,-4.007,-4.007,-4.007,-4.007,-4.007,-4.007,-4.007,-4.007,-4.007,-4.007,-4.007,-4.007,-4.007,-4.007,-4.007,-4.007,-4.007,-3.9817,-3.9208,-3.9504,-3.9576,-3.9347,-3.9465,-3.8849,-3.749,-3.6593,-3.6208,-3.6324,-3.6051,-3.5932,-3.5975,-3.5932,-3.5888,-3.5817,-3.5888,-3.5932,-3.5932,-3.6079,-3.6208,-3.6259,-3.6259,-3.6259,-3.6301,-3.6301,-3.6301,-3.6301,-3.6301,-3.6301,-3.6301,-3.6301,-3.6387,-3.6473,-3.6335,-3.7042,-3.7974,-3.8456,-3.9232,-4.006,-4.0716,-4.0888,-4.0888,-4.0888,-4.0888,-4.0888,-4.0888,-4.0888,-4.0629,-3.9836,-3.9198,-3.8784,-3.8784,-3.8784,-3.9043,-3.9802,-4.0791,-4.1445,-4.1604,-4.2458,-4.3105,-4.3463,-4.3497,-4.3497,-4.3497,-4.3497,-4.3497,-4.3497,-4.3497,-4.3497,-4.3497,-4.3497,-4.3497,-4.3497,-4.3497,-4.3497,-4.3497,-4.3497,-4.3497,-4.3497,-4.3497,-4.3497,-4.3497,-4.3497,-4.3497,-4.3497,-4.3497,-4.3497,-4.3497,-4.3497,-4.3497,-4.3497,-4.3497,-4.3497,-4.3497,-4.007,-4.007,-4.007,-4.007,-4.007,-4.007,-4.007,-4.007,-4.007,-4.007,-4.007,-4.007,-4.007,-4.007,-4.007,-4.007,-4.007,-4.007,-4.007,-4.007,-4.0037,-3.9935,-3.9778,-3.977,-3.998,-3.9181,-3.9101,-3.9826,-3.8328,-3.7648,-3.7614,-3.6293,-3.5711,-3.5817,-3.5711,-3.5711,-3.5773,-3.5711,-3.5667,-3.5667,-3.5817,-3.5949,-3.6062,-3.6062,-3.6131,-3.6301,-3.6251,-3.6233,-3.6301,-3.6301,-3.6301,-3.6301,-3.6301,-3.6766,-3.718,-3.649,-3.7767,-3.9284,-3.8732,-3.9629,-4.075,-4.0853,-4.0888,-4.0888,-4.0888,-4.0888,-4.0888,-4.0888,-4.0888,-4.0629,-3.9836,-3.9612,-3.9543,-3.9543,-3.9543,-3.9819,-4.0612,-4.0896,-4.1255,-4.2032,-4.2884,-4.3444,-4.3479,-4.3497,-4.3497,-4.3497,-4.3497,-4.3497,-4.3497,-4.3497,-4.3497,-4.3497,-4.3497,-4.3497,-4.3497,-4.3497,-4.3497,-4.3497,-4.3497,-4.3497,-4.3497,-4.3497,-4.3497,-4.3497,-4.3497,-4.3497,-4.3497,-4.3497,-4.3497,-4.3497,-4.3497,-4.3497,-4.3497,-4.3497,-4.3497,-4.3497,-4.007,-4.007,-4.007,-4.007,-4.007,-4.007,-4.007,-4.007,-4.007,-4.007,-4.007,-4.007,-4.007,-4.007,-4.007,-4.007,-4.007,-4.007,-4.007,-4.007,-3.9715,-3.8903,-3.9384,-3.9554,-3.9281,-3.9227,-3.968,-4.0561,-3.8858,-3.781,-3.7432,-3.6752,-3.6253,-3.5905,-3.5844,-3.5844,-3.5888,-3.5773,-3.5817,-3.5932,-3.5905,-3.6019,-3.6174,-3.6174,-3.6216,-3.6301,-3.6208,-3.6208,-3.6233,-3.6148,-3.6191,-3.6233,-3.6148,-3.6724,-3.7291,-3.6886,-3.8088,-3.9537,-3.921,-3.9979,-4.0888,-4.0793,-4.084,-4.0888,-4.0793,-4.084,-4.0888,-4.0888,-4.0888,-4.0629,-3.9836,-3.9698,-3.9698,-3.9698,-3.9698,-3.9974,-4.0767,-4.0888,-4.1209,-4.2092,-4.277,-4.3268,-4.3479,-4.3497,-4.3497,-4.3497,-4.3497,-4.3497,-4.3497,-4.3497,-4.3497,-4.3497,-4.3497,-4.3497,-4.3497,-4.3497,-4.3497,-4.3497,-4.3497,-4.3497,-4.3497,-4.3497,-4.3497,-4.3497,-4.3497,-4.3497,-4.3497,-4.3497,-4.3497,-4.3497,-4.3497,-4.3497,-4.3497,-4.3497,-4.3497,-4.3497]}]]